Wetterdaten: Freitag, 04.08.2017
Datum Zeit Temp. A. Pool Temp. Feuchte A. Luftdruck Regen Wind Richtung Richtung Sonnenschein ET UV Solar Taupunkt Windchill Windben Empfang
04.08.2017 00:00 21,6 C 27,2 C 78 % 1012,0 hPa 0,0 l/m 8,3 km/h (2 Bft) O 101 0 min 0,000 mm 0,0 UV-I 0 W/m 17,6 C 20,9 C 11,3 km/h (2 Bft) 100,00 %
04.08.2017 00:02 21,6 C 27,2 C 78 % 1012,0 hPa 0,0 l/m 6,4 km/h (2 Bft) O 101 0 min 0,000 mm 0,0 UV-I 0 W/m 17,6 C 21,6 C 6,4 km/h (2 Bft) 10,00 %
04.08.2017 00:04 21,4 C 27,2 C 78 % 1012,1 hPa 0,0 l/m 3,8 km/h (1 Bft) O 96 0 min 0,000 mm 0,0 UV-I 0 W/m 17,4 C 21,4 C 6,4 km/h (2 Bft) 91,11 %
04.08.2017 00:06 21,5 C 27,2 C 78 % 1012,1 hPa 0,0 l/m 0,4 km/h (0 Bft) O 96 0 min 0,000 mm 0,0 UV-I 0 W/m 17,5 C 21,5 C 1,6 km/h (1 Bft) 100,00 %
04.08.2017 00:08 21,4 C 27,2 C 78 % 1012,1 hPa 0,0 l/m 3,4 km/h (1 Bft) NO 50 0 min 0,000 mm 0,0 UV-I 0 W/m 17,4 C 21,4 C 6,4 km/h (2 Bft) 100,00 %
04.08.2017 00:10 21,4 C 27,2 C 78 % 1012,1 hPa 0,0 l/m 4,0 km/h (1 Bft) NO 50 0 min 0,000 mm 0,0 UV-I 0 W/m 17,4 C 21,4 C 4,8 km/h (1 Bft) 100,00 %
04.08.2017 00:12 21,3 C 27,2 C 78 % 1012,0 hPa 0,0 l/m 4,6 km/h (1 Bft) NO 51 0 min 0,000 mm 0,0 UV-I 0 W/m 17,3 C 21,3 C 6,4 km/h (2 Bft) 100,00 %
04.08.2017 00:14 21,4 C 27,2 C 77 % 1012,0 hPa 0,0 l/m 5,5 km/h (1 Bft) NO 51 0 min 0,000 mm 0,0 UV-I 0 W/m 17,2 C 21,4 C 8,0 km/h (2 Bft) 100,00 %
04.08.2017 00:16 21,4 C 27,2 C 76 % 1011,9 hPa 0,0 l/m 5,6 km/h (1 Bft) NO 51 0 min 0,000 mm 0,0 UV-I 0 W/m 17,0 C 21,4 C 6,4 km/h (2 Bft) 100,00 %
04.08.2017 00:18 21,6 C 27,2 C 76 % 1011,9 hPa 0,0 l/m 3,7 km/h (1 Bft) NO 51 0 min 0,000 mm 0,0 UV-I 0 W/m 17,2 C 21,6 C 4,8 km/h (1 Bft) 100,00 %
04.08.2017 00:20 21,8 C 27,2 C 77 % 1011,9 hPa 0,0 l/m 1,4 km/h (1 Bft) NO 51 0 min 0,000 mm 0,0 UV-I 0 W/m 17,6 C 21,8 C 3,2 km/h (1 Bft) 100,00 %
04.08.2017 00:22 21,8 C 27,2 C 77 % 1012,0 hPa 0,0 l/m 2,7 km/h (1 Bft) NO 51 0 min 0,000 mm 0,0 UV-I 0 W/m 17,6 C 21,8 C 4,8 km/h (1 Bft) 100,00 %
04.08.2017 00:24 21,8 C 27,2 C 78 % 1012,1 hPa 0,0 l/m 2,7 km/h (1 Bft) NO 51 0 min 0,000 mm 0,0 UV-I 0 W/m 17,8 C 21,8 C 3,2 km/h (1 Bft) 100,00 %
04.08.2017 00:26 21,7 C 27,2 C 77 % 1012,1 hPa 0,0 l/m 3,2 km/h (1 Bft) NO 46 0 min 0,000 mm 0,0 UV-I 0 W/m 17,5 C 21,7 C 4,8 km/h (1 Bft) 100,00 %
04.08.2017 00:28 21,7 C 27,2 C 77 % 1012,1 hPa 0,0 l/m 2,2 km/h (1 Bft) NO 46 0 min 0,000 mm 0,0 UV-I 0 W/m 17,5 C 21,7 C 4,8 km/h (1 Bft) 100,00 %
04.08.2017 00:30 21,7 C 27,2 C 77 % 1012,1 hPa 0,0 l/m 0,7 km/h (0 Bft) NO 46 0 min 0,000 mm 0,0 UV-I 0 W/m 17,5 C 21,7 C 3,2 km/h (1 Bft) 97,56 %
04.08.2017 00:32 21,8 C 27,2 C 77 % 1012,1 hPa 0,0 l/m 0,0 km/h (0 Bft) NO 46 0 min 0,000 mm 0,0 UV-I 0 W/m 17,6 C 21,8 C 0,0 km/h (0 Bft) 100,00 %
04.08.2017 00:34 21,8 C 27,2 C 77 % 1012,1 hPa 0,0 l/m 1,1 km/h (1 Bft) NO 46 0 min 0,000 mm 0,0 UV-I 0 W/m 17,6 C 21,8 C 3,2 km/h (1 Bft) 96,00 %
04.08.2017 00:36 21,8 C 27,2 C 77 % 1012,1 hPa 0,0 l/m 1,3 km/h (1 Bft) NO 46 0 min 0,000 mm 0,0 UV-I 0 W/m 17,6 C 21,8 C 3,2 km/h (1 Bft) 100,00 %
04.08.2017 00:38 21,8 C 27,2 C 77 % 1012,2 hPa 0,0 l/m 0,2 km/h (0 Bft) NO 46 0 min 0,000 mm 0,0 UV-I 0 W/m 17,6 C 21,8 C 1,6 km/h (1 Bft) 100,00 %
04.08.2017 00:40 21,7 C 27,2 C 78 % 1012,2 hPa 0,0 l/m 0,1 km/h (0 Bft) NO 46 0 min 0,000 mm 0,0 UV-I 0 W/m 17,7 C 21,7 C 1,6 km/h (1 Bft) 100,00 %
04.08.2017 00:42 21,6 C 27,2 C 78 % 1012,1 hPa 0,0 l/m 2,9 km/h (1 Bft) NO 46 0 min 0,000 mm 0,0 UV-I 0 W/m 17,6 C 21,6 C 4,8 km/h (1 Bft) 100,00 %
04.08.2017 00:44 21,4 C 27,2 C 79 % 1012,0 hPa 0,0 l/m 4,1 km/h (1 Bft) NO 46 0 min 0,000 mm 0,0 UV-I 0 W/m 17,6 C 21,4 C 4,8 km/h (1 Bft) 100,00 %
04.08.2017 00:46 21,4 C 27,2 C 78 % 1012,0 hPa 0,0 l/m 2,5 km/h (1 Bft) NO 46 0 min 0,000 mm 0,0 UV-I 0 W/m 17,4 C 21,4 C 3,2 km/h (1 Bft) 100,00 %
04.08.2017 00:48 21,5 C 27,2 C 78 % 1012,0 hPa 0,0 l/m 2,4 km/h (1 Bft) NO 46 0 min 0,000 mm 0,0 UV-I 0 W/m 17,5 C 21,5 C 3,2 km/h (1 Bft) 100,00 %
04.08.2017 00:50 21,5 C 27,2 C 78 % 1012,0 hPa 0,0 l/m 3,9 km/h (1 Bft) O-NO 67 0 min 0,000 mm 0,0 UV-I 0 W/m 17,5 C 21,5 C 8,0 km/h (2 Bft) 100,00 %
04.08.2017 00:52 21,6 C 27,2 C 78 % 1011,9 hPa 0,0 l/m 7,2 km/h (2 Bft) O-NO 72 0 min 0,000 mm 0,0 UV-I 0 W/m 17,6 C 21,3 C 8,0 km/h (2 Bft) 100,00 %
04.08.2017 00:54 21,6 C 27,2 C 78 % 1011,9 hPa 0,0 l/m 6,8 km/h (2 Bft) O-NO 68 0 min 0,000 mm 0,0 UV-I 0 W/m 17,6 C 21,5 C 9,7 km/h (2 Bft) 97,87 %
04.08.2017 00:56 21,7 C 27,2 C 77 % 1011,9 hPa 0,0 l/m 4,6 km/h (1 Bft) O-NO 68 0 min 0,000 mm 0,0 UV-I 0 W/m 17,5 C 21,7 C 6,4 km/h (2 Bft) 93,62 %
04.08.2017 00:58 21,7 C 27,2 C 77 % 1011,9 hPa 0,0 l/m 3,1 km/h (1 Bft) O-NO 68 0 min 0,000 mm 0,0 UV-I 0 W/m 17,5 C 21,7 C 4,8 km/h (1 Bft) 94,74 %
04.08.2017 01:00 21,7 C 27,2 C 78 % 1011,9 hPa 0,0 l/m 3,5 km/h (1 Bft) O-NO 67 0 min 0,025 mm 0,0 UV-I 0 W/m 17,7 C 21,7 C 6,4 km/h (2 Bft) 94,00 %
04.08.2017 01:02 21,7 C 27,2 C 77 % 1011,8 hPa 0,0 l/m 5,4 km/h (1 Bft) O-NO 67 0 min 0,000 mm 0,0 UV-I 0 W/m 17,5 C 21,7 C 6,4 km/h (2 Bft) 93,62 %
04.08.2017 01:04 21,7 C 27,2 C 77 % 1011,8 hPa 0,0 l/m 5,1 km/h (1 Bft) O-NO 68 0 min 0,000 mm 0,0 UV-I 0 W/m 17,5 C 21,7 C 6,4 km/h (2 Bft) 96,00 %
04.08.2017 01:06 21,7 C 27,2 C 77 % 1011,8 hPa 0,0 l/m 3,4 km/h (1 Bft) O-NO 67 0 min 0,000 mm 0,0 UV-I 0 W/m 17,5 C 21,7 C 4,8 km/h (1 Bft) 92,68 %
04.08.2017 01:08 21,8 C 27,2 C 77 % 1011,8 hPa 0,0 l/m 1,8 km/h (1 Bft) O-NO 68 0 min 0,000 mm 0,0 UV-I 0 W/m 17,6 C 21,8 C 3,2 km/h (1 Bft) 96,00 %
04.08.2017 01:10 21,8 C 27,2 C 77 % 1011,8 hPa 0,0 l/m 2,7 km/h (1 Bft) O-NO 68 0 min 0,000 mm 0,0 UV-I 0 W/m 17,6 C 21,8 C 4,8 km/h (1 Bft) 92,68 %
04.08.2017 01:12 21,8 C 27,2 C 77 % 1011,7 hPa 0,0 l/m 4,1 km/h (1 Bft) O-NO 68 0 min 0,000 mm 0,0 UV-I 0 W/m 17,6 C 21,8 C 4,8 km/h (1 Bft) 96,23 %
04.08.2017 01:14 21,9 C 27,2 C 76 % 1011,7 hPa 0,0 l/m 1,3 km/h (1 Bft) O-NO 68 0 min 0,000 mm 0,0 UV-I 0 W/m 17,5 C 21,9 C 3,2 km/h (1 Bft) 97,87 %
04.08.2017 01:16 21,9 C 27,2 C 76 % 1011,8 hPa 0,0 l/m 0,8 km/h (0 Bft) O-NO 67 0 min 0,000 mm 0,0 UV-I 0 W/m 17,5 C 21,9 C 1,6 km/h (1 Bft) 88,00 %
04.08.2017 01:18 21,9 C 27,2 C 77 % 1011,8 hPa 0,0 l/m 1,0 km/h (0 Bft) O-NO 67 0 min 0,000 mm 0,0 UV-I 0 W/m 17,7 C 21,9 C 1,6 km/h (1 Bft) 100,00 %
04.08.2017 01:20 21,8 C 27,2 C 78 % 1011,8 hPa 0,0 l/m 0,3 km/h (0 Bft) O-NO 67 0 min 0,000 mm 0,0 UV-I 0 W/m 17,8 C 21,8 C 3,2 km/h (1 Bft) 94,03 %
04.08.2017 01:22 21,7 C 27,2 C 78 % 1011,8 hPa 0,0 l/m 0,9 km/h (0 Bft) O-NO 68 0 min 0,000 mm 0,0 UV-I 0 W/m 17,7 C 21,7 C 3,2 km/h (1 Bft) 96,00 %
04.08.2017 01:24 21,6 C 27,2 C 79 % 1011,8 hPa 0,0 l/m 0,1 km/h (0 Bft) O-NO 68 0 min 0,000 mm 0,0 UV-I 0 W/m 17,8 C 21,6 C 1,6 km/h (1 Bft) 95,74 %
04.08.2017 01:26 21,6 C 27,2 C 79 % 1011,8 hPa 0,0 l/m 2,6 km/h (1 Bft) O-NO 67 0 min 0,000 mm 0,0 UV-I 0 W/m 17,8 C 21,6 C 3,2 km/h (1 Bft) 94,44 %
04.08.2017 01:28 21,5 C 27,2 C 79 % 1011,6 hPa 0,0 l/m 0,6 km/h (0 Bft) O-NO 67 0 min 0,000 mm 0,0 UV-I 0 W/m 17,7 C 21,5 C 3,2 km/h (1 Bft) 98,00 %
04.08.2017 01:30 21,4 C 27,2 C 80 % 1011,5 hPa 0,0 l/m 1,7 km/h (1 Bft) O-NO 67 0 min 0,000 mm 0,0 UV-I 0 W/m 17,8 C 21,4 C 3,2 km/h (1 Bft) 94,34 %
04.08.2017 01:32 21,4 C 27,2 C 80 % 1011,5 hPa 0,0 l/m 4,2 km/h (1 Bft) O-NO 67 0 min 0,000 mm 0,0 UV-I 0 W/m 17,8 C 21,4 C 4,8 km/h (1 Bft) 97,37 %
04.08.2017 01:34 21,3 C 27,2 C 81 % 1011,5 hPa 0,0 l/m 2,0 km/h (1 Bft) O-NO 67 0 min 0,000 mm 0,0 UV-I 0 W/m 17,9 C 21,3 C 3,2 km/h (1 Bft) 97,87 %
04.08.2017 01:36 21,3 C 27,2 C 80 % 1011,5 hPa 0,0 l/m 0,3 km/h (0 Bft) O-NO 67 0 min 0,000 mm 0,0 UV-I 0 W/m 17,7 C 21,3 C 1,6 km/h (1 Bft) 96,43 %
04.08.2017 01:38 21,3 C 27,2 C 81 % 1011,5 hPa 0,0 l/m 0,3 km/h (0 Bft) O-NO 67 0 min 0,000 mm 0,0 UV-I 0 W/m 17,9 C 21,3 C 1,6 km/h (1 Bft) 97,56 %
04.08.2017 01:40 21,3 C 27,2 C 80 % 1011,5 hPa 0,0 l/m 0,6 km/h (0 Bft) O-NO 67 0 min 0,000 mm 0,0 UV-I 0 W/m 17,7 C 21,3 C 1,6 km/h (1 Bft) 98,00 %
04.08.2017 01:42 21,3 C 27,2 C 81 % 1011,5 hPa 0,0 l/m 2,1 km/h (1 Bft) O-NO 67 0 min 0,000 mm 0,0 UV-I 0 W/m 17,9 C 21,3 C 3,2 km/h (1 Bft) 97,37 %
04.08.2017 01:44 21,3 C 27,2 C 81 % 1011,6 hPa 0,0 l/m 2,4 km/h (1 Bft) O-NO 67 0 min 0,000 mm 0,0 UV-I 0 W/m 17,9 C 21,3 C 4,8 km/h (1 Bft) 98,21 %
04.08.2017 01:46 21,2 C 27,2 C 81 % 1011,5 hPa 0,0 l/m 0,1 km/h (0 Bft) O-NO 67 0 min 0,000 mm 0,0 UV-I 0 W/m 17,8 C 21,2 C 1,6 km/h (1 Bft) 97,87 %
04.08.2017 01:48 21,1 C 27,2 C 81 % 1011,4 hPa 0,0 l/m 0,0 km/h (0 Bft) O-NO 67 0 min 0,000 mm 0,0 UV-I 0 W/m 17,7 C 21,1 C 0,0 km/h (0 Bft) 96,30 %
04.08.2017 01:50 21,1 C 27,2 C 82 % 1011,5 hPa 0,0 l/m 1,6 km/h (1 Bft) O-NO 67 0 min 0,000 mm 0,0 UV-I 0 W/m 17,9 C 21,1 C 4,8 km/h (1 Bft) 97,14 %
04.08.2017 01:52 21,0 C 27,2 C 82 % 1011,4 hPa 0,0 l/m 3,8 km/h (1 Bft) O-NO 67 0 min 0,000 mm 0,0 UV-I 0 W/m 17,8 C 21,0 C 4,8 km/h (1 Bft) 97,44 %
04.08.2017 01:54 20,9 C 27,2 C 83 % 1011,4 hPa 0,0 l/m 4,3 km/h (1 Bft) O-NO 67 0 min 0,000 mm 0,0 UV-I 0 W/m 17,9 C 20,9 C 4,8 km/h (1 Bft) 97,87 %
04.08.2017 01:56 20,8 C 27,2 C 83 % 1011,3 hPa 0,0 l/m 3,2 km/h (1 Bft) O-NO 68 0 min 0,000 mm 0,0 UV-I 0 W/m 17,8 C 20,8 C 4,8 km/h (1 Bft) 98,00 %
04.08.2017 01:58 20,8 C 27,2 C 83 % 1011,3 hPa 0,0 l/m 1,7 km/h (1 Bft) O-NO 68 0 min 0,000 mm 0,0 UV-I 0 W/m 17,8 C 20,8 C 3,2 km/h (1 Bft) 96,00 %
04.08.2017 02:00 20,8 C 27,2 C 83 % 1011,4 hPa 0,0 l/m 1,5 km/h (1 Bft) O-NO 68 0 min 0,026 mm 0,0 UV-I 0 W/m 17,8 C 20,8 C 3,2 km/h (1 Bft) 100,00 %
04.08.2017 02:02 20,8 C 27,2 C 83 % 1011,4 hPa 0,0 l/m 0,0 km/h (0 Bft) O-NO 68 0 min 0,000 mm 0,0 UV-I 0 W/m 17,8 C 20,8 C 1,6 km/h (1 Bft) 100,00 %
04.08.2017 02:04 20,8 C 27,2 C 83 % 1011,5 hPa 0,0 l/m 0,5 km/h (0 Bft) O-NO 67 0 min 0,000 mm 0,0 UV-I 0 W/m 17,8 C 20,8 C 1,6 km/h (1 Bft) 100,00 %
04.08.2017 02:06 20,9 C 27,2 C 83 % 1011,4 hPa 0,0 l/m 0,7 km/h (0 Bft) O-NO 68 0 min 0,000 mm 0,0 UV-I 0 W/m 17,9 C 20,9 C 1,6 km/h (1 Bft) 100,00 %
04.08.2017 02:08 20,9 C 27,2 C 83 % 1011,4 hPa 0,0 l/m 0,0 km/h (0 Bft) O-NO 68 0 min 0,000 mm 0,0 UV-I 0 W/m 17,9 C 20,9 C 0,0 km/h (0 Bft) 100,00 %
04.08.2017 02:10 20,9 C 27,2 C 83 % 1011,4 hPa 0,0 l/m 0,1 km/h (0 Bft) O-NO 68 0 min 0,000 mm 0,0 UV-I 0 W/m 17,9 C 20,9 C 1,6 km/h (1 Bft) 100,00 %
04.08.2017 02:12 20,9 C 27,2 C 83 % 1011,4 hPa 0,0 l/m 1,6 km/h (1 Bft) O-NO 68 0 min 0,000 mm 0,0 UV-I 0 W/m 17,9 C 20,9 C 3,2 km/h (1 Bft) 97,73 %
04.08.2017 02:14 20,9 C 27,2 C 83 % 1011,4 hPa 0,0 l/m 0,5 km/h (0 Bft) O-NO 67 0 min 0,000 mm 0,0 UV-I 0 W/m 17,9 C 20,9 C 1,6 km/h (1 Bft) 97,87 %
04.08.2017 02:16 20,9 C 27,2 C 83 % 1011,4 hPa 0,0 l/m 0,0 km/h (0 Bft) O-NO 67 0 min 0,000 mm 0,0 UV-I 0 W/m 17,9 C 20,9 C 0,0 km/h (0 Bft) 100,00 %
04.08.2017 02:18 20,8 C 27,2 C 83 % 1011,4 hPa 0,0 l/m 0,9 km/h (0 Bft) O-NO 67 0 min 0,000 mm 0,0 UV-I 0 W/m 17,8 C 20,8 C 3,2 km/h (1 Bft) 100,00 %
04.08.2017 02:20 20,8 C 27,2 C 83 % 1011,4 hPa 0,0 l/m 1,5 km/h (1 Bft) O-NO 67 0 min 0,000 mm 0,0 UV-I 0 W/m 17,8 C 20,8 C 3,2 km/h (1 Bft) 100,00 %
04.08.2017 02:22 20,8 C 27,2 C 84 % 1011,5 hPa 0,0 l/m 0,7 km/h (0 Bft) O-NO 67 0 min 0,000 mm 0,0 UV-I 0 W/m 18,0 C 20,8 C 1,6 km/h (1 Bft) 100,00 %
04.08.2017 02:24 20,8 C 27,2 C 84 % 1011,5 hPa 0,0 l/m 1,9 km/h (1 Bft) O-NO 67 0 min 0,000 mm 0,0 UV-I 0 W/m 18,0 C 20,8 C 3,2 km/h (1 Bft) 100,00 %
04.08.2017 02:26 20,7 C 27,2 C 83 % 1011,5 hPa 0,0 l/m 1,1 km/h (1 Bft) O-NO 67 0 min 0,000 mm 0,0 UV-I 0 W/m 17,7 C 20,7 C 3,2 km/h (1 Bft) 100,00 %
04.08.2017 02:28 20,8 C 27,2 C 83 % 1011,4 hPa 0,0 l/m 1,0 km/h (0 Bft) O-NO 68 0 min 0,000 mm 0,0 UV-I 0 W/m 17,8 C 20,8 C 1,6 km/h (1 Bft) 100,00 %
04.08.2017 02:30 20,8 C 27,2 C 83 % 1011,5 hPa 0,0 l/m 2,1 km/h (1 Bft) O-NO 68 0 min 0,000 mm 0,0 UV-I 0 W/m 17,8 C 20,8 C 3,2 km/h (1 Bft) 100,00 %
04.08.2017 02:32 20,8 C 27,2 C 83 % 1011,6 hPa 0,0 l/m 2,4 km/h (1 Bft) O-NO 68 0 min 0,000 mm 0,0 UV-I 0 W/m 17,8 C 20,8 C 3,2 km/h (1 Bft) 100,00 %
04.08.2017 02:34 20,8 C 27,2 C 83 % 1011,6 hPa 0,0 l/m 2,3 km/h (1 Bft) O-NO 68 0 min 0,000 mm 0,0 UV-I 0 W/m 17,8 C 20,8 C 3,2 km/h (1 Bft) 100,00 %
04.08.2017 02:36 20,7 C 27,2 C 83 % 1011,5 hPa 0,0 l/m 1,5 km/h (1 Bft) O 84 0 min 0,000 mm 0,0 UV-I 0 W/m 17,7 C 20,7 C 3,2 km/h (1 Bft) 100,00 %
04.08.2017 02:38 20,7 C 27,2 C 83 % 1011,6 hPa 0,0 l/m 2,0 km/h (1 Bft) O-SO 111 0 min 0,000 mm 0,0 UV-I 0 W/m 17,7 C 20,7 C 3,2 km/h (1 Bft) 97,22 %
04.08.2017 02:40 20,7 C 27,2 C 83 % 1011,5 hPa 0,0 l/m 3,2 km/h (1 Bft) S-SO 153 0 min 0,000 mm 0,0 UV-I 0 W/m 17,7 C 20,7 C 4,8 km/h (1 Bft) 100,00 %
04.08.2017 02:42 20,7 C 27,2 C 83 % 1011,5 hPa 0,0 l/m 2,4 km/h (1 Bft) S-SO 153 0 min 0,000 mm 0,0 UV-I 0 W/m 17,7 C 20,7 C 4,8 km/h (1 Bft) 100,00 %
04.08.2017 02:44 20,8 C 27,2 C 83 % 1011,5 hPa 0,0 l/m 2,0 km/h (1 Bft) S-SO 153 0 min 0,000 mm 0,0 UV-I 0 W/m 17,8 C 20,8 C 3,2 km/h (1 Bft) 100,00 %
04.08.2017 02:46 20,8 C 27,2 C 82 % 1011,5 hPa 0,0 l/m 0,1 km/h (0 Bft) S-SO 153 0 min 0,000 mm 0,0 UV-I 0 W/m 17,6 C 20,8 C 1,6 km/h (1 Bft) 98,00 %
04.08.2017 02:48 20,8 C 27,2 C 82 % 1011,5 hPa 0,0 l/m 0,0 km/h (0 Bft) S-SO 153 0 min 0,000 mm 0,0 UV-I 0 W/m 17,6 C 20,8 C 0,0 km/h (0 Bft) 100,00 %
04.08.2017 02:50 20,9 C 27,2 C 82 % 1011,6 hPa 0,0 l/m 0,0 km/h (0 Bft) S-SO 153 0 min 0,000 mm 0,0 UV-I 0 W/m 17,7 C 20,9 C 0,0 km/h (0 Bft) 98,00 %
04.08.2017 02:52 20,9 C 27,2 C 82 % 1011,6 hPa 0,0 l/m 0,7 km/h (0 Bft) S-SO 153 0 min 0,000 mm 0,0 UV-I 0 W/m 17,7 C 20,9 C 1,6 km/h (1 Bft) 98,00 %
04.08.2017 02:54 20,9 C 27,2 C 83 % 1011,6 hPa 0,0 l/m 1,0 km/h (0 Bft) S-SO 153 0 min 0,000 mm 0,0 UV-I 0 W/m 17,9 C 20,9 C 1,6 km/h (1 Bft) 98,00 %
04.08.2017 02:56 20,9 C 27,2 C 83 % 1011,6 hPa 0,0 l/m 1,5 km/h (1 Bft) S-SO 153 0 min 0,000 mm 0,0 UV-I 0 W/m 17,9 C 20,9 C 3,2 km/h (1 Bft) 95,74 %
04.08.2017 02:58 20,8 C 27,2 C 83 % 1011,5 hPa 0,0 l/m 2,5 km/h (1 Bft) S-SO 153 0 min 0,000 mm 0,0 UV-I 0 W/m 17,8 C 20,8 C 3,2 km/h (1 Bft) 97,37 %
04.08.2017 03:00 20,8 C 27,2 C 83 % 1011,5 hPa 0,0 l/m 2,8 km/h (1 Bft) S-SO 153 0 min 0,000 mm 0,0 UV-I 0 W/m 17,8 C 20,8 C 4,8 km/h (1 Bft) 96,23 %
04.08.2017 03:02 20,7 C 27,2 C 84 % 1011,5 hPa 0,0 l/m 1,9 km/h (1 Bft) S-SO 153 0 min 0,000 mm 0,0 UV-I 0 W/m 17,9 C 20,7 C 3,2 km/h (1 Bft) 95,12 %
04.08.2017 03:04 20,7 C 27,2 C 84 % 1011,5 hPa 0,0 l/m 2,0 km/h (1 Bft) S-SO 153 0 min 0,000 mm 0,0 UV-I 0 W/m 17,9 C 20,7 C 4,8 km/h (1 Bft) 98,00 %
04.08.2017 03:06 20,6 C 27,2 C 84 % 1011,6 hPa 0,0 l/m 3,5 km/h (1 Bft) S-SW 211 0 min 0,000 mm 0,0 UV-I 0 W/m 17,8 C 20,6 C 4,8 km/h (1 Bft) 97,37 %
04.08.2017 03:08 20,5 C 27,2 C 84 % 1011,6 hPa 0,0 l/m 3,1 km/h (1 Bft) S-SW 211 0 min 0,000 mm 0,0 UV-I 0 W/m 17,7 C 20,5 C 4,8 km/h (1 Bft) 98,00 %
04.08.2017 03:10 20,5 C 27,2 C 85 % 1011,6 hPa 0,0 l/m 2,4 km/h (1 Bft) S-SW 211 0 min 0,000 mm 0,0 UV-I 0 W/m 17,9 C 20,5 C 3,2 km/h (1 Bft) 98,00 %
04.08.2017 03:12 20,4 C 27,2 C 85 % 1011,5 hPa 0,0 l/m 1,3 km/h (1 Bft) S-SW 211 0 min 0,000 mm 0,0 UV-I 0 W/m 17,8 C 20,4 C 3,2 km/h (1 Bft) 97,87 %
04.08.2017 03:14 20,3 C 27,2 C 85 % 1011,5 hPa 0,0 l/m 3,2 km/h (1 Bft) S-SW 211 0 min 0,000 mm 0,0 UV-I 0 W/m 17,7 C 20,3 C 4,8 km/h (1 Bft) 92,45 %
04.08.2017 03:16 20,2 C 27,2 C 85 % 1011,4 hPa 0,0 l/m 2,6 km/h (1 Bft) S-SW 211 0 min 0,000 mm 0,0 UV-I 0 W/m 17,6 C 20,2 C 4,8 km/h (1 Bft) 97,87 %
04.08.2017 03:18 20,2 C 27,2 C 85 % 1011,5 hPa 0,0 l/m 0,5 km/h (0 Bft) S-SW 211 0 min 0,000 mm 0,0 UV-I 0 W/m 17,6 C 20,2 C 3,2 km/h (1 Bft) 97,44 %
04.08.2017 03:20 20,2 C 27,2 C 85 % 1011,5 hPa 0,0 l/m 0,2 km/h (0 Bft) S-SW 211 0 min 0,000 mm 0,0 UV-I 0 W/m 17,6 C 20,2 C 1,6 km/h (1 Bft) 98,21 %
04.08.2017 03:22 20,2 C 27,2 C 85 % 1011,5 hPa 0,0 l/m 0,1 km/h (0 Bft) S-SW 211 0 min 0,000 mm 0,0 UV-I 0 W/m 17,6 C 20,2 C 1,6 km/h (1 Bft) 97,37 %
04.08.2017 03:24 20,3 C 27,2 C 85 % 1011,4 hPa 0,0 l/m 1,1 km/h (1 Bft) S-SW 211 0 min 0,000 mm 0,0 UV-I 0 W/m 17,7 C 20,3 C 3,2 km/h (1 Bft) 100,00 %
04.08.2017 03:26 20,3 C 27,2 C 85 % 1011,4 hPa 0,0 l/m 2,4 km/h (1 Bft) S-SW 211 0 min 0,000 mm 0,0 UV-I 0 W/m 17,7 C 20,3 C 3,2 km/h (1 Bft) 98,00 %
04.08.2017 03:28 20,3 C 27,2 C 85 % 1011,4 hPa 0,0 l/m 2,4 km/h (1 Bft) S-SW 211 0 min 0,000 mm 0,0 UV-I 0 W/m 17,7 C 20,3 C 3,2 km/h (1 Bft) 98,00 %
04.08.2017 03:30 20,3 C 27,2 C 85 % 1011,3 hPa 0,0 l/m 0,2 km/h (0 Bft) S-SW 211 0 min 0,000 mm 0,0 UV-I 0 W/m 17,7 C 20,3 C 1,6 km/h (1 Bft) 100,00 %
04.08.2017 03:32 20,3 C 27,2 C 85 % 1011,3 hPa 0,0 l/m 0,9 km/h (0 Bft) S-SW 211 0 min 0,000 mm 0,0 UV-I 0 W/m 17,7 C 20,3 C 3,2 km/h (1 Bft) 98,00 %
04.08.2017 03:34 20,3 C 27,2 C 85 % 1011,3 hPa 0,0 l/m 2,1 km/h (1 Bft) S-SW 211 0 min 0,000 mm 0,0 UV-I 0 W/m 17,7 C 20,3 C 3,2 km/h (1 Bft) 100,00 %
04.08.2017 03:36 20,3 C 27,2 C 85 % 1011,3 hPa 0,0 l/m 1,8 km/h (1 Bft) S-SW 211 0 min 0,000 mm 0,0 UV-I 0 W/m 17,7 C 20,3 C 3,2 km/h (1 Bft) 100,00 %
04.08.2017 03:38 20,3 C 27,2 C 86 % 1011,3 hPa 0,0 l/m 2,0 km/h (1 Bft) S-SW 211 0 min 0,000 mm 0,0 UV-I 0 W/m 17,9 C 20,3 C 3,2 km/h (1 Bft) 97,87 %
04.08.2017 03:40 20,2 C 27,2 C 85 % 1011,3 hPa 0,0 l/m 2,9 km/h (1 Bft) S-SW 211 0 min 0,000 mm 0,0 UV-I 0 W/m 17,6 C 20,2 C 4,8 km/h (1 Bft) 100,00 %
04.08.2017 03:42 20,2 C 27,2 C 85 % 1011,3 hPa 0,0 l/m 2,6 km/h (1 Bft) S-SW 192 0 min 0,000 mm 0,0 UV-I 0 W/m 17,6 C 20,2 C 6,4 km/h (2 Bft) 100,00 %
04.08.2017 03:44 20,2 C 27,2 C 85 % 1011,3 hPa 0,0 l/m 2,8 km/h (1 Bft) S 188 0 min 0,000 mm 0,0 UV-I 0 W/m 17,6 C 20,2 C 3,2 km/h (1 Bft) 100,00 %
04.08.2017 03:46 20,2 C 27,2 C 85 % 1011,3 hPa 0,0 l/m 2,6 km/h (1 Bft) S 188 0 min 0,000 mm 0,0 UV-I 0 W/m 17,6 C 20,2 C 4,8 km/h (1 Bft) 100,00 %
04.08.2017 03:48 20,3 C 26,7 C 85 % 1011,3 hPa 0,0 l/m 1,5 km/h (1 Bft) S 188 0 min 0,000 mm 0,0 UV-I 0 W/m 17,7 C 20,3 C 3,2 km/h (1 Bft) 100,00 %
04.08.2017 03:50 20,3 C 26,7 C 85 % 1011,3 hPa 0,0 l/m 1,1 km/h (1 Bft) S 188 0 min 0,000 mm 0,0 UV-I 0 W/m 17,7 C 20,3 C 3,2 km/h (1 Bft) 100,00 %
04.08.2017 03:52 20,3 C 26,7 C 85 % 1011,3 hPa 0,0 l/m 0,8 km/h (0 Bft) S 188 0 min 0,000 mm 0,0 UV-I 0 W/m 17,7 C 20,3 C 3,2 km/h (1 Bft) 100,00 %
04.08.2017 03:54 20,3 C 26,7 C 84 % 1011,3 hPa 0,0 l/m 0,1 km/h (0 Bft) S 188 0 min 0,000 mm 0,0 UV-I 0 W/m 17,5 C 20,3 C 1,6 km/h (1 Bft) 100,00 %
04.08.2017 03:56 20,3 C 26,7 C 84 % 1011,2 hPa 0,0 l/m 0,5 km/h (0 Bft) S 188 0 min 0,000 mm 0,0 UV-I 0 W/m 17,5 C 20,3 C 1,6 km/h (1 Bft) 100,00 %
04.08.2017 03:58 20,3 C 26,7 C 84 % 1011,3 hPa 0,0 l/m 0,0 km/h (0 Bft) S 188 0 min 0,000 mm 0,0 UV-I 0 W/m 17,5 C 20,3 C 1,6 km/h (1 Bft) 100,00 %
04.08.2017 04:00 20,3 C 26,7 C 84 % 1011,2 hPa 0,0 l/m 1,6 km/h (1 Bft) S 188 0 min 0,000 mm 0,0 UV-I 0 W/m 17,5 C 20,3 C 3,2 km/h (1 Bft) 100,00 %
04.08.2017 04:02 20,4 C 26,7 C 84 % 1011,3 hPa 0,0 l/m 2,4 km/h (1 Bft) S 188 0 min 0,000 mm 0,0 UV-I 0 W/m 17,6 C 20,4 C 4,8 km/h (1 Bft) 100,00 %
04.08.2017 04:04 20,3 C 26,7 C 85 % 1011,4 hPa 0,0 l/m 5,2 km/h (1 Bft) SW 235 0 min 0,000 mm 0,0 UV-I 0 W/m 17,7 C 20,3 C 6,4 km/h (2 Bft) 97,87 %
04.08.2017 04:06 20,3 C 26,7 C 85 % 1011,4 hPa 0,0 l/m 5,1 km/h (1 Bft) SW 235 0 min 0,000 mm 0,0 UV-I 0 W/m 17,7 C 20,3 C 6,4 km/h (2 Bft) 100,00 %
04.08.2017 04:08 20,2 C 26,7 C 85 % 1011,3 hPa 0,0 l/m 3,9 km/h (1 Bft) SW 235 0 min 0,000 mm 0,0 UV-I 0 W/m 17,6 C 20,2 C 4,8 km/h (1 Bft) 100,00 %
04.08.2017 04:10 20,1 C 26,7 C 85 % 1011,3 hPa 0,0 l/m 3,8 km/h (1 Bft) SW 235 0 min 0,000 mm 0,0 UV-I 0 W/m 17,5 C 20,1 C 6,4 km/h (2 Bft) 97,87 %
04.08.2017 04:12 20,0 C 26,7 C 86 % 1011,2 hPa 0,0 l/m 2,3 km/h (1 Bft) S-SW 209 0 min 0,000 mm 0,0 UV-I 0 W/m 17,6 C 20,0 C 4,8 km/h (1 Bft) 97,37 %
04.08.2017 04:14 19,9 C 26,7 C 86 % 1011,2 hPa 0,0 l/m 3,0 km/h (1 Bft) S-SW 209 0 min 0,000 mm 0,0 UV-I 0 W/m 17,5 C 19,9 C 4,8 km/h (1 Bft) 98,11 %
04.08.2017 04:16 19,8 C 26,7 C 86 % 1011,2 hPa 0,0 l/m 4,6 km/h (1 Bft) S-SW 208 0 min 0,000 mm 0,0 UV-I 0 W/m 17,4 C 19,8 C 6,4 km/h (2 Bft) 100,00 %
04.08.2017 04:18 19,8 C 26,7 C 86 % 1011,1 hPa 0,0 l/m 5,9 km/h (2 Bft) SO 134 0 min 0,000 mm 0,0 UV-I 0 W/m 17,4 C 19,8 C 8,0 km/h (2 Bft) 100,00 %
04.08.2017 04:20 19,8 C 26,7 C 86 % 1011,1 hPa 0,0 l/m 5,9 km/h (2 Bft) SO 132 0 min 0,000 mm 0,0 UV-I 0 W/m 17,4 C 19,8 C 8,0 km/h (2 Bft) 100,00 %
04.08.2017 04:22 19,8 C 26,7 C 87 % 1011,1 hPa 0,0 l/m 4,4 km/h (1 Bft) SO 132 0 min 0,000 mm 0,0 UV-I 0 W/m 17,6 C 19,8 C 6,4 km/h (2 Bft) 100,00 %
04.08.2017 04:24 19,8 C 26,7 C 87 % 1011,0 hPa 0,0 l/m 1,7 km/h (1 Bft) SO 132 0 min 0,000 mm 0,0 UV-I 0 W/m 17,6 C 19,8 C 3,2 km/h (1 Bft) 100,00 %
04.08.2017 04:26 19,9 C 26,7 C 86 % 1011,0 hPa 0,0 l/m 0,3 km/h (0 Bft) SO 132 0 min 0,000 mm 0,0 UV-I 0 W/m 17,5 C 19,9 C 1,6 km/h (1 Bft) 98,21 %
04.08.2017 04:28 20,0 C 26,7 C 86 % 1011,0 hPa 0,0 l/m 0,0 km/h (0 Bft) SO 132 0 min 0,000 mm 0,0 UV-I 0 W/m 17,6 C 20,0 C 0,0 km/h (0 Bft) 100,00 %
04.08.2017 04:30 20,1 C 26,7 C 86 % 1011,0 hPa 0,0 l/m 0,7 km/h (0 Bft) SO 132 0 min 0,000 mm 0,0 UV-I 0 W/m 17,7 C 20,1 C 3,2 km/h (1 Bft) 100,00 %
04.08.2017 04:32 20,1 C 26,7 C 85 % 1011,0 hPa 0,0 l/m 1,4 km/h (1 Bft) SO 132 0 min 0,000 mm 0,0 UV-I 0 W/m 17,5 C 20,1 C 3,2 km/h (1 Bft) 100,00 %
04.08.2017 04:34 20,2 C 26,7 C 85 % 1011,0 hPa 0,0 l/m 0,2 km/h (0 Bft) SO 132 0 min 0,000 mm 0,0 UV-I 0 W/m 17,6 C 20,2 C 1,6 km/h (1 Bft) 97,87 %
04.08.2017 04:36 20,1 C 26,7 C 85 % 1011,0 hPa 0,0 l/m 0,5 km/h (0 Bft) SO 132 0 min 0,000 mm 0,0 UV-I 0 W/m 17,5 C 20,1 C 1,6 km/h (1 Bft) 100,00 %
04.08.2017 04:38 20,1 C 26,7 C 85 % 1010,9 hPa 0,0 l/m 1,0 km/h (0 Bft) SO 133 0 min 0,000 mm 0,0 UV-I 0 W/m 17,5 C 20,1 C 3,2 km/h (1 Bft) 100,00 %
04.08.2017 04:40 20,0 C 26,7 C 86 % 1010,9 hPa 0,0 l/m 3,0 km/h (1 Bft) SO 133 0 min 0,000 mm 0,0 UV-I 0 W/m 17,6 C 20,0 C 4,8 km/h (1 Bft) 100,00 %
04.08.2017 04:42 20,0 C 26,7 C 86 % 1010,9 hPa 0,0 l/m 2,3 km/h (1 Bft) SO 133 0 min 0,000 mm 0,0 UV-I 0 W/m 17,6 C 20,0 C 3,2 km/h (1 Bft) 97,14 %
04.08.2017 04:44 19,9 C 26,7 C 86 % 1010,9 hPa 0,0 l/m 2,8 km/h (1 Bft) SO 133 0 min 0,000 mm 0,0 UV-I 0 W/m 17,5 C 19,9 C 4,8 km/h (1 Bft) 96,23 %
04.08.2017 04:46 19,9 C 26,7 C 86 % 1010,9 hPa 0,0 l/m 2,2 km/h (1 Bft) SO 133 0 min 0,000 mm 0,0 UV-I 0 W/m 17,5 C 19,9 C 3,2 km/h (1 Bft) 97,56 %
04.08.2017 04:48 19,9 C 26,7 C 86 % 1010,9 hPa 0,0 l/m 0,7 km/h (0 Bft) SO 133 0 min 0,000 mm 0,0 UV-I 0 W/m 17,5 C 19,9 C 3,2 km/h (1 Bft) 96,23 %
04.08.2017 04:50 19,8 C 26,7 C 86 % 1010,8 hPa 0,0 l/m 0,0 km/h (0 Bft) SO 133 0 min 0,000 mm 0,0 UV-I 0 W/m 17,4 C 19,8 C 0,0 km/h (0 Bft) 96,00 %
04.08.2017 04:52 19,8 C 26,7 C 86 % 1010,8 hPa 0,0 l/m 0,0 km/h (0 Bft) SO 133 0 min 0,000 mm 0,0 UV-I 0 W/m 17,4 C 19,8 C 0,0 km/h (0 Bft) 97,14 %
04.08.2017 04:54 19,8 C 26,7 C 86 % 1010,7 hPa 0,0 l/m 0,0 km/h (0 Bft) SO 133 0 min 0,000 mm 0,0 UV-I 0 W/m 17,4 C 19,8 C 0,0 km/h (0 Bft) 92,86 %
04.08.2017 04:56 19,8 C 26,7 C 86 % 1010,7 hPa 0,0 l/m 0,2 km/h (0 Bft) SO 133 0 min 0,000 mm 0,0 UV-I 0 W/m 17,4 C 19,8 C 1,6 km/h (1 Bft) 92,11 %
04.08.2017 04:58 19,8 C 26,7 C 86 % 1010,7 hPa 0,0 l/m 0,0 km/h (0 Bft) SO 133 0 min 0,000 mm 0,0 UV-I 0 W/m 17,4 C 19,8 C 1,6 km/h (1 Bft) 96,23 %
04.08.2017 05:00 19,8 C 26,7 C 86 % 1010,8 hPa 0,0 l/m 1,3 km/h (1 Bft) SO 133 0 min 0,000 mm 0,0 UV-I 0 W/m 17,4 C 19,8 C 3,2 km/h (1 Bft) 95,45 %
04.08.2017 05:02 19,8 C 26,7 C 86 % 1010,8 hPa 0,0 l/m 2,6 km/h (1 Bft) SO 133 0 min 0,000 mm 0,0 UV-I 0 W/m 17,4 C 19,8 C 3,2 km/h (1 Bft) 92,00 %
04.08.2017 05:04 19,8 C 26,7 C 86 % 1010,8 hPa 0,0 l/m 3,3 km/h (1 Bft) SO 132 0 min 0,000 mm 0,0 UV-I 0 W/m 17,4 C 19,8 C 4,8 km/h (1 Bft) 95,74 %
04.08.2017 05:06 19,8 C 26,7 C 86 % 1010,8 hPa 0,0 l/m 2,7 km/h (1 Bft) SO 133 0 min 0,000 mm 0,0 UV-I 0 W/m 17,4 C 19,8 C 3,2 km/h (1 Bft) 93,18 %
04.08.2017 05:08 19,8 C 26,7 C 85 % 1010,8 hPa 0,0 l/m 1,6 km/h (1 Bft) SO 132 0 min 0,000 mm 0,0 UV-I 0 W/m 17,2 C 19,8 C 3,2 km/h (1 Bft) 94,64 %
04.08.2017 05:10 19,9 C 26,7 C 86 % 1010,7 hPa 0,0 l/m 1,9 km/h (1 Bft) SO 133 0 min 0,000 mm 0,0 UV-I 0 W/m 17,5 C 19,9 C 3,2 km/h (1 Bft) 94,74 %
04.08.2017 05:12 19,9 C 26,7 C 86 % 1010,8 hPa 0,0 l/m 2,8 km/h (1 Bft) SO 133 0 min 0,000 mm 0,0 UV-I 0 W/m 17,5 C 19,9 C 4,8 km/h (1 Bft) 94,00 %
04.08.2017 05:14 19,9 C 26,7 C 86 % 1010,8 hPa 0,0 l/m 3,0 km/h (1 Bft) SO 133 0 min 0,000 mm 0,0 UV-I 0 W/m 17,5 C 19,9 C 4,8 km/h (1 Bft) 95,83 %
04.08.2017 05:16 19,9 C 26,7 C 85 % 1010,8 hPa 0,0 l/m 2,7 km/h (1 Bft) SO 133 0 min 0,000 mm 0,0 UV-I 0 W/m 17,3 C 19,9 C 4,8 km/h (1 Bft) 94,00 %
04.08.2017 05:18 20,0 C 26,7 C 85 % 1010,8 hPa 0,0 l/m 3,6 km/h (1 Bft) SO 133 0 min 0,000 mm 0,0 UV-I 0 W/m 17,4 C 20,0 C 4,8 km/h (1 Bft) 95,12 %
04.08.2017 05:20 20,0 C 26,7 C 85 % 1010,9 hPa 0,0 l/m 1,9 km/h (1 Bft) SO 133 0 min 0,000 mm 0,0 UV-I 0 W/m 17,4 C 20,0 C 3,2 km/h (1 Bft) 96,00 %
04.08.2017 05:22 20,1 C 26,7 C 85 % 1010,9 hPa 0,0 l/m 1,3 km/h (1 Bft) SO 133 0 min 0,000 mm 0,0 UV-I 0 W/m 17,5 C 20,1 C 3,2 km/h (1 Bft) 95,74 %
04.08.2017 05:24 20,1 C 26,7 C 85 % 1010,9 hPa 0,0 l/m 2,7 km/h (1 Bft) SO 133 0 min 0,000 mm 0,0 UV-I 0 W/m 17,5 C 20,1 C 4,8 km/h (1 Bft) 97,37 %
04.08.2017 05:26 20,1 C 26,7 C 85 % 1011,0 hPa 0,0 l/m 3,3 km/h (1 Bft) SO 133 0 min 0,000 mm 0,0 UV-I 0 W/m 17,5 C 20,1 C 4,8 km/h (1 Bft) 96,00 %
04.08.2017 05:28 20,1 C 26,7 C 85 % 1011,1 hPa 0,0 l/m 4,1 km/h (1 Bft) W-SW 243 0 min 0,000 mm 0,0 UV-I 0 W/m 17,5 C 20,1 C 6,4 km/h (2 Bft) 98,00 %
04.08.2017 05:30 20,1 C 26,7 C 85 % 1011,1 hPa 0,0 l/m 5,1 km/h (1 Bft) W-SW 252 0 min 0,000 mm 0,0 UV-I 0 W/m 17,5 C 20,1 C 6,4 km/h (2 Bft) 98,11 %
04.08.2017 05:32 20,1 C 26,7 C 85 % 1011,2 hPa 0,0 l/m 4,1 km/h (1 Bft) W-SW 252 0 min 0,000 mm 0,0 UV-I 0 W/m 17,5 C 20,1 C 4,8 km/h (1 Bft) 97,14 %
04.08.2017 05:34 20,0 C 26,7 C 85 % 1011,2 hPa 0,0 l/m 2,9 km/h (1 Bft) W-SW 252 0 min 0,000 mm 0,0 UV-I 0 W/m 17,4 C 20,0 C 4,8 km/h (1 Bft) 97,37 %
04.08.2017 05:36 20,0 C 26,7 C 86 % 1011,2 hPa 0,0 l/m 2,3 km/h (1 Bft) W-SW 252 0 min 0,000 mm 0,0 UV-I 4 W/m 17,6 C 20,0 C 3,2 km/h (1 Bft) 96,77 %
04.08.2017 05:38 20,0 C 26,7 C 85 % 1011,3 hPa 0,0 l/m 3,0 km/h (1 Bft) W-SW 253 0 min 0,000 mm 0,0 UV-I 5 W/m 17,4 C 20,0 C 6,4 km/h (2 Bft) 98,00 %
04.08.2017 05:40 20,1 C 26,7 C 85 % 1011,4 hPa 0,0 l/m 3,2 km/h (1 Bft) W-SW 254 0 min 0,000 mm 0,0 UV-I 5 W/m 17,5 C 20,1 C 4,8 km/h (1 Bft) 97,87 %
04.08.2017 05:42 20,1 C 26,7 C 85 % 1011,5 hPa 0,0 l/m 3,1 km/h (1 Bft) W 271 0 min 0,000 mm 0,0 UV-I 5 W/m 17,5 C 20,1 C 6,4 km/h (2 Bft) 97,56 %
04.08.2017 05:44 20,0 C 26,7 C 85 % 1011,5 hPa 0,0 l/m 1,7 km/h (1 Bft) W 271 0 min 0,000 mm 0,0 UV-I 6 W/m 17,4 C 20,0 C 6,4 km/h (2 Bft) 98,00 %
04.08.2017 05:46 20,0 C 26,7 C 85 % 1011,5 hPa 0,0 l/m 1,6 km/h (1 Bft) W 271 0 min 0,000 mm 0,0 UV-I 7 W/m 17,4 C 20,0 C 3,2 km/h (1 Bft) 96,30 %
04.08.2017 05:48 20,1 C 26,7 C 84 % 1011,4 hPa 0,0 l/m 2,6 km/h (1 Bft) W 263 0 min 0,000 mm 0,0 UV-I 7 W/m 17,3 C 20,1 C 4,8 km/h (1 Bft) 98,51 %
04.08.2017 05:50 20,2 C 26,7 C 84 % 1011,4 hPa 0,0 l/m 1,4 km/h (1 Bft) W 263 0 min 0,000 mm 0,0 UV-I 7 W/m 17,4 C 20,2 C 3,2 km/h (1 Bft) 100,00 %
04.08.2017 05:52 20,3 C 26,7 C 84 % 1011,4 hPa 0,0 l/m 3,1 km/h (1 Bft) W-SW 247 0 min 0,000 mm 0,0 UV-I 9 W/m 17,5 C 20,3 C 8,0 km/h (2 Bft) 100,00 %
04.08.2017 05:54 20,3 C 26,7 C 83 % 1011,4 hPa 0,0 l/m 4,0 km/h (1 Bft) W-SW 245 0 min 0,000 mm 0,0 UV-I 10 W/m 17,3 C 20,3 C 6,4 km/h (2 Bft) 100,00 %
04.08.2017 05:56 20,4 C 26,7 C 83 % 1011,5 hPa 0,0 l/m 5,8 km/h (2 Bft) SW 229 2 min 0,000 mm 0,0 UV-I 11 W/m 17,4 C 20,4 C 8,0 km/h (2 Bft) 100,00 %
04.08.2017 05:58 20,4 C 26,7 C 83 % 1011,6 hPa 0,0 l/m 3,7 km/h (1 Bft) SW 230 0 min 0,000 mm 0,0 UV-I 12 W/m 17,4 C 20,4 C 6,4 km/h (2 Bft) 98,21 %
04.08.2017 06:00 20,4 C 26,7 C 83 % 1011,6 hPa 0,0 l/m 3,8 km/h (1 Bft) SW 230 0 min 0,000 mm 0,0 UV-I 13 W/m 17,4 C 20,4 C 6,4 km/h (2 Bft) 100,00 %
04.08.2017 06:02 20,4 C 26,7 C 83 % 1011,5 hPa 0,0 l/m 2,4 km/h (1 Bft) SW 230 0 min 0,000 mm 0,0 UV-I 15 W/m 17,4 C 20,4 C 4,8 km/h (1 Bft) 100,00 %
04.08.2017 06:04 20,4 C 26,7 C 83 % 1011,6 hPa 0,0 l/m 2,5 km/h (1 Bft) SW 230 0 min 0,000 mm 0,0 UV-I 18 W/m 17,4 C 20,4 C 4,8 km/h (1 Bft) 100,00 %
04.08.2017 06:06 20,3 C 26,7 C 83 % 1011,6 hPa 0,0 l/m 3,1 km/h (1 Bft) SW 230 0 min 0,000 mm 0,0 UV-I 19 W/m 17,3 C 20,3 C 6,4 km/h (2 Bft) 96,23 %
04.08.2017 06:08 20,3 C 26,7 C 83 % 1011,6 hPa 0,0 l/m 3,0 km/h (1 Bft) SW 230 0 min 0,000 mm 0,0 UV-I 21 W/m 17,3 C 20,3 C 4,8 km/h (1 Bft) 97,56 %
04.08.2017 06:10 20,3 C 26,7 C 83 % 1011,6 hPa 0,0 l/m 2,5 km/h (1 Bft) SW 230 0 min 0,000 mm 0,0 UV-I 21 W/m 17,3 C 20,3 C 4,8 km/h (1 Bft) 100,00 %
04.08.2017 06:12 20,3 C 26,7 C 83 % 1011,6 hPa 0,0 l/m 1,6 km/h (1 Bft) SW 229 0 min 0,000 mm 0,0 UV-I 21 W/m 17,3 C 20,3 C 4,8 km/h (1 Bft) 100,00 %
04.08.2017 06:14 20,3 C 26,7 C 83 % 1011,6 hPa 0,0 l/m 2,2 km/h (1 Bft) SW 229 0 min 0,000 mm 0,0 UV-I 22 W/m 17,3 C 20,3 C 4,8 km/h (1 Bft) 100,00 %
04.08.2017 06:16 20,3 C 26,7 C 83 % 1011,6 hPa 0,0 l/m 0,4 km/h (0 Bft) SW 229 0 min 0,000 mm 0,0 UV-I 26 W/m 17,3 C 20,3 C 3,2 km/h (1 Bft) 100,00 %
04.08.2017 06:18 20,3 C 26,7 C 84 % 1011,6 hPa 0,0 l/m 0,0 km/h (0 Bft) SW 229 0 min 0,000 mm 0,0 UV-I 26 W/m 17,5 C 20,3 C 0,0 km/h (0 Bft) 100,00 %
04.08.2017 06:20 20,2 C 26,7 C 84 % 1011,7 hPa 0,0 l/m 0,4 km/h (0 Bft) SW 229 0 min 0,000 mm 0,0 UV-I 31 W/m 17,4 C 20,2 C 1,6 km/h (1 Bft) 97,87 %
04.08.2017 06:22 20,2 C 26,7 C 84 % 1011,8 hPa 0,0 l/m 0,2 km/h (0 Bft) SW 229 0 min 0,000 mm 0,0 UV-I 37 W/m 17,4 C 20,2 C 1,6 km/h (1 Bft) 100,00 %
04.08.2017 06:24 20,3 C 26,7 C 84 % 1011,8 hPa 0,0 l/m 0,9 km/h (0 Bft) SW 229 0 min 0,000 mm 0,0 UV-I 42 W/m 17,5 C 20,3 C 1,6 km/h (1 Bft) 100,00 %
04.08.2017 06:26 20,3 C 26,7 C 84 % 1011,8 hPa 0,0 l/m 1,2 km/h (1 Bft) SW 229 0 min 0,000 mm 0,0 UV-I 47 W/m 17,5 C 20,3 C 3,2 km/h (1 Bft) 100,00 %
04.08.2017 06:28 20,4 C 26,7 C 83 % 1011,9 hPa 0,0 l/m 2,9 km/h (1 Bft) SW 229 0 min 0,000 mm 0,0 UV-I 49 W/m 17,4 C 20,4 C 4,8 km/h (1 Bft) 100,00 %
04.08.2017 06:30 20,5 C 26,7 C 83 % 1011,8 hPa 0,0 l/m 3,3 km/h (1 Bft) SW 229 0 min 0,000 mm 0,0 UV-I 58 W/m 17,5 C 20,5 C 4,8 km/h (1 Bft) 100,00 %
04.08.2017 06:32 20,6 C 26,7 C 83 % 1011,9 hPa 0,0 l/m 2,7 km/h (1 Bft) SW 229 0 min 0,000 mm 0,0 UV-I 59 W/m 17,6 C 20,6 C 4,8 km/h (1 Bft) 100,00 %
04.08.2017 06:34 20,6 C 26,7 C 83 % 1011,9 hPa 0,0 l/m 3,5 km/h (1 Bft) SW 229 0 min 0,000 mm 0,0 UV-I 62 W/m 17,6 C 20,6 C 4,8 km/h (1 Bft) 100,00 %
04.08.2017 06:36 20,7 C 26,7 C 83 % 1012,0 hPa 0,0 l/m 3,3 km/h (1 Bft) SW 229 0 min 0,000 mm 0,0 UV-I 64 W/m 17,7 C 20,7 C 4,8 km/h (1 Bft) 100,00 %
04.08.2017 06:38 20,7 C 26,7 C 83 % 1012,0 hPa 0,0 l/m 2,9 km/h (1 Bft) SW 229 2 min 0,000 mm 0,0 UV-I 82 W/m 17,7 C 20,7 C 4,8 km/h (1 Bft) 100,00 %
04.08.2017 06:40 20,6 C 26,7 C 83 % 1012,0 hPa 0,0 l/m 1,7 km/h (1 Bft) SW 229 2 min 0,000 mm 0,0 UV-I 85 W/m 17,6 C 20,6 C 4,8 km/h (1 Bft) 97,56 %
04.08.2017 06:42 20,6 C 26,7 C 83 % 1012,0 hPa 0,0 l/m 1,1 km/h (1 Bft) SW 222 2 min 0,000 mm 0,0 UV-I 88 W/m 17,6 C 20,6 C 4,8 km/h (1 Bft) 98,00 %
04.08.2017 06:44 20,6 C 26,7 C 83 % 1012,0 hPa 0,0 l/m 1,5 km/h (1 Bft) SW 217 2 min 0,000 mm 0,0 UV-I 96 W/m 17,6 C 20,6 C 3,2 km/h (1 Bft) 100,00 %
04.08.2017 06:46 20,7 C 26,7 C 84 % 1012,0 hPa 0,0 l/m 1,2 km/h (1 Bft) S-SW 213 2 min 0,000 mm 0,0 UV-I 106 W/m 17,9 C 20,7 C 3,2 km/h (1 Bft) 100,00 %
04.08.2017 06:48 20,8 C 26,7 C 83 % 1012,0 hPa 0,0 l/m 1,7 km/h (1 Bft) S-SW 213 2 min 0,000 mm 0,0 UV-I 116 W/m 17,8 C 20,8 C 4,8 km/h (1 Bft) 98,11 %
04.08.2017 06:50 20,8 C 26,7 C 83 % 1012,0 hPa 0,0 l/m 1,6 km/h (1 Bft) S-SW 213 2 min 0,000 mm 0,0 UV-I 121 W/m 17,8 C 20,8 C 3,2 km/h (1 Bft) 91,43 %
04.08.2017 06:52 21,0 C 26,7 C 82 % 1012,0 hPa 0,0 l/m 2,7 km/h (1 Bft) S-SW 213 2 min 0,000 mm 0,0 UV-I 116 W/m 17,8 C 21,0 C 4,8 km/h (1 Bft) 96,23 %
04.08.2017 06:54 21,1 C 26,7 C 82 % 1012,0 hPa 0,0 l/m 4,9 km/h (1 Bft) S-SW 213 2 min 0,000 mm 0,0 UV-I 96 W/m 17,9 C 21,1 C 6,4 km/h (2 Bft) 93,62 %
04.08.2017 06:56 21,2 C 26,7 C 81 % 1012,0 hPa 0,0 l/m 3,0 km/h (1 Bft) S-SW 213 0 min 0,000 mm 0,0 UV-I 89 W/m 17,8 C 21,2 C 4,8 km/h (1 Bft) 98,00 %
04.08.2017 06:58 21,3 C 26,7 C 81 % 1012,1 hPa 0,0 l/m 1,9 km/h (1 Bft) S-SW 213 0 min 0,000 mm 0,0 UV-I 78 W/m 17,9 C 21,3 C 4,8 km/h (1 Bft) 94,00 %
04.08.2017 07:00 21,3 C 26,7 C 81 % 1012,1 hPa 0,0 l/m 3,6 km/h (1 Bft) S-SW 213 0 min 0,051 mm 0,0 UV-I 76 W/m 17,9 C 21,3 C 6,4 km/h (2 Bft) 93,62 %
04.08.2017 07:02 21,3 C 26,7 C 81 % 1012,1 hPa 0,0 l/m 2,3 km/h (1 Bft) S-SW 213 0 min 0,000 mm 0,0 UV-I 81 W/m 17,9 C 21,3 C 4,8 km/h (1 Bft) 98,00 %
04.08.2017 07:04 21,3 C 26,7 C 81 % 1012,1 hPa 0,0 l/m 1,4 km/h (1 Bft) S-SW 212 0 min 0,000 mm 0,0 UV-I 96 W/m 17,9 C 21,3 C 3,2 km/h (1 Bft) 92,68 %
04.08.2017 07:06 21,4 C 26,7 C 81 % 1012,1 hPa 0,0 l/m 3,3 km/h (1 Bft) S 184 0 min 0,000 mm 0,0 UV-I 102 W/m 18,0 C 21,4 C 6,4 km/h (2 Bft) 96,00 %
04.08.2017 07:08 21,4 C 26,7 C 81 % 1012,0 hPa 0,0 l/m 3,4 km/h (1 Bft) S 171 0 min 0,000 mm 0,0 UV-I 90 W/m 18,0 C 21,4 C 6,4 km/h (2 Bft) 97,62 %
04.08.2017 07:10 21,4 C 26,7 C 81 % 1012,0 hPa 0,0 l/m 5,4 km/h (1 Bft) S-SO 167 0 min 0,000 mm 0,0 UV-I 77 W/m 18,0 C 21,4 C 8,0 km/h (2 Bft) 95,45 %
04.08.2017 07:12 21,4 C 26,7 C 81 % 1012,0 hPa 0,0 l/m 5,2 km/h (1 Bft) S 188 0 min 0,000 mm 0,0 UV-I 83 W/m 18,0 C 21,4 C 8,0 km/h (2 Bft) 96,23 %
04.08.2017 07:14 21,4 C 26,7 C 81 % 1012,0 hPa 0,0 l/m 4,4 km/h (1 Bft) S 186 0 min 0,000 mm 0,0 UV-I 75 W/m 18,0 C 21,4 C 6,4 km/h (2 Bft) 97,37 %
04.08.2017 07:16 21,5 C 26,7 C 81 % 1012,0 hPa 0,0 l/m 3,7 km/h (1 Bft) S 186 0 min 0,000 mm 0,0 UV-I 70 W/m 18,1 C 21,5 C 6,4 km/h (2 Bft) 98,00 %
04.08.2017 07:18 21,6 C 26,7 C 81 % 1012,1 hPa 0,0 l/m 4,5 km/h (1 Bft) S 186 0 min 0,000 mm 0,0 UV-I 67 W/m 18,2 C 21,6 C 8,0 km/h (2 Bft) 94,64 %
04.08.2017 07:20 21,6 C 26,7 C 82 % 1012,2 hPa 0,0 l/m 5,5 km/h (1 Bft) S-SW 200 0 min 0,000 mm 0,0 UV-I 62 W/m 18,4 C 21,6 C 8,0 km/h (2 Bft) 95,12 %
04.08.2017 07:22 21,6 C 26,7 C 81 % 1012,2 hPa 0,0 l/m 5,1 km/h (1 Bft) S-SW 207 0 min 0,000 mm 0,0 UV-I 60 W/m 18,2 C 21,6 C 8,0 km/h (2 Bft) 100,00 %
04.08.2017 07:24 21,6 C 26,7 C 81 % 1012,2 hPa 0,0 l/m 5,4 km/h (1 Bft) S-SW 198 0 min 0,000 mm 0,0 UV-I 60 W/m 18,2 C 21,6 C 6,4 km/h (2 Bft) 96,00 %
04.08.2017 07:26 21,6 C 26,7 C 81 % 1012,2 hPa 0,0 l/m 4,4 km/h (1 Bft) S-SW 210 0 min 0,000 mm 0,0 UV-I 57 W/m 18,2 C 21,6 C 6,4 km/h (2 Bft) 96,00 %
04.08.2017 07:28 21,6 C 26,7 C 81 % 1012,3 hPa 0,0 l/m 4,5 km/h (1 Bft) S-SW 210 0 min 0,000 mm 0,0 UV-I 54 W/m 18,2 C 21,6 C 6,4 km/h (2 Bft) 100,00 %
04.08.2017 07:30 21,6 C 26,7 C 82 % 1012,3 hPa 0,0 l/m 4,0 km/h (1 Bft) S-SW 209 0 min 0,000 mm 0,0 UV-I 54 W/m 18,4 C 21,6 C 6,4 km/h (2 Bft) 100,00 %
04.08.2017 07:32 21,6 C 26,7 C 82 % 1012,3 hPa 0,0 l/m 5,1 km/h (1 Bft) S-SW 208 0 min 0,000 mm 0,0 UV-I 54 W/m 18,4 C 21,6 C 6,4 km/h (2 Bft) 95,74 %
04.08.2017 07:34 21,6 C 26,7 C 82 % 1012,3 hPa 0,0 l/m 3,1 km/h (1 Bft) S-SW 209 0 min 0,000 mm 0,0 UV-I 57 W/m 18,4 C 21,6 C 6,4 km/h (2 Bft) 97,73 %
04.08.2017 07:36 21,7 C 26,7 C 81 % 1012,3 hPa 0,0 l/m 5,0 km/h (1 Bft) S-SW 209 0 min 0,000 mm 0,0 UV-I 58 W/m 18,3 C 21,7 C 6,4 km/h (2 Bft) 97,87 %
04.08.2017 07:38 21,6 C 26,7 C 81 % 1012,3 hPa 0,0 l/m 5,9 km/h (2 Bft) S-SW 209 0 min 0,000 mm 0,0 UV-I 59 W/m 18,2 C 21,6 C 8,0 km/h (2 Bft) 97,87 %
04.08.2017 07:40 21,7 C 26,7 C 82 % 1012,3 hPa 0,0 l/m 5,0 km/h (1 Bft) S-SW 209 0 min 0,000 mm 0,0 UV-I 60 W/m 18,5 C 21,7 C 6,4 km/h (2 Bft) 97,56 %
04.08.2017 07:42 21,7 C 26,7 C 82 % 1012,3 hPa 0,0 l/m 5,0 km/h (1 Bft) S-SW 210 0 min 0,000 mm 0,0 UV-I 60 W/m 18,5 C 21,7 C 6,4 km/h (2 Bft) 100,00 %
04.08.2017 07:44 21,7 C 26,7 C 82 % 1012,3 hPa 0,0 l/m 5,7 km/h (1 Bft) S-SW 196 0 min 0,000 mm 0,0 UV-I 60 W/m 18,5 C 21,7 C 9,7 km/h (2 Bft) 100,00 %
04.08.2017 07:46 21,7 C 26,7 C 82 % 1012,3 hPa 0,0 l/m 6,9 km/h (2 Bft) SW 223 0 min 0,000 mm 0,0 UV-I 58 W/m 18,5 C 21,5 C 11,3 km/h (2 Bft) 100,00 %
04.08.2017 07:48 21,8 C 26,7 C 82 % 1012,3 hPa 0,0 l/m 6,4 km/h (2 Bft) S-SW 211 0 min 0,000 mm 0,0 UV-I 57 W/m 18,6 C 21,8 C 11,3 km/h (2 Bft) 100,00 %
04.08.2017 07:50 21,8 C 26,7 C 82 % 1012,3 hPa 0,0 l/m 3,7 km/h (1 Bft) S-SW 199 0 min 0,000 mm 0,0 UV-I 56 W/m 18,6 C 21,8 C 8,0 km/h (2 Bft) 100,00 %
04.08.2017 07:52 21,8 C 26,7 C 82 % 1012,3 hPa 0,0 l/m 3,2 km/h (1 Bft) S 186 0 min 0,000 mm 0,0 UV-I 54 W/m 18,6 C 21,8 C 6,4 km/h (2 Bft) 100,00 %
04.08.2017 07:54 21,8 C 26,7 C 82 % 1012,4 hPa 0,0 l/m 3,3 km/h (1 Bft) S 186 0 min 0,000 mm 0,0 UV-I 54 W/m 18,6 C 21,8 C 6,4 km/h (2 Bft) 100,00 %
04.08.2017 07:56 21,9 C 26,7 C 82 % 1012,4 hPa 0,0 l/m 4,0 km/h (1 Bft) S 186 0 min 0,000 mm 0,0 UV-I 54 W/m 18,7 C 21,9 C 6,4 km/h (2 Bft) 100,00 %
04.08.2017 07:58 21,9 C 26,7 C 82 % 1012,5 hPa 0,0 l/m 5,1 km/h (1 Bft) S 188 0 min 0,000 mm 0,0 UV-I 53 W/m 18,7 C 21,9 C 8,0 km/h (2 Bft) 100,00 %
04.08.2017 08:00 21,9 C 26,7 C 82 % 1012,4 hPa 0,0 l/m 4,6 km/h (1 Bft) S 190 0 min 0,050 mm 0,0 UV-I 53 W/m 18,7 C 21,9 C 8,0 km/h (2 Bft) 100,00 %
04.08.2017 08:02 21,9 C 26,7 C 82 % 1012,4 hPa 0,0 l/m 3,0 km/h (1 Bft) S-SW 198 0 min 0,000 mm 0,0 UV-I 53 W/m 18,7 C 21,9 C 6,4 km/h (2 Bft) 97,14 %
04.08.2017 08:04 22,0 C 26,7 C 83 % 1012,5 hPa 0,0 l/m 4,2 km/h (1 Bft) S-SW 198 0 min 0,000 mm 0,0 UV-I 53 W/m 19,0 C 22,0 C 6,4 km/h (2 Bft) 96,00 %
04.08.2017 08:06 22,0 C 26,7 C 83 % 1012,6 hPa 0,0 l/m 4,9 km/h (1 Bft) SW 221 0 min 0,000 mm 0,0 UV-I 53 W/m 19,0 C 22,0 C 6,4 km/h (2 Bft) 100,00 %
04.08.2017 08:08 22,1 C 26,7 C 82 % 1012,6 hPa 0,0 l/m 6,5 km/h (2 Bft) SW 214 0 min 0,000 mm 0,0 UV-I 55 W/m 18,9 C 22,1 C 9,7 km/h (2 Bft) 100,00 %
04.08.2017 08:10 22,1 C 26,7 C 82 % 1012,7 hPa 0,0 l/m 5,7 km/h (1 Bft) SW 231 0 min 0,000 mm 0,0 UV-I 59 W/m 18,9 C 22,1 C 8,0 km/h (2 Bft) 100,00 %
04.08.2017 08:12 22,1 C 26,7 C 82 % 1012,8 hPa 0,0 l/m 6,2 km/h (2 Bft) SW 232 0 min 0,000 mm 0,0 UV-I 63 W/m 18,9 C 22,1 C 9,7 km/h (2 Bft) 100,00 %
04.08.2017 08:14 22,1 C 26,7 C 82 % 1012,7 hPa 0,0 l/m 5,7 km/h (1 Bft) W-SW 245 0 min 0,000 mm 0,0 UV-I 69 W/m 18,9 C 22,1 C 8,0 km/h (2 Bft) 98,00 %
04.08.2017 08:16 22,2 C 26,7 C 82 % 1012,7 hPa 0,0 l/m 7,2 km/h (2 Bft) W-SW 243 0 min 0,000 mm 0,0 UV-I 75 W/m 19,0 C 21,9 C 11,3 km/h (2 Bft) 100,00 %
04.08.2017 08:18 22,2 C 26,7 C 81 % 1012,7 hPa 0,0 l/m 6,8 km/h (2 Bft) SW 227 0 min 0,000 mm 0,0 UV-I 81 W/m 18,8 C 22,1 C 9,7 km/h (2 Bft) 100,00 %
04.08.2017 08:20 22,3 C 26,7 C 81 % 1012,7 hPa 0,0 l/m 6,9 km/h (2 Bft) W-SW 241 0 min 0,000 mm 0,0 UV-I 87 W/m 18,9 C 22,1 C 9,7 km/h (2 Bft) 97,37 %
04.08.2017 08:22 22,3 C 26,7 C 81 % 1012,7 hPa 0,0 l/m 7,7 km/h (2 Bft) SW 221 0 min 0,000 mm 0,0 UV-I 97 W/m 18,9 C 21,9 C 11,3 km/h (2 Bft) 100,00 %
04.08.2017 08:24 22,4 C 26,7 C 81 % 1012,7 hPa 0,0 l/m 7,3 km/h (2 Bft) SW 232 0 min 0,000 mm 0,5 UV-I 106 W/m 19,0 C 22,1 C 11,3 km/h (2 Bft) 100,00 %
04.08.2017 08:26 22,4 C 26,7 C 81 % 1012,7 hPa 0,0 l/m 6,0 km/h (2 Bft) W-SW 250 0 min 0,000 mm 0,5 UV-I 109 W/m 19,0 C 22,4 C 9,7 km/h (2 Bft) 97,44 %
04.08.2017 08:28 22,5 C 26,7 C 81 % 1012,7 hPa 0,0 l/m 6,8 km/h (2 Bft) W-SW 255 0 min 0,000 mm 0,5 UV-I 106 W/m 19,1 C 22,4 C 11,3 km/h (2 Bft) 98,08 %
04.08.2017 08:30 22,6 C 26,7 C 80 % 1012,7 hPa 0,0 l/m 6,4 km/h (2 Bft) W-SW 248 0 min 0,000 mm 0,5 UV-I 102 W/m 19,0 C 22,6 C 8,0 km/h (2 Bft) 97,44 %
04.08.2017 08:32 22,6 C 26,7 C 81 % 1012,7 hPa 0,0 l/m 7,1 km/h (2 Bft) W-SW 238 0 min 0,000 mm 0,5 UV-I 99 W/m 19,2 C 22,4 C 11,3 km/h (2 Bft) 100,00 %
04.08.2017 08:34 22,7 C 26,7 C 80 % 1012,7 hPa 0,0 l/m 6,9 km/h (2 Bft) W-SW 256 0 min 0,000 mm 0,5 UV-I 98 W/m 19,1 C 22,5 C 9,7 km/h (2 Bft) 98,31 %
04.08.2017 08:36 22,8 C 26,7 C 80 % 1012,7 hPa 0,0 l/m 5,6 km/h (1 Bft) W-SW 257 0 min 0,000 mm 0,5 UV-I 103 W/m 19,2 C 22,8 C 9,7 km/h (2 Bft) 97,56 %
04.08.2017 08:39 22,8 C 26,7 C 80 % 1012,8 hPa 0,0 l/m 5,0 km/h (1 Bft) W-SW 255 0 min 0,000 mm 0,6 UV-I 119 W/m 19,2 C 22,8 C 11,3 km/h (2 Bft) 95,89 %
04.08.2017 08:40 22,8 C 26,7 C 80 % 1012,8 hPa 0,0 l/m 3,9 km/h (1 Bft) W 262 0 min 0,000 mm 0,7 UV-I 136 W/m 19,2 C 22,8 C 4,8 km/h (1 Bft) 96,30 %
04.08.2017 08:42 22,9 C 26,7 C 80 % 1012,8 hPa 0,0 l/m 5,7 km/h (1 Bft) W-SW 241 0 min 0,000 mm 0,7 UV-I 146 W/m 19,3 C 22,9 C 9,7 km/h (2 Bft) 93,62 %
04.08.2017 08:44 23,0 C 26,7 C 80 % 1012,8 hPa 0,0 l/m 4,5 km/h (1 Bft) W-SW 254 0 min 0,000 mm 0,7 UV-I 148 W/m 19,4 C 23,0 C 8,0 km/h (2 Bft) 97,87 %
04.08.2017 08:45 23,0 C 26,7 C 80 % 1012,9 hPa 0,0 l/m 6,0 km/h (2 Bft) W-SW 248 0 min 0,000 mm 0,7 UV-I 140 W/m 19,4 C 23,0 C 12,9 km/h (3 Bft) 100,00 %
04.08.2017 08:46 23,1 C 26,7 C 80 % 1012,9 hPa 0,0 l/m 5,3 km/h (1 Bft) W-SW 255 0 min 0,000 mm 0,6 UV-I 136 W/m 19,5 C 23,1 C 8,0 km/h (2 Bft) 91,67 %
04.08.2017 08:50 23,2 C 26,7 C 79 % 1012,8 hPa 0,0 l/m 6,6 km/h (2 Bft) W-SW 246 0 min 0,000 mm 0,6 UV-I 130 W/m 19,3 C 23,1 C 14,5 km/h (3 Bft) 93,40 %
04.08.2017 08:52 23,2 C 26,7 C 79 % 1012,8 hPa 0,0 l/m 5,1 km/h (1 Bft) W 262 0 min 0,000 mm 0,5 UV-I 117 W/m 19,3 C 23,2 C 8,0 km/h (2 Bft) 94,29 %
04.08.2017 08:54 23,2 C 26,7 C 79 % 1012,8 hPa 0,0 l/m 6,5 km/h (2 Bft) W-SW 248 0 min 0,000 mm 0,5 UV-I 106 W/m 19,3 C 23,2 C 9,7 km/h (2 Bft) 91,49 %
04.08.2017 08:56 23,2 C 26,7 C 79 % 1012,8 hPa 0,0 l/m 4,6 km/h (1 Bft) W 267 0 min 0,000 mm 0,5 UV-I 100 W/m 19,3 C 23,2 C 6,4 km/h (2 Bft) 96,00 %
04.08.2017 08:58 23,2 C 26,7 C 79 % 1012,7 hPa 0,0 l/m 5,2 km/h (1 Bft) W-SW 238 0 min 0,000 mm 0,5 UV-I 98 W/m 19,3 C 23,2 C 9,7 km/h (2 Bft) 94,00 %
04.08.2017 09:00 23,2 C 26,7 C 79 % 1012,7 hPa 0,0 l/m 6,5 km/h (2 Bft) W-SW 248 0 min 0,000 mm 0,5 UV-I 97 W/m 19,3 C 23,2 C 9,7 km/h (2 Bft) 95,74 %
04.08.2017 09:02 23,2 C 26,7 C 79 % 1012,7 hPa 0,0 l/m 2,9 km/h (1 Bft) W-SW 245 0 min 0,077 mm 0,5 UV-I 97 W/m 19,3 C 23,2 C 6,4 km/h (2 Bft) 90,91 %
04.08.2017 09:04 23,3 C 26,7 C 79 % 1012,7 hPa 0,0 l/m 4,0 km/h (1 Bft) W-SW 244 0 min 0,000 mm 0,5 UV-I 98 W/m 19,4 C 23,3 C 6,4 km/h (2 Bft) 94,00 %
04.08.2017 09:06 23,3 C 26,7 C 79 % 1012,7 hPa 0,0 l/m 2,4 km/h (1 Bft) W-SW 244 0 min 0,000 mm 0,5 UV-I 100 W/m 19,4 C 23,3 C 4,8 km/h (1 Bft) 94,87 %
04.08.2017 09:08 23,3 C 26,7 C 79 % 1012,7 hPa 0,0 l/m 2,4 km/h (1 Bft) W-SW 244 0 min 0,000 mm 0,5 UV-I 104 W/m 19,4 C 23,3 C 4,8 km/h (1 Bft) 93,62 %
04.08.2017 09:10 23,3 C 26,7 C 79 % 1012,7 hPa 0,0 l/m 0,9 km/h (0 Bft) W-SW 244 0 min 0,000 mm 0,6 UV-I 107 W/m 19,4 C 23,3 C 3,2 km/h (1 Bft) 93,62 %
04.08.2017 09:12 23,3 C 26,7 C 79 % 1012,7 hPa 0,0 l/m 1,5 km/h (1 Bft) W-SW 244 0 min 0,000 mm 0,7 UV-I 112 W/m 19,4 C 23,3 C 3,2 km/h (1 Bft) 94,00 %
04.08.2017 09:14 23,3 C 26,7 C 78 % 1012,8 hPa 0,0 l/m 3,7 km/h (1 Bft) W-SW 245 0 min 0,000 mm 0,7 UV-I 116 W/m 19,2 C 23,3 C 4,8 km/h (1 Bft) 96,00 %
04.08.2017 09:16 23,3 C 26,7 C 79 % 1012,8 hPa 0,0 l/m 2,1 km/h (1 Bft) W-SW 244 0 min 0,000 mm 0,9 UV-I 124 W/m 19,4 C 23,3 C 3,2 km/h (1 Bft) 93,62 %
04.08.2017 09:18 23,4 C 26,7 C 79 % 1012,9 hPa 0,0 l/m 0,0 km/h (0 Bft) W-SW 245 0 min 0,000 mm 1,0 UV-I 138 W/m 19,5 C 23,4 C 1,6 km/h (1 Bft) 92,68 %
04.08.2017 09:20 23,4 C 26,7 C 79 % 1012,9 hPa 0,0 l/m 0,2 km/h (0 Bft) W-SW 244 0 min 0,000 mm 1,2 UV-I 167 W/m 19,5 C 23,4 C 1,6 km/h (1 Bft) 96,23 %
04.08.2017 09:22 23,4 C 26,7 C 79 % 1012,9 hPa 0,0 l/m 0,2 km/h (0 Bft) W-SW 244 0 min 0,000 mm 1,4 UV-I 206 W/m 19,5 C 23,4 C 1,6 km/h (1 Bft) 97,37 %
04.08.2017 09:24 23,6 C 26,7 C 79 % 1013,0 hPa 0,0 l/m 1,4 km/h (1 Bft) W-SW 244 0 min 0,000 mm 1,5 UV-I 244 W/m 19,7 C 23,6 C 3,2 km/h (1 Bft) 96,00 %
04.08.2017 09:26 23,6 C 26,7 C 79 % 1012,9 hPa 0,0 l/m 1,1 km/h (1 Bft) W-SW 244 0 min 0,000 mm 1,6 UV-I 287 W/m 19,7 C 23,6 C 3,2 km/h (1 Bft) 98,11 %
04.08.2017 09:28 23,7 C 26,7 C 78 % 1012,9 hPa 0,0 l/m 1,7 km/h (1 Bft) W-SW 245 0 min 0,000 mm 1,5 UV-I 285 W/m 19,6 C 23,7 C 4,8 km/h (1 Bft) 93,62 %
04.08.2017 09:30 23,8 C 26,7 C 78 % 1012,9 hPa 0,0 l/m 2,1 km/h (1 Bft) W-SW 251 0 min 0,000 mm 1,6 UV-I 305 W/m 19,7 C 23,8 C 4,8 km/h (1 Bft) 100,00 %
04.08.2017 09:32 23,8 C 26,7 C 76 % 1012,9 hPa 0,0 l/m 2,2 km/h (1 Bft) W 281 0 min 0,000 mm 1,4 UV-I 268 W/m 19,3 C 23,8 C 6,4 km/h (2 Bft) 94,64 %
04.08.2017 09:34 23,9 C 26,7 C 76 % 1012,8 hPa 0,0 l/m 2,2 km/h (1 Bft) NW 315 0 min 0,000 mm 1,4 UV-I 231 W/m 19,4 C 23,9 C 4,8 km/h (1 Bft) 97,73 %
04.08.2017 09:36 24,0 C 26,7 C 76 % 1012,9 hPa 0,0 l/m 0,6 km/h (0 Bft) NW 313 0 min 0,000 mm 1,5 UV-I 232 W/m 19,5 C 24,0 C 3,2 km/h (1 Bft) 97,87 %
04.08.2017 09:38 24,0 C 26,7 C 76 % 1012,9 hPa 0,0 l/m 0,0 km/h (0 Bft) NW 313 0 min 0,000 mm 1,5 UV-I 233 W/m 19,5 C 24,0 C 0,0 km/h (0 Bft) 98,00 %
04.08.2017 09:40 24,1 C 26,7 C 76 % 1012,9 hPa 0,0 l/m 1,2 km/h (1 Bft) NW 313 0 min 0,000 mm 1,6 UV-I 230 W/m 19,6 C 24,1 C 3,2 km/h (1 Bft) 97,87 %
04.08.2017 09:42 24,1 C 26,7 C 76 % 1013,0 hPa 0,0 l/m 1,8 km/h (1 Bft) NW 313 0 min 0,000 mm 1,6 UV-I 225 W/m 19,6 C 24,1 C 3,2 km/h (1 Bft) 93,18 %
04.08.2017 09:44 24,2 C 26,7 C 77 % 1013,1 hPa 0,0 l/m 5,2 km/h (1 Bft) W 265 0 min 0,000 mm 1,7 UV-I 246 W/m 19,9 C 24,2 C 9,7 km/h (2 Bft) 97,44 %
04.08.2017 09:46 24,2 C 26,7 C 77 % 1013,0 hPa 0,0 l/m 4,2 km/h (1 Bft) W 276 0 min 0,000 mm 1,9 UV-I 286 W/m 19,9 C 24,2 C 6,4 km/h (2 Bft) 98,28 %
04.08.2017 09:48 24,3 C 26,7 C 77 % 1013,0 hPa 0,0 l/m 0,8 km/h (0 Bft) W 276 0 min 0,000 mm 1,9 UV-I 299 W/m 20,0 C 24,3 C 3,2 km/h (1 Bft) 97,22 %
04.08.2017 09:50 24,4 C 26,7 C 77 % 1013,0 hPa 0,0 l/m 1,2 km/h (1 Bft) NW 309 0 min 0,000 mm 1,9 UV-I 283 W/m 20,1 C 24,4 C 4,8 km/h (1 Bft) 94,00 %
04.08.2017 09:52 24,4 C 26,7 C 78 % 1013,0 hPa 0,0 l/m 2,2 km/h (1 Bft) W-SW 254 0 min 0,000 mm 1,9 UV-I 262 W/m 20,3 C 24,4 C 6,4 km/h (2 Bft) 100,00 %
04.08.2017 09:54 24,4 C 26,7 C 77 % 1013,0 hPa 0,0 l/m 2,1 km/h (1 Bft) W-SW 256 0 min 0,000 mm 2,0 UV-I 278 W/m 20,1 C 24,4 C 4,8 km/h (1 Bft) 100,00 %
04.08.2017 09:56 24,4 C 26,7 C 77 % 1013,0 hPa 0,0 l/m 3,4 km/h (1 Bft) W-NW 288 0 min 0,000 mm 2,2 UV-I 322 W/m 20,1 C 24,4 C 6,4 km/h (2 Bft) 100,00 %
04.08.2017 09:58 24,4 C 26,7 C 77 % 1013,0 hPa 0,0 l/m 3,0 km/h (1 Bft) W-NW 299 2 min 0,000 mm 2,5 UV-I 390 W/m 20,1 C 24,4 C 4,8 km/h (1 Bft) 100,00 %
04.08.2017 10:00 24,6 C 26,7 C 79 % 1013,0 hPa 0,0 l/m 3,1 km/h (1 Bft) W 275 2 min 0,152 mm 2,6 UV-I 482 W/m 20,7 C 24,6 C 6,4 km/h (2 Bft) 100,00 %
04.08.2017 10:02 24,6 C 26,7 C 77 % 1013,0 hPa 0,0 l/m 4,8 km/h (1 Bft) W-SW 241 2 min 0,000 mm 2,4 UV-I 445 W/m 20,3 C 24,6 C 9,7 km/h (2 Bft) 100,00 %
04.08.2017 10:04 24,7 C 26,7 C 78 % 1013,0 hPa 0,0 l/m 3,2 km/h (1 Bft) W-NW 282 2 min 0,000 mm 2,5 UV-I 412 W/m 20,6 C 24,7 C 8,0 km/h (2 Bft) 98,11 %
04.08.2017 10:06 24,7 C 26,7 C 77 % 1013,0 hPa 0,0 l/m 2,7 km/h (1 Bft) S 190 2 min 0,000 mm 2,3 UV-I 367 W/m 20,4 C 24,7 C 4,8 km/h (1 Bft) 97,87 %
04.08.2017 10:08 24,7 C 26,7 C 78 % 1012,9 hPa 0,0 l/m 0,9 km/h (0 Bft) S 189 0 min 0,000 mm 2,2 UV-I 321 W/m 20,6 C 24,7 C 3,2 km/h (1 Bft) 97,56 %
04.08.2017 10:10 24,8 C 26,7 C 77 % 1012,9 hPa 0,0 l/m 2,1 km/h (1 Bft) SW 216 0 min 0,000 mm 2,2 UV-I 319 W/m 20,5 C 24,8 C 4,8 km/h (1 Bft) 98,11 %
04.08.2017 10:12 24,8 C 26,7 C 78 % 1012,9 hPa 0,0 l/m 2,3 km/h (1 Bft) SW 216 0 min 0,000 mm 2,2 UV-I 311 W/m 20,7 C 24,8 C 4,8 km/h (1 Bft) 97,56 %
04.08.2017 10:14 24,9 C 26,7 C 78 % 1012,9 hPa 0,0 l/m 1,2 km/h (1 Bft) SW 216 0 min 0,000 mm 2,2 UV-I 298 W/m 20,8 C 24,9 C 3,2 km/h (1 Bft) 97,87 %
04.08.2017 10:16 24,9 C 26,7 C 77 % 1012,9 hPa 0,0 l/m 5,6 km/h (1 Bft) W-SW 242 0 min 0,000 mm 2,2 UV-I 289 W/m 20,6 C 24,9 C 9,7 km/h (2 Bft) 100,00 %
04.08.2017 10:18 24,8 C 26,7 C 77 % 1012,9 hPa 0,0 l/m 7,0 km/h (2 Bft) SW 228 0 min 0,000 mm 2,3 UV-I 297 W/m 20,5 C 24,6 C 12,9 km/h (3 Bft) 97,56 %
04.08.2017 10:20 24,8 C 26,7 C 77 % 1012,9 hPa 0,0 l/m 3,1 km/h (1 Bft) N-NW 347 0 min 0,000 mm 2,4 UV-I 308 W/m 20,5 C 24,8 C 6,4 km/h (2 Bft) 100,00 %
04.08.2017 10:22 24,7 C 26,7 C 77 % 1012,9 hPa 0,0 l/m 3,7 km/h (1 Bft) W 275 0 min 0,000 mm 2,6 UV-I 325 W/m 20,4 C 24,7 C 6,4 km/h (2 Bft) 100,00 %
04.08.2017 10:24 24,7 C 26,7 C 77 % 1012,8 hPa 0,0 l/m 2,9 km/h (1 Bft) NW 316 0 min 0,000 mm 2,8 UV-I 361 W/m 20,4 C 24,7 C 4,8 km/h (1 Bft) 100,00 %
04.08.2017 10:26 24,7 C 26,7 C 77 % 1012,9 hPa 0,0 l/m 2,9 km/h (1 Bft) W-NW 298 2 min 0,000 mm 3,5 UV-I 385 W/m 20,4 C 24,7 C 4,8 km/h (1 Bft) 100,00 %
04.08.2017 10:28 25,0 C 26,7 C 79 % 1012,9 hPa 0,0 l/m 1,8 km/h (1 Bft) W 279 2 min 0,000 mm 3,3 UV-I 500 W/m 21,1 C 25,0 C 4,8 km/h (1 Bft) 100,00 %
04.08.2017 10:30 25,2 C 26,7 C 77 % 1012,9 hPa 0,0 l/m 2,4 km/h (1 Bft) SW 223 2 min 0,000 mm 3,5 UV-I 387 W/m 20,9 C 25,2 C 6,4 km/h (2 Bft) 97,37 %
04.08.2017 10:32 25,3 C 26,7 C 77 % 1012,9 hPa 0,0 l/m 2,9 km/h (1 Bft) SW 235 2 min 0,000 mm 3,9 UV-I 413 W/m 21,0 C 25,3 C 6,4 km/h (2 Bft) 100,00 %
04.08.2017 10:34 25,6 C 26,7 C 76 % 1012,9 hPa 0,0 l/m 3,1 km/h (1 Bft) W 277 2 min 0,000 mm 3,9 UV-I 724 W/m 21,0 C 25,6 C 8,0 km/h (2 Bft) 100,00 %
04.08.2017 10:36 25,6 C 26,7 C 75 % 1012,9 hPa 0,0 l/m 5,3 km/h (1 Bft) SW 219 2 min 0,000 mm 4,3 UV-I 874 W/m 20,8 C 25,6 C 9,7 km/h (2 Bft) 100,00 %
04.08.2017 10:38 25,8 C 26,7 C 75 % 1012,9 hPa 0,0 l/m 6,6 km/h (2 Bft) W 269 2 min 0,000 mm 4,0 UV-I 893 W/m 21,0 C 25,8 C 11,3 km/h (2 Bft) 97,56 %
04.08.2017 10:40 25,8 C 26,7 C 74 % 1012,9 hPa 0,0 l/m 8,1 km/h (2 Bft) W-SW 254 2 min 0,000 mm 4,5 UV-I 891 W/m 20,8 C 25,4 C 12,9 km/h (3 Bft) 98,11 %
04.08.2017 10:42 25,8 C 26,7 C 74 % 1012,9 hPa 0,0 l/m 4,1 km/h (1 Bft) W-SW 252 2 min 0,000 mm 3,4 UV-I 732 W/m 20,8 C 25,8 C 9,7 km/h (2 Bft) 92,31 %
04.08.2017 10:44 25,7 C 26,7 C 74 % 1012,9 hPa 0,0 l/m 8,0 km/h (2 Bft) W 260 2 min 0,000 mm 2,6 UV-I 502 W/m 20,7 C 25,3 C 14,5 km/h (3 Bft) 96,92 %
04.08.2017 10:46 25,6 C 26,7 C 75 % 1012,9 hPa 0,0 l/m 9,6 km/h (2 Bft) W 259 2 min 0,000 mm 3,1 UV-I 422 W/m 20,8 C 24,9 C 14,5 km/h (3 Bft) 94,34 %
04.08.2017 10:48 25,6 C 26,7 C 75 % 1012,9 hPa 0,0 l/m 5,2 km/h (1 Bft) W-SW 246 2 min 0,000 mm 3,4 UV-I 453 W/m 20,8 C 25,6 C 9,7 km/h (2 Bft) 97,37 %
04.08.2017 10:50 25,7 C 26,7 C 75 % 1012,9 hPa 0,0 l/m 7,3 km/h (2 Bft) W-SW 242 2 min 0,000 mm 4,0 UV-I 501 W/m 20,9 C 25,5 C 11,3 km/h (2 Bft) 94,34 %
04.08.2017 10:52 25,8 C 26,7 C 75 % 1012,8 hPa 0,0 l/m 1,5 km/h (1 Bft) W-SW 251 2 min 0,000 mm 4,5 UV-I 684 W/m 21,0 C 25,8 C 3,2 km/h (1 Bft) 93,62 %
04.08.2017 10:54 25,9 C 26,7 C 74 % 1012,8 hPa 0,0 l/m 1,9 km/h (1 Bft) W 277 2 min 0,000 mm 3,8 UV-I 615 W/m 20,9 C 25,9 C 4,8 km/h (1 Bft) 95,74 %
04.08.2017 10:56 25,8 C 26,7 C 76 % 1012,8 hPa 0,0 l/m 1,4 km/h (1 Bft) NW 308 2 min 0,000 mm 3,5 UV-I 486 W/m 21,2 C 25,8 C 3,2 km/h (1 Bft) 91,67 %
04.08.2017 10:58 25,9 C 26,7 C 74 % 1012,8 hPa 0,0 l/m 2,8 km/h (1 Bft) N-NW 346 2 min 0,000 mm 3,3 UV-I 444 W/m 20,9 C 25,9 C 4,8 km/h (1 Bft) 98,44 %
04.08.2017 11:00 25,9 C 26,7 C 73 % 1012,8 hPa 0,0 l/m 2,7 km/h (1 Bft) W-NW 303 2 min 0,330 mm 3,3 UV-I 436 W/m 20,7 C 25,9 C 6,4 km/h (2 Bft) 94,00 %
04.08.2017 11:03 25,8 C 26,7 C 75 % 1012,9 hPa 0,0 l/m 3,6 km/h (1 Bft) W 266 3 min 0,000 mm 3,4 UV-I 441 W/m 21,0 C 25,8 C 9,7 km/h (2 Bft) 97,18 %
04.08.2017 11:04 25,8 C 26,7 C 74 % 1012,9 hPa 0,0 l/m 4,1 km/h (1 Bft) W-SW 255 0 min 0,000 mm 3,1 UV-I 381 W/m 20,8 C 25,8 C 6,4 km/h (2 Bft) 95,83 %
04.08.2017 11:06 25,8 C 26,7 C 75 % 1012,8 hPa 0,0 l/m 3,4 km/h (1 Bft) W 281 0 min 0,000 mm 3,1 UV-I 350 W/m 21,0 C 25,8 C 6,4 km/h (2 Bft) 95,74 %
04.08.2017 11:08 25,8 C 26,7 C 75 % 1012,8 hPa 0,0 l/m 5,4 km/h (1 Bft) W-SW 257 0 min 0,000 mm 3,2 UV-I 353 W/m 21,0 C 25,8 C 11,3 km/h (2 Bft) 97,87 %
04.08.2017 11:10 25,8 C 26,7 C 74 % 1012,7 hPa 0,0 l/m 6,0 km/h (2 Bft) S-SW 196 0 min 0,000 mm 3,4 UV-I 369 W/m 20,8 C 25,8 C 9,7 km/h (2 Bft) 92,11 %
04.08.2017 11:12 25,8 C 26,7 C 74 % 1012,6 hPa 0,0 l/m 5,7 km/h (1 Bft) W-SW 245 0 min 0,000 mm 3,5 UV-I 378 W/m 20,8 C 25,8 C 8,0 km/h (2 Bft) 98,11 %
04.08.2017 11:14 25,9 C 26,7 C 74 % 1012,6 hPa 0,0 l/m 3,6 km/h (1 Bft) W-SW 244 0 min 0,000 mm 4,7 UV-I 376 W/m 20,9 C 25,9 C 4,8 km/h (1 Bft) 98,00 %
04.08.2017 11:16 26,2 C 26,7 C 73 % 1012,6 hPa 0,0 l/m 4,3 km/h (1 Bft) W-SW 240 2 min 0,000 mm 4,6 UV-I 692 W/m 21,0 C 26,2 C 8,0 km/h (2 Bft) 100,00 %
04.08.2017 11:18 26,2 C 26,7 C 73 % 1012,7 hPa 0,0 l/m 0,3 km/h (0 Bft) W-SW 240 2 min 0,000 mm 3,7 UV-I 482 W/m 21,0 C 26,2 C 1,6 km/h (1 Bft) 96,00 %
04.08.2017 11:20 26,2 C 26,7 C 74 % 1012,7 hPa 0,0 l/m 1,2 km/h (1 Bft) S-SO 165 2 min 0,000 mm 4,1 UV-I 459 W/m 21,2 C 26,2 C 6,4 km/h (2 Bft) 96,00 %
04.08.2017 11:22 26,3 C 26,7 C 73 % 1012,7 hPa 0,0 l/m 5,3 km/h (1 Bft) W-SW 252 2 min 0,000 mm 4,3 UV-I 509 W/m 21,1 C 26,3 C 11,3 km/h (2 Bft) 100,00 %
04.08.2017 11:24 26,3 C 26,7 C 72 % 1012,7 hPa 0,0 l/m 2,5 km/h (1 Bft) W-SW 258 2 min 0,000 mm 4,0 UV-I 474 W/m 20,8 C 26,3 C 6,4 km/h (2 Bft) 100,00 %
04.08.2017 11:26 26,3 C 26,7 C 72 % 1012,6 hPa 0,0 l/m 4,8 km/h (1 Bft) W-SW 251 2 min 0,000 mm 4,0 UV-I 489 W/m 20,8 C 26,3 C 11,3 km/h (2 Bft) 100,00 %
04.08.2017 11:28 26,3 C 26,7 C 72 % 1012,7 hPa 0,0 l/m 3,8 km/h (1 Bft) SW 219 2 min 0,000 mm 4,0 UV-I 500 W/m 20,8 C 26,3 C 8,0 km/h (2 Bft) 95,74 %
04.08.2017 11:30 26,2 C 26,7 C 72 % 1012,6 hPa 0,0 l/m 3,0 km/h (1 Bft) W-SW 240 2 min 0,000 mm 4,0 UV-I 511 W/m 20,7 C 26,2 C 8,0 km/h (2 Bft) 97,73 %
04.08.2017 11:32 26,2 C 26,7 C 73 % 1012,5 hPa 0,0 l/m 2,8 km/h (1 Bft) W-SW 240 2 min 0,000 mm 3,8 UV-I 547 W/m 21,0 C 26,2 C 8,0 km/h (2 Bft) 96,00 %
04.08.2017 11:34 26,2 C 26,7 C 72 % 1012,5 hPa 0,0 l/m 0,4 km/h (0 Bft) W-SW 240 2 min 0,000 mm 4,7 UV-I 565 W/m 20,7 C 26,2 C 3,2 km/h (1 Bft) 100,00 %
04.08.2017 11:36 26,4 C 26,7 C 74 % 1012,5 hPa 0,0 l/m 3,3 km/h (1 Bft) W-SW 240 2 min 0,000 mm 3,9 UV-I 607 W/m 21,4 C 26,4 C 6,4 km/h (2 Bft) 97,73 %
04.08.2017 11:39 26,7 C 26,7 C 71 % 1012,5 hPa 0,0 l/m 5,4 km/h (1 Bft) SW 219 3 min 0,000 mm 4,6 UV-I 556 W/m 21,0 C 26,7 C 8,0 km/h (2 Bft) 93,51 %
04.08.2017 11:40 26,7 C 26,7 C 71 % 1012,5 hPa 0,0 l/m 6,7 km/h (2 Bft) S-SW 213 1 min 0,000 mm 4,3 UV-I 506 W/m 21,0 C 26,6 C 8,0 km/h (2 Bft) 91,67 %
04.08.2017 11:42 26,9 C 26,7 C 73 % 1012,4 hPa 0,0 l/m 4,2 km/h (1 Bft) SW 219 2 min 0,000 mm 4,4 UV-I 508 W/m 21,6 C 26,9 C 6,4 km/h (2 Bft) 96,15 %
04.08.2017 11:44 27,0 C 26,7 C 71 % 1012,4 hPa 0,0 l/m 2,4 km/h (1 Bft) SW 221 2 min 0,000 mm 4,5 UV-I 589 W/m 21,3 C 27,0 C 4,8 km/h (1 Bft) 96,00 %
04.08.2017 11:46 27,0 C 26,7 C 70 % 1012,4 hPa 0,0 l/m 1,3 km/h (1 Bft) SW 221 2 min 0,000 mm 5,1 UV-I 586 W/m 21,0 C 27,0 C 4,8 km/h (1 Bft) 100,00 %
04.08.2017 11:48 27,0 C 26,7 C 70 % 1012,4 hPa 0,0 l/m 2,1 km/h (1 Bft) SW 229 2 min 0,000 mm 5,0 UV-I 658 W/m 21,0 C 27,0 C 8,0 km/h (2 Bft) 98,11 %
04.08.2017 11:50 26,9 C 27,2 C 72 % 1012,5 hPa 0,0 l/m 4,5 km/h (1 Bft) W 273 2 min 0,000 mm 5,3 UV-I 633 W/m 21,4 C 26,9 C 9,7 km/h (2 Bft) 98,00 %
04.08.2017 11:52 27,0 C 27,2 C 69 % 1012,5 hPa 0,0 l/m 3,7 km/h (1 Bft) W 274 2 min 0,000 mm 6,0 UV-I 855 W/m 20,8 C 27,0 C 6,4 km/h (2 Bft) 93,62 %
04.08.2017 11:54 27,1 C 27,2 C 71 % 1012,5 hPa 0,0 l/m 2,3 km/h (1 Bft) N-NO 16 2 min 0,000 mm 5,8 UV-I 849 W/m 21,4 C 27,1 C 6,4 km/h (2 Bft) 97,37 %
04.08.2017 11:56 27,2 C 27,2 C 69 % 1012,4 hPa 0,0 l/m 4,0 km/h (1 Bft) O-NO 57 2 min 0,000 mm 5,9 UV-I 884 W/m 21,0 C 27,2 C 6,4 km/h (2 Bft) 96,23 %
04.08.2017 11:58 27,3 C 27,2 C 70 % 1012,4 hPa 0,0 l/m 3,8 km/h (1 Bft) O-NO 64 2 min 0,000 mm 5,2 UV-I 750 W/m 21,3 C 27,3 C 4,8 km/h (1 Bft) 97,73 %
04.08.2017 12:00 27,4 C 27,2 C 68 % 1012,3 hPa 0,0 l/m 5,1 km/h (1 Bft) NO 42 2 min 0,000 mm 5,2 UV-I 648 W/m 21,0 C 27,4 C 9,7 km/h (2 Bft) 97,56 %
04.08.2017 12:02 27,5 C 27,2 C 68 % 1012,3 hPa 0,0 l/m 6,2 km/h (2 Bft) NO 43 2 min 0,381 mm 5,3 UV-I 700 W/m 21,0 C 27,5 C 9,7 km/h (2 Bft) 100,00 %
04.08.2017 12:04 27,6 C 27,2 C 67 % 1012,3 hPa 0,0 l/m 2,9 km/h (1 Bft) NO 46 2 min 0,000 mm 5,2 UV-I 667 W/m 20,9 C 27,6 C 6,4 km/h (2 Bft) 93,62 %
04.08.2017 12:06 27,6 C 27,2 C 66 % 1012,3 hPa 0,0 l/m 0,2 km/h (0 Bft) NO 46 2 min 0,000 mm 5,3 UV-I 630 W/m 20,7 C 27,6 C 1,6 km/h (1 Bft) 100,00 %
04.08.2017 12:08 27,5 C 27,2 C 66 % 1012,3 hPa 0,0 l/m 1,1 km/h (1 Bft) S-SO 153 2 min 0,000 mm 6,1 UV-I 887 W/m 20,6 C 27,5 C 4,8 km/h (1 Bft) 97,14 %
04.08.2017 12:10 27,8 C 27,2 C 69 % 1012,4 hPa 0,0 l/m 2,3 km/h (1 Bft) W-NW 282 2 min 0,000 mm 6,7 UV-I 1090 W/m 21,6 C 27,8 C 6,4 km/h (2 Bft) 98,21 %
04.08.2017 12:12 28,2 C 27,2 C 66 % 1012,3 hPa 0,0 l/m 3,4 km/h (1 Bft) W 271 2 min 0,000 mm 6,4 UV-I 930 W/m 21,2 C 28,2 C 4,8 km/h (1 Bft) 97,73 %
04.08.2017 12:14 28,3 C 27,2 C 67 % 1012,3 hPa 0,0 l/m 0,9 km/h (0 Bft) W 279 2 min 0,000 mm 6,3 UV-I 909 W/m 21,6 C 28,3 C 3,2 km/h (1 Bft) 96,43 %
04.08.2017 12:16 28,4 C 27,2 C 65 % 1012,2 hPa 0,0 l/m 0,9 km/h (0 Bft) W 277 2 min 0,000 mm 5,6 UV-I 895 W/m 21,2 C 28,4 C 3,2 km/h (1 Bft) 100,00 %
04.08.2017 12:18 28,4 C 27,2 C 65 % 1012,2 hPa 0,0 l/m 2,4 km/h (1 Bft) W-SW 247 2 min 0,000 mm 5,5 UV-I 746 W/m 21,2 C 28,4 C 8,0 km/h (2 Bft) 98,11 %
04.08.2017 12:20 28,3 C 27,2 C 65 % 1012,2 hPa 0,0 l/m 3,3 km/h (1 Bft) W-NW 303 2 min 0,000 mm 5,9 UV-I 628 W/m 21,1 C 28,3 C 8,0 km/h (2 Bft) 100,00 %
04.08.2017 12:22 28,1 C 27,2 C 66 % 1012,2 hPa 0,0 l/m 3,1 km/h (1 Bft) W-NW 287 2 min 0,000 mm 4,9 UV-I 605 W/m 21,1 C 28,1 C 4,8 km/h (1 Bft) 100,00 %
04.08.2017 12:24 28,0 C 27,2 C 66 % 1012,2 hPa 0,0 l/m 3,5 km/h (1 Bft) N-NO 28 2 min 0,000 mm 5,4 UV-I 496 W/m 21,0 C 28,0 C 8,0 km/h (2 Bft) 98,11 %
04.08.2017 12:26 28,1 C 27,2 C 66 % 1012,2 hPa 0,0 l/m 2,9 km/h (1 Bft) N 355 2 min 0,000 mm 6,1 UV-I 716 W/m 21,1 C 28,1 C 6,4 km/h (2 Bft) 98,00 %
04.08.2017 12:28 28,3 C 27,2 C 66 % 1012,1 hPa 0,0 l/m 5,0 km/h (1 Bft) O-NO 66 2 min 0,000 mm 6,4 UV-I 880 W/m 21,3 C 28,3 C 11,3 km/h (2 Bft) 94,74 %
04.08.2017 12:30 28,4 C 27,2 C 64 % 1012,2 hPa 0,0 l/m 3,4 km/h (1 Bft) N-NO 30 2 min 0,000 mm 6,3 UV-I 895 W/m 20,9 C 28,4 C 9,7 km/h (2 Bft) 98,08 %
04.08.2017 12:32 28,6 C 27,2 C 67 % 1012,1 hPa 0,0 l/m 5,7 km/h (1 Bft) N-NO 20 2 min 0,000 mm 6,2 UV-I 797 W/m 21,9 C 28,6 C 9,7 km/h (2 Bft) 95,12 %
04.08.2017 12:34 28,4 C 27,2 C 64 % 1012,1 hPa 0,0 l/m 6,1 km/h (2 Bft) NO 45 2 min 0,000 mm 4,8 UV-I 734 W/m 20,9 C 28,4 C 9,7 km/h (2 Bft) 94,00 %
04.08.2017 12:36 28,4 C 27,2 C 66 % 1012,1 hPa 0,0 l/m 9,1 km/h (2 Bft) N-NO 28 2 min 0,000 mm 6,3 UV-I 837 W/m 21,4 C 28,0 C 12,9 km/h (3 Bft) 94,29 %
04.08.2017 12:38 28,4 C 27,2 C 66 % 1012,0 hPa 0,0 l/m 8,7 km/h (2 Bft) NO 46 2 min 0,000 mm 6,2 UV-I 863 W/m 21,4 C 28,1 C 9,7 km/h (2 Bft) 96,43 %
04.08.2017 12:40 28,7 C 27,2 C 65 % 1012,0 hPa 0,0 l/m 7,0 km/h (2 Bft) NO 51 2 min 0,000 mm 6,1 UV-I 823 W/m 21,5 C 28,6 C 11,3 km/h (2 Bft) 94,34 %
04.08.2017 12:42 29,0 C 27,2 C 67 % 1011,9 hPa 0,0 l/m 2,8 km/h (1 Bft) N-NO 19 2 min 0,000 mm 6,2 UV-I 839 W/m 22,2 C 29,0 C 8,0 km/h (2 Bft) 97,37 %
04.08.2017 12:44 29,2 C 27,2 C 67 % 1011,9 hPa 0,0 l/m 7,0 km/h (2 Bft) NO 46 2 min 0,000 mm 6,2 UV-I 838 W/m 22,4 C 29,1 C 11,3 km/h (2 Bft) 94,64 %
04.08.2017 12:46 29,1 C 27,2 C 65 % 1011,9 hPa 0,0 l/m 6,7 km/h (2 Bft) NO 34 2 min 0,000 mm 6,3 UV-I 838 W/m 21,8 C 29,1 C 9,7 km/h (2 Bft) 93,62 %
04.08.2017 12:48 29,0 C 27,2 C 62 % 1011,9 hPa 0,0 l/m 6,0 km/h (2 Bft) N 5 2 min 0,000 mm 6,2 UV-I 831 W/m 21,0 C 29,0 C 8,0 km/h (2 Bft) 97,37 %
04.08.2017 12:50 29,2 C 27,2 C 64 % 1011,9 hPa 0,0 l/m 3,6 km/h (1 Bft) NW 306 2 min 0,000 mm 6,1 UV-I 833 W/m 21,7 C 29,2 C 6,4 km/h (2 Bft) 93,62 %
04.08.2017 12:52 29,3 C 27,2 C 62 % 1011,9 hPa 0,0 l/m 3,7 km/h (1 Bft) NO 37 2 min 0,000 mm 6,2 UV-I 848 W/m 21,2 C 29,3 C 11,3 km/h (2 Bft) 94,44 %
04.08.2017 12:54 29,3 C 27,2 C 63 % 1011,9 hPa 0,0 l/m 7,2 km/h (2 Bft) N 5 2 min 0,000 mm 6,1 UV-I 852 W/m 21,5 C 29,2 C 12,9 km/h (3 Bft) 93,10 %
04.08.2017 12:56 29,2 C 27,2 C 61 % 1011,9 hPa 0,0 l/m 1,5 km/h (1 Bft) N-NW 331 2 min 0,000 mm 6,1 UV-I 822 W/m 20,9 C 29,2 C 4,8 km/h (1 Bft) 94,34 %
04.08.2017 12:58 29,0 C 27,2 C 63 % 1011,9 hPa 0,0 l/m 3,4 km/h (1 Bft) NW 307 2 min 0,000 mm 5,9 UV-I 722 W/m 21,2 C 29,0 C 6,4 km/h (2 Bft) 94,00 %
04.08.2017 13:00 28,9 C 27,2 C 62 % 1012,0 hPa 0,0 l/m 1,4 km/h (1 Bft) NW 315 2 min 0,534 mm 5,8 UV-I 783 W/m 20,9 C 28,9 C 3,2 km/h (1 Bft) 94,87 %
04.08.2017 13:02 28,8 C 27,2 C 63 % 1011,8 hPa 0,0 l/m 3,4 km/h (1 Bft) NW 325 2 min 0,000 mm 6,1 UV-I 693 W/m 21,0 C 28,8 C 6,4 km/h (2 Bft) 92,31 %
04.08.2017 13:04 28,8 C 27,2 C 63 % 1011,8 hPa 0,0 l/m 1,8 km/h (1 Bft) N 355 2 min 0,000 mm 6,3 UV-I 775 W/m 21,0 C 28,8 C 4,8 km/h (1 Bft) 95,83 %
04.08.2017 13:06 29,0 C 27,2 C 62 % 1011,8 hPa 0,0 l/m 4,0 km/h (1 Bft) O 85 2 min 0,000 mm 6,2 UV-I 849 W/m 21,0 C 29,0 C 8,0 km/h (2 Bft) 97,37 %
04.08.2017 13:08 29,1 C 27,2 C 63 % 1011,8 hPa 0,0 l/m 1,9 km/h (1 Bft) NW 326 2 min 0,000 mm 6,1 UV-I 835 W/m 21,3 C 29,1 C 3,2 km/h (1 Bft) 100,00 %
04.08.2017 13:10 29,2 C 27,2 C 61 % 1011,8 hPa 0,0 l/m 3,0 km/h (1 Bft) N 5 2 min 0,000 mm 6,2 UV-I 829 W/m 20,9 C 29,2 C 4,8 km/h (1 Bft) 98,46 %
04.08.2017 13:12 29,1 C 27,2 C 62 % 1011,7 hPa 0,0 l/m 4,2 km/h (1 Bft) N 360 2 min 0,000 mm 6,2 UV-I 828 W/m 21,1 C 29,1 C 6,4 km/h (2 Bft) 100,00 %
04.08.2017 13:14 28,8 C 27,2 C 64 % 1011,7 hPa 0,0 l/m 1,1 km/h (1 Bft) N-NO 33 2 min 0,000 mm 6,2 UV-I 822 W/m 21,3 C 28,8 C 6,4 km/h (2 Bft) 100,00 %
04.08.2017 13:16 28,9 C 27,2 C 63 % 1011,7 hPa 0,0 l/m 3,2 km/h (1 Bft) NW 311 2 min 0,000 mm 6,3 UV-I 826 W/m 21,1 C 28,9 C 9,7 km/h (2 Bft) 97,87 %
04.08.2017 13:18 29,1 C 27,2 C 62 % 1011,7 hPa 0,0 l/m 3,4 km/h (1 Bft) N-NW 340 2 min 0,000 mm 6,3 UV-I 815 W/m 21,1 C 29,1 C 8,0 km/h (2 Bft) 98,00 %
04.08.2017 13:20 29,2 C 27,2 C 66 % 1011,6 hPa 0,0 l/m 2,3 km/h (1 Bft) NW 309 2 min 0,000 mm 6,3 UV-I 824 W/m 22,2 C 29,2 C 6,4 km/h (2 Bft) 100,00 %
04.08.2017 13:22 29,3 C 27,2 C 61 % 1011,6 hPa 0,0 l/m 3,7 km/h (1 Bft) W-NW 290 2 min 0,000 mm 6,3 UV-I 838 W/m 21,0 C 29,3 C 11,3 km/h (2 Bft) 100,00 %
04.08.2017 13:24 29,2 C 27,2 C 62 % 1011,6 hPa 0,0 l/m 5,0 km/h (1 Bft) N 349 2 min 0,000 mm 6,3 UV-I 837 W/m 21,1 C 29,2 C 11,3 km/h (2 Bft) 100,00 %
04.08.2017 13:26 29,1 C 27,2 C 61 % 1011,6 hPa 0,0 l/m 2,9 km/h (1 Bft) W 276 2 min 0,000 mm 6,3 UV-I 833 W/m 20,8 C 29,1 C 4,8 km/h (1 Bft) 100,00 %
04.08.2017 13:28 29,1 C 27,2 C 62 % 1011,6 hPa 0,0 l/m 3,6 km/h (1 Bft) N-NO 18 2 min 0,000 mm 6,2 UV-I 825 W/m 21,1 C 29,1 C 8,0 km/h (2 Bft) 100,00 %
04.08.2017 13:30 29,2 C 27,2 C 64 % 1011,5 hPa 0,0 l/m 4,0 km/h (1 Bft) W-NW 284 2 min 0,000 mm 6,1 UV-I 821 W/m 21,7 C 29,2 C 9,7 km/h (2 Bft) 100,00 %
04.08.2017 13:32 29,4 C 27,2 C 62 % 1011,5 hPa 0,0 l/m 4,9 km/h (1 Bft) N-NW 342 2 min 0,000 mm 6,0 UV-I 815 W/m 21,3 C 29,4 C 8,0 km/h (2 Bft) 100,00 %
04.08.2017 13:34 29,4 C 27,2 C 60 % 1011,5 hPa 0,0 l/m 3,7 km/h (1 Bft) NW 315 2 min 0,000 mm 3,6 UV-I 748 W/m 20,8 C 29,4 C 6,4 km/h (2 Bft) 97,56 %
04.08.2017 13:36 29,2 C 27,2 C 61 % 1011,5 hPa 0,0 l/m 8,9 km/h (2 Bft) N-NW 346 0 min 0,000 mm 4,0 UV-I 256 W/m 20,9 C 28,9 C 17,7 km/h (3 Bft) 100,00 %
04.08.2017 13:38 29,0 C 27,2 C 60 % 1011,5 hPa 0,0 l/m 3,0 km/h (1 Bft) NO 46 0 min 0,000 mm 3,8 UV-I 247 W/m 20,4 C 29,0 C 8,0 km/h (2 Bft) 96,23 %
04.08.2017 13:40 28,8 C 27,2 C 60 % 1011,6 hPa 0,0 l/m 2,5 km/h (1 Bft) N-NO 18 0 min 0,000 mm 4,7 UV-I 253 W/m 20,2 C 28,8 C 6,4 km/h (2 Bft) 100,00 %
04.08.2017 13:42 28,6 C 27,2 C 60 % 1011,6 hPa 0,0 l/m 2,2 km/h (1 Bft) N-NW 333 0 min 0,000 mm 3,9 UV-I 241 W/m 20,1 C 28,6 C 6,4 km/h (2 Bft) 98,57 %
04.08.2017 13:44 28,4 C 27,2 C 62 % 1011,5 hPa 0,0 l/m 0,2 km/h (0 Bft) N-NW 333 0 min 0,000 mm 4,6 UV-I 274 W/m 20,4 C 28,4 C 3,2 km/h (1 Bft) 97,22 %
04.08.2017 13:46 28,5 C 27,2 C 62 % 1011,5 hPa 0,0 l/m 3,4 km/h (1 Bft) NW 318 0 min 0,000 mm 5,1 UV-I 299 W/m 20,5 C 28,5 C 8,0 km/h (2 Bft) 100,00 %
04.08.2017 13:48 28,8 C 27,2 C 62 % 1011,4 hPa 0,0 l/m 4,7 km/h (1 Bft) N-NW 331 0 min 0,000 mm 5,5 UV-I 387 W/m 20,8 C 28,8 C 11,3 km/h (2 Bft) 97,73 %
04.08.2017 13:50 29,0 C 27,2 C 62 % 1011,4 hPa 0,0 l/m 3,5 km/h (1 Bft) N 5 2 min 0,000 mm 5,7 UV-I 809 W/m 21,0 C 29,0 C 8,0 km/h (2 Bft) 100,00 %
04.08.2017 13:52 29,3 C 27,2 C 61 % 1011,5 hPa 0,0 l/m 3,2 km/h (1 Bft) W 277 2 min 0,000 mm 5,8 UV-I 829 W/m 21,0 C 29,3 C 8,0 km/h (2 Bft) 98,00 %
04.08.2017 13:54 29,4 C 27,2 C 60 % 1011,4 hPa 0,0 l/m 3,9 km/h (1 Bft) N-NO 24 2 min 0,000 mm 5,9 UV-I 828 W/m 20,8 C 29,4 C 8,0 km/h (2 Bft) 97,87 %
04.08.2017 13:56 29,4 C 27,8 C 59 % 1011,5 hPa 0,0 l/m 2,8 km/h (1 Bft) N 9 2 min 0,000 mm 5,9 UV-I 817 W/m 20,5 C 29,4 C 4,8 km/h (1 Bft) 98,00 %
04.08.2017 13:58 29,4 C 27,8 C 61 % 1011,4 hPa 0,0 l/m 4,5 km/h (1 Bft) N-NO 32 2 min 0,000 mm 6,0 UV-I 818 W/m 21,1 C 29,4 C 14,5 km/h (3 Bft) 100,00 %
04.08.2017 14:00 29,6 C 27,8 C 59 % 1011,4 hPa 0,0 l/m 8,1 km/h (2 Bft) NO 55 2 min 0,482 mm 5,9 UV-I 818 W/m 20,7 C 29,4 C 16,1 km/h (3 Bft) 97,87 %
04.08.2017 14:02 29,4 C 27,8 C 61 % 1011,4 hPa 0,0 l/m 2,1 km/h (1 Bft) N-NO 26 2 min 0,000 mm 5,9 UV-I 811 W/m 21,1 C 29,4 C 4,8 km/h (1 Bft) 97,50 %
04.08.2017 14:04 29,6 C 27,8 C 59 % 1011,4 hPa 0,0 l/m 5,3 km/h (1 Bft) N-NW 338 2 min 0,000 mm 5,9 UV-I 824 W/m 20,7 C 29,6 C 12,9 km/h (3 Bft) 97,87 %
04.08.2017 14:06 29,6 C 27,8 C 58 % 1011,4 hPa 0,0 l/m 5,3 km/h (1 Bft) NW 325 2 min 0,000 mm 5,7 UV-I 816 W/m 20,4 C 29,6 C 14,5 km/h (3 Bft) 98,00 %
04.08.2017 14:08 29,5 C 27,8 C 60 % 1011,5 hPa 0,0 l/m 5,2 km/h (1 Bft) W-NW 302 2 min 0,000 mm 5,7 UV-I 806 W/m 20,9 C 29,5 C 11,3 km/h (2 Bft) 100,00 %
04.08.2017 14:10 29,6 C 27,8 C 59 % 1011,4 hPa 0,0 l/m 3,2 km/h (1 Bft) NW 326 2 min 0,000 mm 5,6 UV-I 766 W/m 20,7 C 29,6 C 6,4 km/h (2 Bft) 100,00 %
04.08.2017 14:12 29,5 C 27,8 C 58 % 1011,4 hPa 0,0 l/m 3,6 km/h (1 Bft) NW 325 2 min 0,000 mm 5,6 UV-I 757 W/m 20,3 C 29,5 C 6,4 km/h (2 Bft) 97,96 %
04.08.2017 14:14 29,5 C 27,8 C 59 % 1011,4 hPa 0,0 l/m 3,0 km/h (1 Bft) O-NO 58 2 min 0,000 mm 5,4 UV-I 739 W/m 20,6 C 29,5 C 6,4 km/h (2 Bft) 100,00 %
04.08.2017 14:16 29,4 C 27,8 C 58 % 1011,2 hPa 0,0 l/m 4,7 km/h (1 Bft) O 98 2 min 0,000 mm 4,3 UV-I 720 W/m 20,3 C 29,4 C 8,0 km/h (2 Bft) 96,00 %
04.08.2017 14:18 29,3 C 27,8 C 61 % 1011,3 hPa 0,0 l/m 1,2 km/h (1 Bft) W-NW 298 2 min 0,000 mm 5,5 UV-I 763 W/m 21,0 C 29,3 C 3,2 km/h (1 Bft) 95,74 %
04.08.2017 14:20 29,4 C 27,8 C 59 % 1011,2 hPa 0,0 l/m 3,3 km/h (1 Bft) N-NO 19 2 min 0,000 mm 5,5 UV-I 761 W/m 20,5 C 29,4 C 6,4 km/h (2 Bft) 95,74 %
04.08.2017 14:22 29,7 C 27,8 C 61 % 1011,3 hPa 0,0 l/m 5,8 km/h (2 Bft) N-NW 344 2 min 0,000 mm 5,3 UV-I 783 W/m 21,4 C 29,7 C 14,5 km/h (3 Bft) 98,00 %
04.08.2017 14:24 29,6 C 27,8 C 59 % 1011,2 hPa 0,0 l/m 6,2 km/h (2 Bft) N 5 2 min 0,000 mm 4,9 UV-I 555 W/m 20,7 C 29,6 C 11,3 km/h (2 Bft) 95,74 %
04.08.2017 14:26 29,3 C 27,8 C 60 % 1011,2 hPa 0,0 l/m 3,2 km/h (1 Bft) NW 309 2 min 0,000 mm 4,9 UV-I 533 W/m 20,7 C 29,3 C 6,4 km/h (2 Bft) 98,00 %
04.08.2017 14:28 29,3 C 27,8 C 59 % 1011,3 hPa 0,0 l/m 2,3 km/h (1 Bft) W 268 2 min 0,000 mm 5,3 UV-I 735 W/m 20,4 C 29,3 C 4,8 km/h (1 Bft) 95,74 %
04.08.2017 14:30 29,3 C 27,8 C 61 % 1011,2 hPa 0,0 l/m 2,0 km/h (1 Bft) NW 305 2 min 0,000 mm 5,4 UV-I 758 W/m 21,0 C 29,3 C 6,4 km/h (2 Bft) 97,37 %
04.08.2017 14:32 29,6 C 27,8 C 60 % 1011,2 hPa 0,0 l/m 4,8 km/h (1 Bft) O 84 2 min 0,000 mm 5,4 UV-I 770 W/m 21,0 C 29,6 C 11,3 km/h (2 Bft) 97,87 %
04.08.2017 14:34 29,6 C 27,8 C 59 % 1011,1 hPa 0,0 l/m 4,2 km/h (1 Bft) N-NO 13 2 min 0,000 mm 5,3 UV-I 764 W/m 20,7 C 29,6 C 8,0 km/h (2 Bft) 95,74 %
04.08.2017 14:36 29,6 C 27,8 C 59 % 1011,1 hPa 0,0 l/m 7,5 km/h (2 Bft) N-NO 19 2 min 0,000 mm 5,3 UV-I 760 W/m 20,7 C 29,5 C 14,5 km/h (3 Bft) 97,87 %
04.08.2017 14:38 29,9 C 27,8 C 58 % 1011,1 hPa 0,0 l/m 8,0 km/h (2 Bft) N 5 2 min 0,000 mm 5,3 UV-I 759 W/m 20,7 C 29,7 C 16,1 km/h (3 Bft) 95,74 %
04.08.2017 14:40 29,9 C 27,8 C 58 % 1011,1 hPa 0,0 l/m 1,7 km/h (1 Bft) NW 321 2 min 0,000 mm 5,3 UV-I 755 W/m 20,7 C 29,9 C 6,4 km/h (2 Bft) 95,74 %
04.08.2017 14:42 29,7 C 27,8 C 58 % 1011,0 hPa 0,0 l/m 4,0 km/h (1 Bft) N 11 2 min 0,000 mm 5,2 UV-I 750 W/m 20,5 C 29,7 C 12,9 km/h (3 Bft) 96,00 %
04.08.2017 14:44 29,8 C 27,8 C 58 % 1011,1 hPa 0,0 l/m 10,8 km/h (2 Bft) NO 36 2 min 0,000 mm 5,1 UV-I 736 W/m 20,6 C 29,4 C 17,7 km/h (3 Bft) 97,87 %
04.08.2017 14:46 29,9 C 27,8 C 55 % 1011,1 hPa 0,0 l/m 8,0 km/h (2 Bft) O-NO 69 2 min 0,000 mm 5,0 UV-I 719 W/m 19,9 C 29,7 C 12,9 km/h (3 Bft) 100,00 %
04.08.2017 14:48 29,6 C 27,8 C 56 % 1011,1 hPa 0,0 l/m 2,9 km/h (1 Bft) W-NW 298 2 min 0,000 mm 4,7 UV-I 650 W/m 19,9 C 29,6 C 8,0 km/h (2 Bft) 100,00 %
04.08.2017 14:50 29,4 C 27,8 C 59 % 1011,0 hPa 0,0 l/m 2,1 km/h (1 Bft) N 11 2 min 0,000 mm 4,9 UV-I 677 W/m 20,5 C 29,4 C 4,8 km/h (1 Bft) 97,87 %
04.08.2017 14:52 29,4 C 27,8 C 58 % 1011,0 hPa 0,0 l/m 2,9 km/h (1 Bft) NW 306 2 min 0,000 mm 4,9 UV-I 724 W/m 20,3 C 29,4 C 6,4 km/h (2 Bft) 100,00 %
04.08.2017 14:54 29,6 C 27,8 C 58 % 1010,9 hPa 0,0 l/m 1,6 km/h (1 Bft) W-NW 285 2 min 0,000 mm 4,9 UV-I 718 W/m 20,4 C 29,6 C 3,2 km/h (1 Bft) 93,62 %
04.08.2017 14:56 29,8 C 27,8 C 56 % 1010,9 hPa 0,0 l/m 2,0 km/h (1 Bft) N 10 2 min 0,000 mm 4,8 UV-I 699 W/m 20,1 C 29,8 C 3,2 km/h (1 Bft) 97,62 %
04.08.2017 14:58 29,9 C 27,8 C 57 % 1010,9 hPa 0,0 l/m 5,5 km/h (1 Bft) W-SW 245 2 min 0,000 mm 4,5 UV-I 715 W/m 20,4 C 29,9 C 11,3 km/h (2 Bft) 97,87 %
04.08.2017 15:00 29,9 C 27,8 C 56 % 1010,9 hPa 0,0 l/m 4,7 km/h (1 Bft) W 269 2 min 0,508 mm 4,6 UV-I 716 W/m 20,1 C 29,9 C 11,3 km/h (2 Bft) 97,87 %
04.08.2017 15:02 29,8 C 27,8 C 56 % 1010,9 hPa 0,0 l/m 5,6 km/h (1 Bft) W-NW 288 2 min 0,000 mm 4,8 UV-I 712 W/m 20,1 C 29,8 C 12,9 km/h (3 Bft) 100,00 %
04.08.2017 15:04 29,8 C 27,8 C 57 % 1010,9 hPa 0,0 l/m 4,9 km/h (1 Bft) W-NW 292 2 min 0,000 mm 4,8 UV-I 709 W/m 20,3 C 29,8 C 8,0 km/h (2 Bft) 97,87 %
04.08.2017 15:06 29,7 C 27,8 C 56 % 1010,9 hPa 0,0 l/m 5,0 km/h (1 Bft) N-NO 15 2 min 0,000 mm 4,7 UV-I 710 W/m 20,0 C 29,7 C 9,7 km/h (2 Bft) 97,87 %
04.08.2017 15:08 29,7 C 27,8 C 56 % 1011,0 hPa 0,0 l/m 2,0 km/h (1 Bft) N 351 2 min 0,000 mm 4,7 UV-I 711 W/m 20,0 C 29,7 C 6,4 km/h (2 Bft) 98,00 %
04.08.2017 15:10 29,7 C 27,8 C 55 % 1010,9 hPa 0,0 l/m 4,9 km/h (1 Bft) N-NW 339 2 min 0,000 mm 4,7 UV-I 706 W/m 19,7 C 29,7 C 12,9 km/h (3 Bft) 97,87 %
04.08.2017 15:12 29,8 C 27,8 C 55 % 1010,9 hPa 0,0 l/m 4,8 km/h (1 Bft) NW 311 2 min 0,000 mm 4,6 UV-I 701 W/m 19,8 C 29,8 C 8,0 km/h (2 Bft) 97,87 %
04.08.2017 15:14 29,8 C 27,8 C 55 % 1010,9 hPa 0,0 l/m 7,3 km/h (2 Bft) NW 309 2 min 0,000 mm 4,6 UV-I 697 W/m 19,8 C 29,7 C 12,9 km/h (3 Bft) 94,00 %
04.08.2017 15:16 29,8 C 27,8 C 56 % 1010,9 hPa 0,0 l/m 3,5 km/h (1 Bft) W-NW 300 2 min 0,000 mm 4,5 UV-I 696 W/m 20,1 C 29,8 C 8,0 km/h (2 Bft) 95,74 %
04.08.2017 15:18 29,8 C 27,8 C 54 % 1010,9 hPa 0,0 l/m 4,4 km/h (1 Bft) NW 323 2 min 0,000 mm 4,5 UV-I 692 W/m 19,5 C 29,8 C 8,0 km/h (2 Bft) 95,74 %
04.08.2017 15:20 29,8 C 27,8 C 55 % 1011,0 hPa 0,0 l/m 5,9 km/h (2 Bft) NW 309 2 min 0,000 mm 4,4 UV-I 685 W/m 19,8 C 29,8 C 12,9 km/h (3 Bft) 93,62 %
04.08.2017 15:22 29,7 C 27,8 C 55 % 1011,0 hPa 0,0 l/m 2,9 km/h (1 Bft) N-NW 333 2 min 0,000 mm 4,3 UV-I 677 W/m 19,7 C 29,7 C 6,4 km/h (2 Bft) 95,74 %
04.08.2017 15:24 29,8 C 27,8 C 55 % 1010,9 hPa 0,0 l/m 2,1 km/h (1 Bft) N-NW 336 2 min 0,000 mm 4,3 UV-I 670 W/m 19,8 C 29,8 C 6,4 km/h (2 Bft) 95,74 %
04.08.2017 15:26 29,7 C 27,8 C 54 % 1010,9 hPa 0,0 l/m 2,4 km/h (1 Bft) N-NW 342 2 min 0,000 mm 4,3 UV-I 671 W/m 19,4 C 29,7 C 3,2 km/h (1 Bft) 93,62 %
04.08.2017 15:28 29,8 C 27,8 C 57 % 1010,9 hPa 0,0 l/m 1,6 km/h (1 Bft) N-NW 328 2 min 0,000 mm 4,3 UV-I 674 W/m 20,3 C 29,8 C 4,8 km/h (1 Bft) 92,68 %
04.08.2017 15:30 30,1 C 27,8 C 55 % 1010,9 hPa 0,0 l/m 5,3 km/h (1 Bft) NW 304 2 min 0,000 mm 4,2 UV-I 674 W/m 20,0 C 30,1 C 11,3 km/h (2 Bft) 85,11 %
04.08.2017 15:32 30,2 C 27,8 C 55 % 1011,0 hPa 0,0 l/m 5,6 km/h (1 Bft) W-SW 251 2 min 0,000 mm 4,2 UV-I 670 W/m 20,1 C 30,2 C 14,5 km/h (3 Bft) 97,87 %
04.08.2017 15:34 30,1 C 27,8 C 54 % 1010,9 hPa 0,0 l/m 9,6 km/h (2 Bft) W 281 2 min 0,000 mm 4,1 UV-I 668 W/m 19,7 C 29,8 C 16,1 km/h (3 Bft) 96,00 %
04.08.2017 15:36 30,0 C 27,8 C 54 % 1011,0 hPa 0,0 l/m 5,2 km/h (1 Bft) W-NW 298 2 min 0,000 mm 4,1 UV-I 666 W/m 19,7 C 30,0 C 11,3 km/h (2 Bft) 95,74 %
04.08.2017 15:38 29,9 C 27,8 C 55 % 1010,9 hPa 0,0 l/m 5,3 km/h (1 Bft) W 275 2 min 0,000 mm 4,0 UV-I 657 W/m 19,9 C 29,9 C 11,3 km/h (2 Bft) 95,74 %
04.08.2017 15:40 29,8 C 27,8 C 55 % 1010,9 hPa 0,0 l/m 2,8 km/h (1 Bft) W-SW 254 2 min 0,000 mm 4,0 UV-I 664 W/m 19,8 C 29,8 C 6,4 km/h (2 Bft) 94,87 %
04.08.2017 15:42 30,1 C 27,8 C 58 % 1010,9 hPa 0,0 l/m 0,6 km/h (0 Bft) S-SW 209 2 min 0,000 mm 4,0 UV-I 670 W/m 20,9 C 30,1 C 1,6 km/h (1 Bft) 96,00 %
04.08.2017 15:44 30,1 C 28,3 C 54 % 1010,9 hPa 0,0 l/m 1,8 km/h (1 Bft) NW 307 2 min 0,000 mm 3,8 UV-I 672 W/m 19,7 C 30,1 C 4,8 km/h (1 Bft) 98,00 %
04.08.2017 15:46 30,2 C 28,3 C 55 % 1010,8 hPa 0,0 l/m 3,3 km/h (1 Bft) N-NW 337 2 min 0,000 mm 3,9 UV-I 682 W/m 20,1 C 30,2 C 6,4 km/h (2 Bft) 95,74 %
04.08.2017 15:48 30,2 C 28,3 C 55 % 1010,9 hPa 0,0 l/m 3,0 km/h (1 Bft) N-NW 343 2 min 0,000 mm 3,9 UV-I 685 W/m 20,1 C 30,2 C 8,0 km/h (2 Bft) 93,62 %
04.08.2017 15:50 30,2 C 28,3 C 55 % 1010,9 hPa 0,0 l/m 4,4 km/h (1 Bft) W-NW 294 2 min 0,000 mm 3,8 UV-I 688 W/m 20,1 C 30,2 C 8,0 km/h (2 Bft) 95,74 %
04.08.2017 15:52 30,1 C 28,3 C 58 % 1010,8 hPa 0,0 l/m 2,4 km/h (1 Bft) NO 42 2 min 0,000 mm 3,7 UV-I 681 W/m 20,9 C 30,1 C 6,4 km/h (2 Bft) 95,74 %
04.08.2017 15:54 30,3 C 28,3 C 56 % 1010,8 hPa 0,0 l/m 4,6 km/h (1 Bft) N 5 2 min 0,000 mm 3,6 UV-I 636 W/m 20,5 C 30,3 C 17,7 km/h (3 Bft) 97,56 %
04.08.2017 15:56 30,3 C 28,3 C 55 % 1010,8 hPa 0,0 l/m 4,2 km/h (1 Bft) NO 36 2 min 0,000 mm 3,5 UV-I 668 W/m 20,2 C 30,3 C 8,0 km/h (2 Bft) 95,74 %
04.08.2017 15:58 30,4 C 28,3 C 55 % 1010,8 hPa 0,0 l/m 4,9 km/h (1 Bft) N-NW 336 2 min 0,000 mm 3,4 UV-I 646 W/m 20,3 C 30,4 C 8,0 km/h (2 Bft) 96,00 %
04.08.2017 16:00 30,4 C 28,3 C 56 % 1010,8 hPa 0,0 l/m 5,4 km/h (1 Bft) NO 47 2 min 0,483 mm 3,3 UV-I 664 W/m 20,6 C 30,4 C 12,9 km/h (3 Bft) 95,74 %
04.08.2017 16:02 30,5 C 28,3 C 56 % 1010,8 hPa 0,0 l/m 5,9 km/h (2 Bft) N 5 2 min 0,000 mm 3,3 UV-I 682 W/m 20,7 C 30,5 C 12,9 km/h (3 Bft) 95,74 %
04.08.2017 16:04 30,4 C 28,3 C 56 % 1010,8 hPa 0,0 l/m 4,4 km/h (1 Bft) W 268 2 min 0,000 mm 3,2 UV-I 710 W/m 20,6 C 30,4 C 8,0 km/h (2 Bft) 95,74 %
04.08.2017 16:06 30,3 C 28,3 C 56 % 1010,7 hPa 0,0 l/m 3,9 km/h (1 Bft) N 350 2 min 0,000 mm 3,2 UV-I 722 W/m 20,5 C 30,3 C 9,7 km/h (2 Bft) 97,87 %
04.08.2017 16:08 30,3 C 28,3 C 56 % 1010,8 hPa 0,0 l/m 6,3 km/h (2 Bft) N-NW 338 2 min 0,000 mm 2,8 UV-I 722 W/m 20,5 C 30,3 C 12,9 km/h (3 Bft) 97,87 %
04.08.2017 16:10 30,2 C 28,3 C 56 % 1010,7 hPa 0,0 l/m 5,4 km/h (1 Bft) NW 313 2 min 0,000 mm 3,2 UV-I 722 W/m 20,4 C 30,2 C 11,3 km/h (2 Bft) 95,74 %
04.08.2017 16:12 30,3 C 28,3 C 56 % 1010,8 hPa 0,0 l/m 4,3 km/h (1 Bft) N-NW 333 2 min 0,000 mm 2,8 UV-I 678 W/m 20,5 C 30,3 C 12,9 km/h (3 Bft) 93,62 %
04.08.2017 16:14 30,2 C 28,3 C 55 % 1010,7 hPa 0,0 l/m 7,5 km/h (2 Bft) N 10 2 min 0,000 mm 2,9 UV-I 394 W/m 20,1 C 30,1 C 14,5 km/h (3 Bft) 95,74 %
04.08.2017 16:16 30,1 C 28,3 C 55 % 1010,8 hPa 0,0 l/m 5,4 km/h (1 Bft) NW 315 2 min 0,000 mm 2,8 UV-I 385 W/m 20,0 C 30,1 C 16,1 km/h (3 Bft) 94,00 %
04.08.2017 16:19 29,9 C 28,3 C 56 % 1010,7 hPa 0,0 l/m 6,1 km/h (2 Bft) N-NO 22 3 min 0,000 mm 2,8 UV-I 570 W/m 20,1 C 29,9 C 16,1 km/h (3 Bft) 95,77 %
04.08.2017 16:20 29,9 C 28,3 C 55 % 1010,7 hPa 0,0 l/m 9,3 km/h (2 Bft) N 355 0 min 0,000 mm 2,1 UV-I 340 W/m 19,9 C 29,6 C 16,1 km/h (3 Bft) 95,83 %
04.08.2017 16:22 29,8 C 28,3 C 56 % 1010,7 hPa 0,0 l/m 5,6 km/h (1 Bft) W-NW 298 0 min 0,000 mm 2,0 UV-I 192 W/m 20,1 C 29,8 C 12,9 km/h (3 Bft) 93,62 %
04.08.2017 16:24 29,6 C 28,3 C 56 % 1010,8 hPa 0,0 l/m 3,2 km/h (1 Bft) NW 313 0 min 0,000 mm 2,2 UV-I 247 W/m 19,9 C 29,6 C 6,4 km/h (2 Bft) 95,74 %
04.08.2017 16:26 29,6 C 28,3 C 58 % 1010,7 hPa 0,0 l/m 4,7 km/h (1 Bft) N-NO 27 2 min 0,000 mm 2,8 UV-I 567 W/m 20,4 C 29,6 C 12,9 km/h (3 Bft) 97,30 %
04.08.2017 16:28 29,8 C 28,3 C 58 % 1010,7 hPa 0,0 l/m 4,3 km/h (1 Bft) W-NW 299 2 min 0,000 mm 3,0 UV-I 672 W/m 20,6 C 29,8 C 6,4 km/h (2 Bft) 100,00 %
04.08.2017 16:30 30,1 C 28,3 C 57 % 1010,7 hPa 0,0 l/m 1,9 km/h (1 Bft) N-NW 328 2 min 0,000 mm 2,8 UV-I 678 W/m 20,6 C 30,1 C 4,8 km/h (1 Bft) 95,74 %
04.08.2017 16:32 30,4 C 28,3 C 55 % 1010,8 hPa 0,0 l/m 6,2 km/h (2 Bft) W 280 2 min 0,000 mm 2,8 UV-I 666 W/m 20,3 C 30,4 C 20,9 km/h (4 Bft) 100,00 %
04.08.2017 16:34 30,6 C 28,3 C 54 % 1010,7 hPa 0,0 l/m 5,4 km/h (1 Bft) W-NW 288 2 min 0,000 mm 2,7 UV-I 637 W/m 20,2 C 30,6 C 14,5 km/h (3 Bft) 100,00 %
04.08.2017 16:36 30,7 C 28,3 C 53 % 1010,7 hPa 0,0 l/m 4,4 km/h (1 Bft) N 355 2 min 0,000 mm 2,6 UV-I 600 W/m 20,0 C 30,7 C 11,3 km/h (2 Bft) 100,00 %
04.08.2017 16:39 30,8 C 28,3 C 52 % 1010,8 hPa 0,0 l/m 3,6 km/h (1 Bft) W-NW 288 3 min 0,000 mm 2,6 UV-I 565 W/m 19,8 C 30,8 C 14,5 km/h (3 Bft) 100,00 %
04.08.2017 16:40 30,7 C 28,3 C 53 % 1010,8 hPa 0,0 l/m 4,0 km/h (1 Bft) W 277 1 min 0,000 mm 2,4 UV-I 555 W/m 20,0 C 30,7 C 6,4 km/h (2 Bft) 95,65 %
04.08.2017 16:42 30,6 C 28,3 C 53 % 1010,8 hPa 0,0 l/m 6,6 km/h (2 Bft) N-NO 29 2 min 0,000 mm 2,3 UV-I 560 W/m 19,9 C 30,6 C 14,5 km/h (3 Bft) 97,87 %
04.08.2017 16:44 30,4 C 28,3 C 53 % 1010,8 hPa 0,0 l/m 4,0 km/h (1 Bft) S-SW 208 2 min 0,000 mm 2,1 UV-I 580 W/m 19,7 C 30,4 C 9,7 km/h (2 Bft) 100,00 %
04.08.2017 16:46 30,2 C 28,3 C 54 % 1010,9 hPa 0,0 l/m 4,2 km/h (1 Bft) SW 223 0 min 0,000 mm 2,0 UV-I 291 W/m 19,8 C 30,2 C 9,7 km/h (2 Bft) 98,00 %
04.08.2017 16:48 29,9 C 28,3 C 55 % 1010,8 hPa 0,0 l/m 3,9 km/h (1 Bft) SW 220 2 min 0,000 mm 2,1 UV-I 455 W/m 19,9 C 29,9 C 11,3 km/h (2 Bft) 98,00 %
04.08.2017 16:50 29,8 C 28,3 C 56 % 1010,8 hPa 0,0 l/m 3,4 km/h (1 Bft) W 264 2 min 0,000 mm 2,2 UV-I 471 W/m 20,1 C 29,8 C 8,0 km/h (2 Bft) 100,00 %
04.08.2017 16:52 29,8 C 28,3 C 55 % 1010,9 hPa 0,0 l/m 4,5 km/h (1 Bft) W 279 2 min 0,000 mm 2,2 UV-I 466 W/m 19,8 C 29,8 C 9,7 km/h (2 Bft) 100,00 %
04.08.2017 16:54 29,7 C 28,3 C 56 % 1010,9 hPa 0,0 l/m 3,4 km/h (1 Bft) N 355 2 min 0,000 mm 1,9 UV-I 316 W/m 20,0 C 29,7 C 6,4 km/h (2 Bft) 95,74 %
04.08.2017 16:56 29,6 C 28,3 C 55 % 1010,8 hPa 0,0 l/m 3,1 km/h (1 Bft) N 11 2 min 0,000 mm 2,0 UV-I 330 W/m 19,6 C 29,6 C 8,0 km/h (2 Bft) 100,00 %
04.08.2017 16:58 29,7 C 28,3 C 56 % 1010,8 hPa 0,0 l/m 4,3 km/h (1 Bft) N-NW 337 2 min 0,000 mm 1,9 UV-I 385 W/m 20,0 C 29,7 C 12,9 km/h (3 Bft) 100,00 %
04.08.2017 17:00 29,6 C 28,3 C 56 % 1010,8 hPa 0,0 l/m 5,8 km/h (2 Bft) W-NW 293 0 min 0,000 mm 1,6 UV-I 197 W/m 19,9 C 29,6 C 12,9 km/h (3 Bft) 97,87 %
04.08.2017 17:02 29,4 C 28,3 C 57 % 1010,9 hPa 0,0 l/m 4,5 km/h (1 Bft) N-NO 27 0 min 0,355 mm 1,6 UV-I 202 W/m 20,0 C 29,4 C 9,7 km/h (2 Bft) 97,87 %
04.08.2017 17:04 29,3 C 28,3 C 57 % 1010,9 hPa 0,0 l/m 4,7 km/h (1 Bft) N-NO 18 0 min 0,000 mm 1,6 UV-I 226 W/m 19,9 C 29,3 C 14,5 km/h (3 Bft) 97,87 %
04.08.2017 17:06 29,3 C 28,3 C 57 % 1010,9 hPa 0,0 l/m 3,9 km/h (1 Bft) NO 39 2 min 0,000 mm 1,9 UV-I 335 W/m 19,9 C 29,3 C 8,0 km/h (2 Bft) 97,87 %
04.08.2017 17:08 29,3 C 28,3 C 57 % 1010,8 hPa 0,0 l/m 4,8 km/h (1 Bft) N-NO 26 2 min 0,000 mm 1,9 UV-I 483 W/m 19,9 C 29,3 C 8,0 km/h (2 Bft) 95,74 %
04.08.2017 17:10 29,4 C 28,3 C 57 % 1010,8 hPa 0,0 l/m 4,1 km/h (1 Bft) N 5 2 min 0,000 mm 1,9 UV-I 476 W/m 20,0 C 29,4 C 9,7 km/h (2 Bft) 100,00 %
04.08.2017 17:12 29,6 C 28,3 C 57 % 1010,8 hPa 0,0 l/m 4,0 km/h (1 Bft) N-NW 342 2 min 0,000 mm 1,8 UV-I 461 W/m 20,2 C 29,6 C 8,0 km/h (2 Bft) 97,87 %
04.08.2017 17:14 29,6 C 28,3 C 58 % 1010,9 hPa 0,0 l/m 4,9 km/h (1 Bft) NW 309 2 min 0,000 mm 1,8 UV-I 459 W/m 20,4 C 29,6 C 9,7 km/h (2 Bft) 91,49 %
04.08.2017 17:16 29,6 C 28,3 C 57 % 1010,9 hPa 0,0 l/m 7,9 km/h (2 Bft) NW 323 2 min 0,000 mm 1,7 UV-I 454 W/m 20,2 C 29,4 C 16,1 km/h (3 Bft) 97,87 %
04.08.2017 17:18 29,5 C 28,3 C 57 % 1010,9 hPa 0,0 l/m 6,5 km/h (2 Bft) W-SW 252 2 min 0,000 mm 1,7 UV-I 441 W/m 20,1 C 29,5 C 12,9 km/h (3 Bft) 93,62 %
04.08.2017 17:20 29,5 C 28,3 C 58 % 1010,9 hPa 0,0 l/m 6,5 km/h (2 Bft) NW 319 2 min 0,000 mm 1,6 UV-I 446 W/m 20,3 C 29,5 C 14,5 km/h (3 Bft) 93,62 %
04.08.2017 17:22 29,6 C 28,3 C 58 % 1010,9 hPa 0,0 l/m 7,0 km/h (2 Bft) W-NW 288 2 min 0,000 mm 1,6 UV-I 441 W/m 20,4 C 29,5 C 17,7 km/h (3 Bft) 93,62 %
04.08.2017 17:24 29,6 C 28,3 C 58 % 1010,8 hPa 0,0 l/m 7,4 km/h (2 Bft) NW 309 2 min 0,000 mm 1,5 UV-I 428 W/m 20,4 C 29,5 C 24,1 km/h (4 Bft) 96,00 %
04.08.2017 17:26 29,7 C 28,3 C 57 % 1010,7 hPa 0,0 l/m 7,5 km/h (2 Bft) NO 41 2 min 0,000 mm 1,5 UV-I 427 W/m 20,2 C 29,6 C 14,5 km/h (3 Bft) 93,62 %
04.08.2017 17:28 29,6 C 28,3 C 57 % 1010,7 hPa 0,0 l/m 8,9 km/h (2 Bft) N-NW 328 2 min 0,000 mm 1,5 UV-I 419 W/m 20,2 C 29,3 C 19,3 km/h (3 Bft) 95,74 %
04.08.2017 17:30 29,5 C 28,3 C 58 % 1010,7 hPa 0,0 l/m 6,4 km/h (2 Bft) O-NO 66 2 min 0,000 mm 1,3 UV-I 389 W/m 20,3 C 29,5 C 12,9 km/h (3 Bft) 97,87 %
04.08.2017 17:32 29,6 C 28,3 C 58 % 1010,7 hPa 0,0 l/m 3,1 km/h (1 Bft) N-NW 347 2 min 0,000 mm 1,3 UV-I 381 W/m 20,4 C 29,6 C 6,4 km/h (2 Bft) 97,87 %
04.08.2017 17:34 29,7 C 28,3 C 58 % 1010,7 hPa 0,0 l/m 5,2 km/h (1 Bft) W-NW 288 2 min 0,000 mm 1,3 UV-I 401 W/m 20,5 C 29,7 C 16,1 km/h (3 Bft) 100,00 %
04.08.2017 17:36 29,7 C 28,3 C 57 % 1010,6 hPa 0,0 l/m 2,5 km/h (1 Bft) W 281 2 min 0,000 mm 1,3 UV-I 402 W/m 20,2 C 29,7 C 11,3 km/h (2 Bft) 91,49 %
04.08.2017 17:38 29,7 C 28,3 C 58 % 1010,6 hPa 0,0 l/m 6,4 km/h (2 Bft) W-NW 282 2 min 0,000 mm 1,2 UV-I 322 W/m 20,5 C 29,7 C 12,9 km/h (3 Bft) 97,37 %
04.08.2017 17:40 29,6 C 28,3 C 58 % 1010,6 hPa 0,0 l/m 2,4 km/h (1 Bft) N 9 2 min 0,000 mm 1,2 UV-I 330 W/m 20,4 C 29,6 C 6,4 km/h (2 Bft) 96,00 %
04.08.2017 17:42 29,7 C 28,3 C 58 % 1010,5 hPa 0,0 l/m 2,0 km/h (1 Bft) W 273 2 min 0,000 mm 1,2 UV-I 380 W/m 20,5 C 29,7 C 4,8 km/h (1 Bft) 95,74 %
04.08.2017 17:44 29,7 C 28,3 C 58 % 1010,5 hPa 0,0 l/m 1,8 km/h (1 Bft) N 11 2 min 0,000 mm 1,2 UV-I 365 W/m 20,5 C 29,7 C 3,2 km/h (1 Bft) 93,62 %
04.08.2017 17:46 29,7 C 28,3 C 57 % 1010,5 hPa 0,0 l/m 4,7 km/h (1 Bft) N-NW 331 2 min 0,000 mm 1,1 UV-I 340 W/m 20,2 C 29,7 C 9,7 km/h (2 Bft) 89,36 %
04.08.2017 17:48 29,6 C 28,3 C 58 % 1010,5 hPa 0,0 l/m 4,7 km/h (1 Bft) NW 307 2 min 0,000 mm 1,1 UV-I 336 W/m 20,4 C 29,6 C 9,7 km/h (2 Bft) 93,62 %
04.08.2017 17:50 29,6 C 28,3 C 58 % 1010,4 hPa 0,0 l/m 3,1 km/h (1 Bft) N-NW 338 2 min 0,000 mm 1,1 UV-I 335 W/m 20,4 C 29,6 C 9,7 km/h (2 Bft) 97,87 %
04.08.2017 17:52 29,6 C 28,3 C 58 % 1010,5 hPa 0,0 l/m 4,8 km/h (1 Bft) W-SW 251 2 min 0,000 mm 1,1 UV-I 335 W/m 20,4 C 29,6 C 9,7 km/h (2 Bft) 95,12 %
04.08.2017 17:54 29,6 C 28,3 C 59 % 1010,4 hPa 0,0 l/m 4,2 km/h (1 Bft) S-SO 147 2 min 0,000 mm 1,0 UV-I 344 W/m 20,7 C 29,6 C 8,0 km/h (2 Bft) 92,00 %
04.08.2017 17:56 29,6 C 28,3 C 58 % 1010,4 hPa 0,0 l/m 4,9 km/h (1 Bft) N 5 2 min 0,000 mm 1,0 UV-I 339 W/m 20,4 C 29,6 C 14,5 km/h (3 Bft) 93,62 %
04.08.2017 17:58 29,7 C 28,3 C 58 % 1010,3 hPa 0,0 l/m 2,1 km/h (1 Bft) W-NW 282 2 min 0,000 mm 1,0 UV-I 305 W/m 20,5 C 29,7 C 6,4 km/h (2 Bft) 98,00 %
04.08.2017 18:00 29,8 C 28,3 C 57 % 1010,3 hPa 0,0 l/m 4,8 km/h (1 Bft) N 5 2 min 0,280 mm 1,0 UV-I 288 W/m 20,3 C 29,8 C 9,7 km/h (2 Bft) 89,36 %
04.08.2017 18:02 29,8 C 28,3 C 57 % 1010,4 hPa 0,0 l/m 2,9 km/h (1 Bft) N-NW 337 2 min 0,000 mm 0,9 UV-I 288 W/m 20,3 C 29,8 C 6,4 km/h (2 Bft) 93,62 %
04.08.2017 18:04 29,7 C 28,3 C 58 % 1010,4 hPa 0,0 l/m 2,3 km/h (1 Bft) W-SW 252 2 min 0,000 mm 0,9 UV-I 293 W/m 20,5 C 29,7 C 6,4 km/h (2 Bft) 97,87 %
04.08.2017 18:06 29,7 C 28,3 C 57 % 1010,4 hPa 0,0 l/m 4,4 km/h (1 Bft) NW 312 2 min 0,000 mm 0,8 UV-I 296 W/m 20,2 C 29,7 C 6,4 km/h (2 Bft) 96,00 %
04.08.2017 18:08 29,7 C 28,3 C 58 % 1010,4 hPa 0,0 l/m 3,8 km/h (1 Bft) W 261 2 min 0,000 mm 0,8 UV-I 292 W/m 20,5 C 29,7 C 9,7 km/h (2 Bft) 95,74 %
04.08.2017 18:10 29,7 C 28,3 C 58 % 1010,4 hPa 0,0 l/m 3,0 km/h (1 Bft) N-NW 342 2 min 0,000 mm 0,7 UV-I 300 W/m 20,5 C 29,7 C 8,0 km/h (2 Bft) 97,87 %
04.08.2017 18:12 29,7 C 28,3 C 58 % 1010,3 hPa 0,0 l/m 2,2 km/h (1 Bft) NW 325 2 min 0,000 mm 0,7 UV-I 313 W/m 20,5 C 29,7 C 4,8 km/h (1 Bft) 95,74 %
04.08.2017 18:14 29,8 C 28,3 C 57 % 1010,3 hPa 0,0 l/m 3,9 km/h (1 Bft) NW 320 2 min 0,000 mm 0,7 UV-I 313 W/m 20,3 C 29,8 C 11,3 km/h (2 Bft) 93,75 %
04.08.2017 18:16 29,7 C 28,3 C 58 % 1010,4 hPa 0,0 l/m 3,4 km/h (1 Bft) NW 309 2 min 0,000 mm 0,7 UV-I 303 W/m 20,5 C 29,7 C 9,7 km/h (2 Bft) 95,74 %
04.08.2017 18:18 29,7 C 28,3 C 58 % 1010,5 hPa 0,0 l/m 2,5 km/h (1 Bft) W-NW 294 2 min 0,000 mm 0,6 UV-I 256 W/m 20,5 C 29,7 C 6,4 km/h (2 Bft) 94,74 %
04.08.2017 18:20 29,6 C 28,3 C 58 % 1010,5 hPa 0,0 l/m 3,9 km/h (1 Bft) NW 323 2 min 0,000 mm 0,6 UV-I 214 W/m 20,4 C 29,6 C 9,7 km/h (2 Bft) 95,74 %
04.08.2017 18:22 29,5 C 28,3 C 58 % 1010,5 hPa 0,0 l/m 1,2 km/h (1 Bft) W-NW 300 0 min 0,000 mm 0,5 UV-I 184 W/m 20,3 C 29,5 C 3,2 km/h (1 Bft) 95,74 %
04.08.2017 18:24 29,4 C 28,3 C 59 % 1010,4 hPa 0,0 l/m 1,9 km/h (1 Bft) N-NO 32 0 min 0,000 mm 0,5 UV-I 178 W/m 20,5 C 29,4 C 4,8 km/h (1 Bft) 95,74 %
04.08.2017 18:26 29,3 C 28,3 C 60 % 1010,5 hPa 0,0 l/m 3,3 km/h (1 Bft) SW 215 0 min 0,000 mm 0,5 UV-I 149 W/m 20,7 C 29,3 C 8,0 km/h (2 Bft) 91,49 %
04.08.2017 18:28 29,3 C 28,3 C 61 % 1010,5 hPa 0,0 l/m 3,4 km/h (1 Bft) NW 315 2 min 0,000 mm 0,5 UV-I 210 W/m 21,0 C 29,3 C 6,4 km/h (2 Bft) 95,74 %
04.08.2017 18:30 29,2 C 28,3 C 60 % 1010,5 hPa 0,0 l/m 2,0 km/h (1 Bft) NW 313 2 min 0,000 mm 0,5 UV-I 248 W/m 20,6 C 29,2 C 4,8 km/h (1 Bft) 97,87 %
04.08.2017 18:32 29,3 C 28,3 C 60 % 1010,4 hPa 0,0 l/m 2,0 km/h (1 Bft) N-NW 344 2 min 0,000 mm 0,5 UV-I 244 W/m 20,7 C 29,3 C 4,8 km/h (1 Bft) 95,74 %
04.08.2017 18:34 29,3 C 28,3 C 60 % 1010,5 hPa 0,0 l/m 1,9 km/h (1 Bft) N-NW 332 2 min 0,000 mm 0,5 UV-I 248 W/m 20,7 C 29,3 C 3,2 km/h (1 Bft) 97,87 %
04.08.2017 18:36 29,4 C 28,3 C 60 % 1010,5 hPa 0,0 l/m 2,3 km/h (1 Bft) N-NO 28 2 min 0,000 mm 0,5 UV-I 240 W/m 20,8 C 29,4 C 4,8 km/h (1 Bft) 97,87 %
04.08.2017 18:38 29,4 C 28,3 C 60 % 1010,4 hPa 0,0 l/m 1,7 km/h (1 Bft) N 360 2 min 0,000 mm 0,5 UV-I 215 W/m 20,8 C 29,4 C 3,2 km/h (1 Bft) 98,00 %
04.08.2017 18:40 29,4 C 28,3 C 60 % 1010,3 hPa 0,0 l/m 3,2 km/h (1 Bft) W-NW 283 2 min 0,000 mm 0,5 UV-I 189 W/m 20,8 C 29,4 C 11,3 km/h (2 Bft) 93,62 %
04.08.2017 18:42 29,4 C 28,3 C 60 % 1010,3 hPa 0,0 l/m 4,2 km/h (1 Bft) W 273 2 min 0,000 mm 0,5 UV-I 195 W/m 20,8 C 29,4 C 9,7 km/h (2 Bft) 97,87 %
04.08.2017 18:44 29,4 C 28,3 C 60 % 1010,3 hPa 0,0 l/m 3,5 km/h (1 Bft) W 259 2 min 0,000 mm 0,3 UV-I 197 W/m 20,8 C 29,4 C 11,3 km/h (2 Bft) 95,74 %
04.08.2017 18:46 29,4 C 28,3 C 61 % 1010,3 hPa 0,0 l/m 4,4 km/h (1 Bft) W 259 2 min 0,000 mm 0,0 UV-I 195 W/m 21,1 C 29,4 C 12,9 km/h (3 Bft) 98,00 %
04.08.2017 18:48 29,3 C 28,3 C 60 % 1010,3 hPa 0,0 l/m 5,3 km/h (1 Bft) NW 319 2 min 0,000 mm 0,0 UV-I 187 W/m 20,7 C 29,3 C 14,5 km/h (3 Bft) 97,87 %
04.08.2017 18:50 29,3 C 28,3 C 59 % 1010,4 hPa 0,0 l/m 3,6 km/h (1 Bft) W-NW 300 0 min 0,000 mm 0,0 UV-I 147 W/m 20,4 C 29,3 C 6,4 km/h (2 Bft) 91,49 %
04.08.2017 18:52 29,2 C 28,3 C 59 % 1010,4 hPa 0,0 l/m 7,6 km/h (2 Bft) W-SW 241 0 min 0,000 mm 0,0 UV-I 133 W/m 20,3 C 29,1 C 16,1 km/h (3 Bft) 97,87 %
04.08.2017 18:54 29,1 C 28,3 C 61 % 1010,5 hPa 0,0 l/m 4,9 km/h (1 Bft) W-SW 257 0 min 0,000 mm 0,0 UV-I 102 W/m 20,8 C 29,1 C 6,4 km/h (2 Bft) 95,65 %
04.08.2017 18:56 28,9 C 28,3 C 61 % 1010,7 hPa 0,0 l/m 5,2 km/h (1 Bft) W 280 0 min 0,000 mm 0,0 UV-I 113 W/m 20,6 C 28,9 C 6,4 km/h (2 Bft) 89,58 %
04.08.2017 18:58 28,9 C 28,3 C 61 % 1010,9 hPa 0,0 l/m 2,1 km/h (1 Bft) W-SW 248 0 min 0,000 mm 0,0 UV-I 110 W/m 20,6 C 28,9 C 6,4 km/h (2 Bft) 97,87 %
04.08.2017 19:00 28,8 C 28,3 C 61 % 1010,9 hPa 0,0 l/m 1,2 km/h (1 Bft) W-SW 257 0 min 0,000 mm 0,0 UV-I 89 W/m 20,5 C 28,8 C 3,2 km/h (1 Bft) 97,87 %
04.08.2017 19:02 28,8 C 28,3 C 61 % 1010,9 hPa 0,0 l/m 3,8 km/h (1 Bft) N-NW 346 0 min 0,178 mm 0,0 UV-I 79 W/m 20,5 C 28,8 C 9,7 km/h (2 Bft) 100,00 %
04.08.2017 19:04 28,7 C 28,3 C 62 % 1011,0 hPa 0,0 l/m 4,2 km/h (1 Bft) SW 236 0 min 0,000 mm 0,0 UV-I 74 W/m 20,7 C 28,7 C 11,3 km/h (2 Bft) 91,49 %
04.08.2017 19:06 28,6 C 28,3 C 62 % 1011,0 hPa 0,0 l/m 1,4 km/h (1 Bft) N-NW 327 0 min 0,000 mm 0,0 UV-I 70 W/m 20,6 C 28,6 C 4,8 km/h (1 Bft) 97,87 %
04.08.2017 19:08 28,5 C 28,3 C 63 % 1011,0 hPa 0,0 l/m 1,5 km/h (1 Bft) NW 314 0 min 0,000 mm 0,0 UV-I 74 W/m 20,8 C 28,5 C 3,2 km/h (1 Bft) 95,92 %
04.08.2017 19:10 28,4 C 28,3 C 63 % 1011,1 hPa 0,0 l/m 2,5 km/h (1 Bft) W-NW 302 0 min 0,000 mm 0,0 UV-I 82 W/m 20,7 C 28,4 C 8,0 km/h (2 Bft) 97,87 %
04.08.2017 19:12 28,4 C 28,3 C 64 % 1011,1 hPa 0,0 l/m 1,0 km/h (0 Bft) W-NW 302 0 min 0,000 mm 0,0 UV-I 98 W/m 20,9 C 28,4 C 3,2 km/h (1 Bft) 100,00 %
04.08.2017 19:14 28,4 C 28,3 C 63 % 1011,1 hPa 0,0 l/m 1,4 km/h (1 Bft) N-NW 331 2 min 0,000 mm 0,0 UV-I 112 W/m 20,7 C 28,4 C 3,2 km/h (1 Bft) 95,74 %
04.08.2017 19:16 28,4 C 28,3 C 63 % 1011,1 hPa 0,0 l/m 3,4 km/h (1 Bft) W 273 2 min 0,000 mm 0,0 UV-I 134 W/m 20,7 C 28,4 C 4,8 km/h (1 Bft) 98,00 %
04.08.2017 19:18 28,4 C 28,3 C 62 % 1011,2 hPa 0,0 l/m 3,0 km/h (1 Bft) W-SW 252 2 min 0,000 mm 0,0 UV-I 140 W/m 20,4 C 28,4 C 6,4 km/h (2 Bft) 95,92 %
04.08.2017 19:20 28,5 C 28,3 C 63 % 1011,2 hPa 0,0 l/m 2,6 km/h (1 Bft) SW 229 2 min 0,000 mm 0,0 UV-I 146 W/m 20,8 C 28,5 C 8,0 km/h (2 Bft) 97,87 %
04.08.2017 19:22 28,5 C 28,3 C 62 % 1011,2 hPa 0,0 l/m 4,1 km/h (1 Bft) W-NW 294 2 min 0,000 mm 0,0 UV-I 147 W/m 20,5 C 28,5 C 8,0 km/h (2 Bft) 97,87 %
04.08.2017 19:24 28,6 C 28,3 C 62 % 1011,2 hPa 0,0 l/m 4,3 km/h (1 Bft) SW 230 2 min 0,000 mm 0,0 UV-I 141 W/m 20,6 C 28,6 C 11,3 km/h (2 Bft) 94,29 %
04.08.2017 19:26 28,6 C 28,3 C 62 % 1011,2 hPa 0,0 l/m 3,1 km/h (1 Bft) NW 311 2 min 0,000 mm 0,0 UV-I 137 W/m 20,6 C 28,6 C 4,8 km/h (1 Bft) 95,83 %
04.08.2017 19:28 28,6 C 28,3 C 62 % 1011,1 hPa 0,0 l/m 0,7 km/h (0 Bft) NW 325 2 min 0,000 mm 0,0 UV-I 133 W/m 20,6 C 28,6 C 3,2 km/h (1 Bft) 95,92 %
04.08.2017 19:30 28,6 C 28,3 C 62 % 1011,0 hPa 0,0 l/m 3,7 km/h (1 Bft) W-NW 298 2 min 0,000 mm 0,0 UV-I 127 W/m 20,6 C 28,6 C 8,0 km/h (2 Bft) 97,87 %
04.08.2017 19:32 28,6 C 28,3 C 61 % 1011,0 hPa 0,0 l/m 5,2 km/h (1 Bft) W 281 2 min 0,000 mm 0,0 UV-I 121 W/m 20,3 C 28,6 C 11,3 km/h (2 Bft) 96,00 %
04.08.2017 19:34 28,5 C 28,3 C 62 % 1011,0 hPa 0,0 l/m 4,0 km/h (1 Bft) W-NW 286 2 min 0,000 mm 0,0 UV-I 116 W/m 20,5 C 28,5 C 6,4 km/h (2 Bft) 96,00 %
04.08.2017 19:36 28,5 C 28,3 C 62 % 1011,0 hPa 0,0 l/m 2,7 km/h (1 Bft) W-NW 290 2 min 0,000 mm 0,0 UV-I 115 W/m 20,5 C 28,5 C 4,8 km/h (1 Bft) 91,49 %
04.08.2017 19:38 28,5 C 28,3 C 63 % 1011,0 hPa 0,0 l/m 1,3 km/h (1 Bft) W-NW 290 2 min 0,000 mm 0,0 UV-I 103 W/m 20,8 C 28,5 C 3,2 km/h (1 Bft) 97,87 %
04.08.2017 19:40 28,4 C 28,3 C 62 % 1011,0 hPa 0,0 l/m 2,8 km/h (1 Bft) W-NW 294 2 min 0,000 mm 0,0 UV-I 105 W/m 20,4 C 28,4 C 6,4 km/h (2 Bft) 94,74 %
04.08.2017 19:42 28,3 C 28,3 C 62 % 1011,0 hPa 0,0 l/m 3,6 km/h (1 Bft) W-NW 284 2 min 0,000 mm 0,0 UV-I 102 W/m 20,3 C 28,3 C 4,8 km/h (1 Bft) 91,49 %
04.08.2017 19:44 28,3 C 28,3 C 62 % 1011,1 hPa 0,0 l/m 4,1 km/h (1 Bft) W 261 2 min 0,000 mm 0,0 UV-I 96 W/m 20,3 C 28,3 C 6,4 km/h (2 Bft) 93,62 %
04.08.2017 19:46 28,3 C 28,3 C 63 % 1011,1 hPa 0,0 l/m 2,1 km/h (1 Bft) W-SW 254 2 min 0,000 mm 0,0 UV-I 92 W/m 20,6 C 28,3 C 4,8 km/h (1 Bft) 97,87 %
04.08.2017 19:48 28,3 C 28,3 C 63 % 1011,2 hPa 0,0 l/m 1,9 km/h (1 Bft) W-SW 254 2 min 0,000 mm 0,0 UV-I 86 W/m 20,6 C 28,3 C 4,8 km/h (1 Bft) 100,00 %
04.08.2017 19:50 28,2 C 28,3 C 63 % 1011,2 hPa 0,0 l/m 1,1 km/h (1 Bft) W-SW 254 2 min 0,000 mm 0,0 UV-I 80 W/m 20,5 C 28,2 C 3,2 km/h (1 Bft) 91,49 %
04.08.2017 19:52 28,2 C 28,3 C 64 % 1011,2 hPa 0,0 l/m 1,9 km/h (1 Bft) W-SW 254 2 min 0,000 mm 0,0 UV-I 86 W/m 20,7 C 28,2 C 4,8 km/h (1 Bft) 91,49 %
04.08.2017 19:54 28,1 C 28,3 C 64 % 1011,2 hPa 0,0 l/m 1,7 km/h (1 Bft) W-SW 254 2 min 0,000 mm 0,0 UV-I 102 W/m 20,6 C 28,1 C 4,8 km/h (1 Bft) 97,87 %
04.08.2017 19:56 28,1 C 28,3 C 64 % 1011,3 hPa 0,0 l/m 1,2 km/h (1 Bft) W-SW 254 2 min 0,000 mm 0,0 UV-I 116 W/m 20,6 C 28,1 C 3,2 km/h (1 Bft) 94,00 %
04.08.2017 19:58 28,1 C 28,3 C 64 % 1011,4 hPa 0,0 l/m 2,3 km/h (1 Bft) W 270 2 min 0,000 mm 0,0 UV-I 88 W/m 20,6 C 28,1 C 6,4 km/h (2 Bft) 95,74 %
04.08.2017 20:00 28,1 C 28,3 C 64 % 1011,4 hPa 0,0 l/m 2,6 km/h (1 Bft) W 263 2 min 0,101 mm 0,0 UV-I 82 W/m 20,6 C 28,1 C 6,4 km/h (2 Bft) 91,49 %
04.08.2017 20:02 28,0 C 28,3 C 64 % 1011,4 hPa 0,0 l/m 5,0 km/h (1 Bft) W-SW 257 2 min 0,000 mm 0,0 UV-I 77 W/m 20,5 C 28,0 C 9,7 km/h (2 Bft) 93,62 %
04.08.2017 20:04 28,0 C 28,3 C 65 % 1011,5 hPa 0,0 l/m 1,3 km/h (1 Bft) W-SW 257 2 min 0,000 mm 0,0 UV-I 71 W/m 20,8 C 28,0 C 4,8 km/h (1 Bft) 100,00 %
04.08.2017 20:06 27,9 C 28,3 C 64 % 1011,5 hPa 0,0 l/m 2,6 km/h (1 Bft) W 270 2 min 0,000 mm 0,0 UV-I 65 W/m 20,4 C 27,9 C 8,0 km/h (2 Bft) 95,74 %
04.08.2017 20:08 27,9 C 28,3 C 65 % 1011,6 hPa 0,0 l/m 0,8 km/h (0 Bft) W 270 2 min 0,000 mm 0,0 UV-I 60 W/m 20,7 C 27,9 C 3,2 km/h (1 Bft) 88,89 %
04.08.2017 20:10 27,8 C 28,3 C 64 % 1011,6 hPa 0,0 l/m 0,2 km/h (0 Bft) W 270 2 min 0,000 mm 0,0 UV-I 54 W/m 20,3 C 27,8 C 1,6 km/h (1 Bft) 98,00 %
04.08.2017 20:12 27,7 C 28,3 C 64 % 1011,6 hPa 0,0 l/m 3,1 km/h (1 Bft) W-NW 288 2 min 0,000 mm 0,0 UV-I 48 W/m 20,3 C 27,7 C 6,4 km/h (2 Bft) 97,87 %
04.08.2017 20:14 27,7 C 28,3 C 64 % 1011,7 hPa 0,0 l/m 1,5 km/h (1 Bft) NW 313 2 min 0,000 mm 0,0 UV-I 43 W/m 20,3 C 27,7 C 4,8 km/h (1 Bft) 100,00 %
04.08.2017 20:16 27,7 C 28,3 C 64 % 1011,7 hPa 0,0 l/m 1,0 km/h (0 Bft) NW 313 2 min 0,000 mm 0,0 UV-I 37 W/m 20,3 C 27,7 C 4,8 km/h (1 Bft) 92,00 %
04.08.2017 20:18 27,6 C 28,3 C 64 % 1011,7 hPa 0,0 l/m 3,1 km/h (1 Bft) W-NW 302 2 min 0,000 mm 0,0 UV-I 32 W/m 20,2 C 27,6 C 9,7 km/h (2 Bft) 95,74 %
04.08.2017 20:20 27,6 C 28,3 C 65 % 1011,7 hPa 0,0 l/m 1,1 km/h (1 Bft) W-NW 290 2 min 0,000 mm 0,0 UV-I 26 W/m 20,4 C 27,6 C 6,4 km/h (2 Bft) 95,74 %
04.08.2017 20:22 27,6 C 28,3 C 65 % 1011,8 hPa 0,0 l/m 0,6 km/h (0 Bft) W-NW 290 2 min 0,000 mm 0,0 UV-I 21 W/m 20,4 C 27,6 C 3,2 km/h (1 Bft) 97,87 %
04.08.2017 20:24 27,5 C 28,3 C 65 % 1011,8 hPa 0,0 l/m 0,9 km/h (0 Bft) W-NW 290 2 min 0,000 mm 0,0 UV-I 15 W/m 20,3 C 27,5 C 1,6 km/h (1 Bft) 94,00 %
04.08.2017 20:26 27,4 C 28,3 C 64 % 1011,8 hPa 0,0 l/m 2,6 km/h (1 Bft) W-NW 290 0 min 0,000 mm 0,0 UV-I 10 W/m 20,0 C 27,4 C 4,8 km/h (1 Bft) 93,62 %
04.08.2017 20:28 27,4 C 28,3 C 65 % 1011,8 hPa 0,0 l/m 0,9 km/h (0 Bft) W-NW 291 0 min 0,000 mm 0,0 UV-I 4 W/m 20,2 C 27,4 C 3,2 km/h (1 Bft) 100,00 %
04.08.2017 20:30 27,3 C 28,3 C 65 % 1011,9 hPa 0,0 l/m 1,4 km/h (1 Bft) W-NW 291 0 min 0,000 mm 0,0 UV-I 41 W/m 20,1 C 27,3 C 3,2 km/h (1 Bft) 95,74 %
04.08.2017 20:32 27,3 C 28,3 C 65 % 1011,9 hPa 0,0 l/m 0,7 km/h (0 Bft) W-NW 291 0 min 0,000 mm 0,0 UV-I 37 W/m 20,1 C 27,3 C 3,2 km/h (1 Bft) 93,62 %
04.08.2017 20:34 27,2 C 28,3 C 64 % 1012,0 hPa 0,0 l/m 1,5 km/h (1 Bft) W-NW 292 0 min 0,000 mm 0,0 UV-I 33 W/m 19,8 C 27,2 C 4,8 km/h (1 Bft) 93,62 %
04.08.2017 20:36 27,2 C 28,3 C 64 % 1012,1 hPa 0,0 l/m 3,1 km/h (1 Bft) W 275 0 min 0,000 mm 0,0 UV-I 29 W/m 19,8 C 27,2 C 11,3 km/h (2 Bft) 94,74 %
04.08.2017 20:38 27,2 C 28,3 C 65 % 1012,2 hPa 0,0 l/m 2,5 km/h (1 Bft) W 275 0 min 0,000 mm 0,0 UV-I 26 W/m 20,0 C 27,2 C 6,4 km/h (2 Bft) 100,00 %
04.08.2017 20:40 27,2 C 28,3 C 65 % 1012,2 hPa 0,0 l/m 2,2 km/h (1 Bft) W 275 0 min 0,000 mm 0,0 UV-I 24 W/m 20,0 C 27,2 C 4,8 km/h (1 Bft) 96,00 %
04.08.2017 20:42 27,2 C 28,3 C 65 % 1012,3 hPa 0,0 l/m 1,2 km/h (1 Bft) W 275 0 min 0,000 mm 0,0 UV-I 22 W/m 20,0 C 27,2 C 3,2 km/h (1 Bft) 95,74 %
04.08.2017 20:44 27,1 C 28,3 C 65 % 1012,3 hPa 0,0 l/m 1,2 km/h (1 Bft) W 275 0 min 0,000 mm 0,0 UV-I 19 W/m 19,9 C 27,1 C 3,2 km/h (1 Bft) 97,87 %
04.08.2017 20:46 27,1 C 28,3 C 65 % 1012,4 hPa 0,0 l/m 1,4 km/h (1 Bft) W 275 0 min 0,000 mm 0,0 UV-I 17 W/m 19,9 C 27,1 C 4,8 km/h (1 Bft) 100,00 %
04.08.2017 20:48 27,0 C 28,3 C 65 % 1012,4 hPa 0,0 l/m 1,0 km/h (0 Bft) W 275 0 min 0,000 mm 0,0 UV-I 13 W/m 19,8 C 27,0 C 3,2 km/h (1 Bft) 91,49 %
04.08.2017 20:50 26,9 C 28,3 C 65 % 1012,4 hPa 0,0 l/m 2,5 km/h (1 Bft) W 275 0 min 0,000 mm 0,0 UV-I 0 W/m 19,7 C 26,9 C 4,8 km/h (1 Bft) 93,75 %
04.08.2017 20:52 26,9 C 28,3 C 65 % 1012,4 hPa 0,0 l/m 2,0 km/h (1 Bft) W-NW 298 0 min 0,000 mm 0,0 UV-I 0 W/m 19,7 C 26,9 C 4,8 km/h (1 Bft) 100,00 %
04.08.2017 20:54 26,9 C 28,3 C 65 % 1012,3 hPa 0,0 l/m 0,4 km/h (0 Bft) W-NW 298 0 min 0,000 mm 0,0 UV-I 5 W/m 19,7 C 26,9 C 1,6 km/h (1 Bft) 100,00 %
04.08.2017 20:56 26,8 C 28,3 C 65 % 1012,3 hPa 0,0 l/m 0,0 km/h (0 Bft) W-NW 298 0 min 0,000 mm 0,0 UV-I 1 W/m 19,7 C 26,8 C 1,6 km/h (1 Bft) 100,00 %
04.08.2017 20:58 26,8 C 28,3 C 65 % 1012,3 hPa 0,0 l/m 0,0 km/h (0 Bft) W-NW 298 0 min 0,000 mm 0,0 UV-I 0 W/m 19,7 C 26,8 C 0,0 km/h (0 Bft) 93,62 %
04.08.2017 21:00 26,8 C 28,3 C 65 % 1012,4 hPa 0,0 l/m 0,0 km/h (0 Bft) W-NW 298 0 min 0,000 mm 0,0 UV-I 0 W/m 19,7 C 26,8 C 1,6 km/h (1 Bft) 100,00 %
04.08.2017 21:02 26,7 C 28,3 C 65 % 1012,4 hPa 0,0 l/m 0,0 km/h (0 Bft) W-NW 298 0 min 0,051 mm 0,0 UV-I 0 W/m 19,6 C 26,7 C 0,0 km/h (0 Bft) 98,00 %
04.08.2017 21:04 26,7 C 28,3 C 65 % 1012,4 hPa 0,0 l/m 0,0 km/h (0 Bft) W-NW 298 0 min 0,000 mm 0,0 UV-I 0 W/m 19,6 C 26,7 C 0,0 km/h (0 Bft) 100,00 %
04.08.2017 21:06 26,7 C 28,3 C 65 % 1012,4 hPa 0,0 l/m 0,3 km/h (0 Bft) W-NW 298 0 min 0,000 mm 0,0 UV-I 0 W/m 19,6 C 26,7 C 1,6 km/h (1 Bft) 95,74 %
04.08.2017 21:08 26,6 C 28,3 C 66 % 1012,3 hPa 0,0 l/m 0,0 km/h (0 Bft) W-NW 298 0 min 0,000 mm 0,0 UV-I 0 W/m 19,7 C 26,6 C 1,6 km/h (1 Bft) 93,62 %
04.08.2017 21:10 26,5 C 28,3 C 66 % 1012,3 hPa 0,0 l/m 1,3 km/h (1 Bft) W-NW 298 0 min 0,000 mm 0,0 UV-I 0 W/m 19,6 C 26,5 C 4,8 km/h (1 Bft) 91,49 %
04.08.2017 21:12 26,5 C 28,3 C 66 % 1012,3 hPa 0,0 l/m 0,6 km/h (0 Bft) W-NW 298 0 min 0,000 mm 0,0 UV-I 0 W/m 19,6 C 26,5 C 1,6 km/h (1 Bft) 93,62 %
04.08.2017 21:14 26,4 C 28,3 C 66 % 1012,3 hPa 0,0 l/m 1,5 km/h (1 Bft) W-NW 298 0 min 0,000 mm 0,0 UV-I 0 W/m 19,5 C 26,4 C 3,2 km/h (1 Bft) 96,00 %
04.08.2017 21:16 26,4 C 28,3 C 66 % 1012,3 hPa 0,0 l/m 0,1 km/h (0 Bft) W-NW 298 0 min 0,000 mm 0,0 UV-I 0 W/m 19,5 C 26,4 C 1,6 km/h (1 Bft) 96,00 %
04.08.2017 21:18 26,4 C 28,3 C 66 % 1012,3 hPa 0,0 l/m 1,2 km/h (1 Bft) W-NW 298 0 min 0,000 mm 0,0 UV-I 0 W/m 19,5 C 26,4 C 3,2 km/h (1 Bft) 91,49 %
04.08.2017 21:20 26,4 C 28,3 C 66 % 1012,4 hPa 0,0 l/m 0,1 km/h (0 Bft) W-NW 298 0 min 0,000 mm 0,0 UV-I 0 W/m 19,5 C 26,4 C 1,6 km/h (1 Bft) 89,36 %
04.08.2017 21:22 26,3 C 28,3 C 67 % 1012,4 hPa 0,0 l/m 0,0 km/h (0 Bft) W-NW 298 0 min 0,000 mm 0,0 UV-I 0 W/m 19,7 C 26,3 C 0,0 km/h (0 Bft) 94,74 %
04.08.2017 21:24 26,3 C 28,3 C 67 % 1012,5 hPa 0,0 l/m 0,0 km/h (0 Bft) W-NW 298 0 min 0,000 mm 0,0 UV-I 0 W/m 19,7 C 26,3 C 0,0 km/h (0 Bft) 97,92 %
04.08.2017 21:26 26,3 C 28,3 C 67 % 1012,6 hPa 0,0 l/m 0,0 km/h (0 Bft) W-NW 298 0 min 0,000 mm 0,0 UV-I 0 W/m 19,7 C 26,3 C 0,0 km/h (0 Bft) 95,74 %
04.08.2017 21:28 26,3 C 28,3 C 67 % 1012,7 hPa 0,0 l/m 0,0 km/h (0 Bft) W-NW 298 0 min 0,000 mm 0,0 UV-I 0 W/m 19,7 C 26,3 C 0,0 km/h (0 Bft) 90,00 %
04.08.2017 21:30 26,3 C 28,3 C 66 % 1012,7 hPa 0,0 l/m 0,0 km/h (0 Bft) W-NW 298 0 min 0,000 mm 0,0 UV-I 0 W/m 19,4 C 26,3 C 0,0 km/h (0 Bft) 91,49 %
04.08.2017 21:32 26,3 C 28,3 C 67 % 1012,7 hPa 0,0 l/m 0,0 km/h (0 Bft) W-NW 298 0 min 0,000 mm 0,0 UV-I 0 W/m 19,7 C 26,3 C 0,0 km/h (0 Bft) 97,87 %
04.08.2017 21:34 26,3 C 28,3 C 67 % 1012,7 hPa 0,0 l/m 0,0 km/h (0 Bft) W-NW 298 0 min 0,000 mm 0,0 UV-I 0 W/m 19,7 C 26,3 C 0,0 km/h (0 Bft) 93,62 %
04.08.2017 21:36 26,3 C 28,3 C 67 % 1012,7 hPa 0,0 l/m 0,0 km/h (0 Bft) W-NW 298 0 min 0,000 mm 0,0 UV-I 0 W/m 19,7 C 26,3 C 0,0 km/h (0 Bft) 97,87 %
04.08.2017 21:38 26,3 C 28,3 C 68 % 1012,8 hPa 0,0 l/m 0,2 km/h (0 Bft) W-NW 298 0 min 0,000 mm 0,0 UV-I 0 W/m 19,9 C 26,3 C 1,6 km/h (1 Bft) 91,49 %
04.08.2017 21:40 26,3 C 28,3 C 70 % 1012,7 hPa 0,0 l/m 0,0 km/h (0 Bft) W-NW 298 0 min 0,000 mm 0,0 UV-I 0 W/m 20,4 C 26,3 C 0,0 km/h (0 Bft) 95,74 %
04.08.2017 21:42 26,1 C 28,3 C 71 % 1012,8 hPa 0,0 l/m 0,0 km/h (0 Bft) W-NW 298 0 min 0,000 mm 0,0 UV-I 0 W/m 20,4 C 26,1 C 1,6 km/h (1 Bft) 89,36 %
04.08.2017 21:44 25,8 C 28,3 C 72 % 1012,8 hPa 0,0 l/m 0,5 km/h (0 Bft) W-NW 298 0 min 0,000 mm 0,0 UV-I 0 W/m 20,4 C 25,8 C 3,2 km/h (1 Bft) 92,00 %
04.08.2017 21:46 25,7 C 28,3 C 72 % 1012,9 hPa 0,0 l/m 2,6 km/h (1 Bft) W-NW 298 0 min 0,000 mm 0,0 UV-I 0 W/m 20,3 C 25,7 C 4,8 km/h (1 Bft) 91,49 %
04.08.2017 21:48 25,5 C 28,3 C 72 % 1012,9 hPa 0,0 l/m 2,8 km/h (1 Bft) W-NW 298 0 min 0,000 mm 0,0 UV-I 0 W/m 20,1 C 25,5 C 3,2 km/h (1 Bft) 94,59 %
04.08.2017 21:50 25,4 C 28,3 C 72 % 1012,9 hPa 0,0 l/m 2,5 km/h (1 Bft) W-NW 296 0 min 0,000 mm 0,0 UV-I 0 W/m 20,0 C 25,4 C 4,8 km/h (1 Bft) 95,74 %
04.08.2017 21:52 25,3 C 28,3 C 73 % 1012,8 hPa 0,0 l/m 2,5 km/h (1 Bft) SW 229 0 min 0,000 mm 0,0 UV-I 0 W/m 20,1 C 25,3 C 3,2 km/h (1 Bft) 95,74 %
04.08.2017 21:54 25,3 C 28,3 C 74 % 1012,9 hPa 0,0 l/m 1,3 km/h (1 Bft) SW 229 0 min 0,000 mm 0,0 UV-I 0 W/m 20,3 C 25,3 C 3,2 km/h (1 Bft) 95,74 %
04.08.2017 21:56 25,2 C 28,3 C 73 % 1012,9 hPa 0,0 l/m 0,0 km/h (0 Bft) SW 229 0 min 0,000 mm 0,0 UV-I 0 W/m 20,0 C 25,2 C 0,0 km/h (0 Bft) 92,00 %
04.08.2017 21:58 25,2 C 28,3 C 73 % 1012,9 hPa 0,0 l/m 0,0 km/h (0 Bft) SW 229 0 min 0,000 mm 0,0 UV-I 0 W/m 20,0 C 25,2 C 0,0 km/h (0 Bft) 91,49 %
04.08.2017 22:00 25,2 C 28,3 C 73 % 1013,0 hPa 0,0 l/m 0,0 km/h (0 Bft) SW 229 0 min 0,000 mm 0,0 UV-I 0 W/m 20,0 C 25,2 C 0,0 km/h (0 Bft) 93,62 %
04.08.2017 22:02 25,2 C 28,3 C 72 % 1013,0 hPa 0,0 l/m 0,0 km/h (0 Bft) SW 229 0 min 0,025 mm 0,0 UV-I 0 W/m 19,8 C 25,2 C 0,0 km/h (0 Bft) 93,62 %
04.08.2017 22:04 25,3 C 28,3 C 72 % 1013,0 hPa 0,0 l/m 0,0 km/h (0 Bft) SW 229 0 min 0,000 mm 0,0 UV-I 0 W/m 19,9 C 25,3 C 0,0 km/h (0 Bft) 94,00 %
04.08.2017 22:06 25,4 C 28,3 C 72 % 1013,0 hPa 0,0 l/m 0,0 km/h (0 Bft) SW 229 0 min 0,000 mm 0,0 UV-I 0 W/m 20,0 C 25,4 C 0,0 km/h (0 Bft) 97,44 %
04.08.2017 22:08 25,4 C 28,3 C 72 % 1013,0 hPa 0,0 l/m 0,2 km/h (0 Bft) SW 229 0 min 0,000 mm 0,0 UV-I 0 W/m 20,0 C 25,4 C 1,6 km/h (1 Bft) 95,74 %
04.08.2017 22:10 25,5 C 28,3 C 72 % 1013,0 hPa 0,0 l/m 0,8 km/h (0 Bft) SW 229 0 min 0,000 mm 0,0 UV-I 0 W/m 20,1 C 25,5 C 1,6 km/h (1 Bft) 93,62 %
04.08.2017 22:12 25,4 C 28,3 C 73 % 1013,0 hPa 0,0 l/m 1,2 km/h (1 Bft) SW 229 0 min 0,000 mm 0,0 UV-I 0 W/m 20,2 C 25,4 C 3,2 km/h (1 Bft) 93,62 %
04.08.2017 22:14 25,4 C 28,3 C 73 % 1013,0 hPa 0,0 l/m 0,7 km/h (0 Bft) SW 229 0 min 0,000 mm 0,0 UV-I 0 W/m 20,2 C 25,4 C 1,6 km/h (1 Bft) 96,00 %
04.08.2017 22:16 25,4 C 28,3 C 73 % 1013,0 hPa 0,0 l/m 0,0 km/h (0 Bft) SW 229 0 min 0,000 mm 0,0 UV-I 0 W/m 20,2 C 25,4 C 0,0 km/h (0 Bft) 97,87 %
04.08.2017 22:18 25,4 C 28,3 C 74 % 1012,9 hPa 0,0 l/m 0,0 km/h (0 Bft) SW 229 0 min 0,000 mm 0,0 UV-I 0 W/m 20,4 C 25,4 C 0,0 km/h (0 Bft) 93,62 %
04.08.2017 22:20 25,3 C 28,3 C 74 % 1013,0 hPa 0,0 l/m 0,0 km/h (0 Bft) SW 229 0 min 0,000 mm 0,0 UV-I 0 W/m 20,3 C 25,3 C 0,0 km/h (0 Bft) 96,00 %
04.08.2017 22:22 25,3 C 28,3 C 74 % 1013,1 hPa 0,0 l/m 0,0 km/h (0 Bft) SW 229 0 min 0,000 mm 0,0 UV-I 0 W/m 20,3 C 25,3 C 0,0 km/h (0 Bft) 97,87 %
04.08.2017 22:24 25,2 C 28,3 C 73 % 1013,1 hPa 0,0 l/m 0,0 km/h (0 Bft) SW 229 0 min 0,000 mm 0,0 UV-I 0 W/m 20,0 C 25,2 C 0,0 km/h (0 Bft) 94,00 %
04.08.2017 22:26 25,1 C 28,3 C 73 % 1013,0 hPa 0,0 l/m 0,0 km/h (0 Bft) SW 229 0 min 0,000 mm 0,0 UV-I 0 W/m 19,9 C 25,1 C 0,0 km/h (0 Bft) 94,29 %
04.08.2017 22:28 25,1 C 28,3 C 73 % 1013,0 hPa 0,0 l/m 0,0 km/h (0 Bft) SW 229 0 min 0,000 mm 0,0 UV-I 0 W/m 19,9 C 25,1 C 0,0 km/h (0 Bft) 96,00 %
04.08.2017 22:30 25,1 C 28,3 C 74 % 1013,0 hPa 0,0 l/m 0,0 km/h (0 Bft) SW 229 0 min 0,000 mm 0,0 UV-I 0 W/m 20,1 C 25,1 C 0,0 km/h (0 Bft) 95,74 %
04.08.2017 22:32 25,1 C 28,3 C 74 % 1013,0 hPa 0,0 l/m 0,0 km/h (0 Bft) SW 229 0 min 0,000 mm 0,0 UV-I 0 W/m 20,1 C 25,1 C 0,0 km/h (0 Bft) 93,62 %
04.08.2017 22:34 25,1 C 28,3 C 74 % 1013,0 hPa 0,0 l/m 2,0 km/h (1 Bft) SW 229 0 min 0,000 mm 0,0 UV-I 0 W/m 20,1 C 25,1 C 3,2 km/h (1 Bft) 98,00 %
04.08.2017 22:36 25,1 C 28,3 C 74 % 1013,1 hPa 0,0 l/m 3,4 km/h (1 Bft) SW 229 0 min 0,000 mm 0,0 UV-I 0 W/m 20,1 C 25,1 C 4,8 km/h (1 Bft) 98,00 %
04.08.2017 22:38 25,1 C 28,3 C 74 % 1013,2 hPa 0,0 l/m 4,1 km/h (1 Bft) SW 229 0 min 0,000 mm 0,0 UV-I 0 W/m 20,1 C 25,1 C 4,8 km/h (1 Bft) 93,62 %
04.08.2017 22:40 25,1 C 28,3 C 74 % 1013,2 hPa 0,0 l/m 3,1 km/h (1 Bft) SW 229 0 min 0,000 mm 0,0 UV-I 0 W/m 20,1 C 25,1 C 4,8 km/h (1 Bft) 95,74 %
04.08.2017 22:42 25,0 C 28,3 C 75 % 1013,2 hPa 0,0 l/m 2,1 km/h (1 Bft) SW 229 0 min 0,000 mm 0,0 UV-I 0 W/m 20,2 C 25,0 C 4,8 km/h (1 Bft) 95,74 %
04.08.2017 22:44 25,0 C 28,3 C 74 % 1013,1 hPa 0,0 l/m 1,8 km/h (1 Bft) SW 229 0 min 0,000 mm 0,0 UV-I 0 W/m 20,0 C 25,0 C 3,2 km/h (1 Bft) 93,62 %
04.08.2017 22:46 25,0 C 28,3 C 74 % 1013,1 hPa 0,0 l/m 1,4 km/h (1 Bft) SW 229 0 min 0,000 mm 0,0 UV-I 0 W/m 20,0 C 25,0 C 3,2 km/h (1 Bft) 97,87 %
04.08.2017 22:48 25,0 C 28,3 C 74 % 1013,2 hPa 0,0 l/m 1,6 km/h (1 Bft) SW 229 0 min 0,000 mm 0,0 UV-I 0 W/m 20,0 C 25,0 C 3,2 km/h (1 Bft) 97,87 %
04.08.2017 22:50 24,9 C 28,3 C 75 % 1013,1 hPa 0,0 l/m 1,4 km/h (1 Bft) SW 229 0 min 0,000 mm 0,0 UV-I 0 W/m 20,2 C 24,9 C 3,2 km/h (1 Bft) 95,24 %
04.08.2017 22:52 24,9 C 28,3 C 75 % 1013,1 hPa 0,0 l/m 1,4 km/h (1 Bft) SW 229 0 min 0,000 mm 0,0 UV-I 0 W/m 20,2 C 24,9 C 3,2 km/h (1 Bft) 94,00 %
04.08.2017 22:54 24,9 C 28,3 C 75 % 1013,0 hPa 0,0 l/m 1,4 km/h (1 Bft) SW 229 0 min 0,000 mm 0,0 UV-I 0 W/m 20,2 C 24,9 C 3,2 km/h (1 Bft) 97,87 %
04.08.2017 22:56 24,9 C 28,3 C 75 % 1013,1 hPa 0,0 l/m 1,5 km/h (1 Bft) SW 229 0 min 0,000 mm 0,0 UV-I 0 W/m 20,2 C 24,9 C 4,8 km/h (1 Bft) 97,87 %
04.08.2017 22:59 24,9 C 28,3 C 75 % 1013,1 hPa 0,0 l/m 2,0 km/h (1 Bft) SW 229 0 min 0,000 mm 0,0 UV-I 0 W/m 20,2 C 24,9 C 4,8 km/h (1 Bft) 98,57 %
04.08.2017 23:00 24,9 C 28,3 C 75 % 1013,1 hPa 0,0 l/m 3,6 km/h (1 Bft) SW 229 0 min 0,000 mm 0,0 UV-I 0 W/m 20,2 C 24,9 C 4,8 km/h (1 Bft) 100,00 %
04.08.2017 23:04 24,8 C 28,3 C 75 % 1013,1 hPa 0,0 l/m 2,3 km/h (1 Bft) SW 229 0 min 0,026 mm 0,0 UV-I 0 W/m 20,1 C 24,8 C 4,8 km/h (1 Bft) 96,81 %
04.08.2017 23:06 24,8 C 28,3 C 75 % 1013,1 hPa 0,0 l/m 2,1 km/h (1 Bft) SW 229 0 min 0,000 mm 0,0 UV-I 0 W/m 20,1 C 24,8 C 4,8 km/h (1 Bft) 93,62 %
04.08.2017 23:09 24,8 C 28,3 C 75 % 1013,1 hPa 0,0 l/m 3,6 km/h (1 Bft) SW 229 0 min 0,000 mm 0,0 UV-I 0 W/m 20,1 C 24,8 C 6,4 km/h (2 Bft) 91,55 %
04.08.2017 23:10 24,8 C 28,3 C 75 % 1013,1 hPa 0,0 l/m 3,3 km/h (1 Bft) SW 229 0 min 0,000 mm 0,0 UV-I 0 W/m 20,1 C 24,8 C 4,8 km/h (1 Bft) 91,30 %
04.08.2017 23:12 24,8 C 28,3 C 75 % 1013,1 hPa 0,0 l/m 3,5 km/h (1 Bft) SW 229 0 min 0,000 mm 0,0 UV-I 0 W/m 20,1 C 24,8 C 4,8 km/h (1 Bft) 93,62 %
04.08.2017 23:14 24,8 C 28,3 C 76 % 1013,1 hPa 0,0 l/m 2,9 km/h (1 Bft) SW 229 0 min 0,000 mm 0,0 UV-I 0 W/m 20,3 C 24,8 C 6,4 km/h (2 Bft) 94,74 %
04.08.2017 23:16 24,8 C 28,3 C 76 % 1013,2 hPa 0,0 l/m 2,3 km/h (1 Bft) SW 223 0 min 0,000 mm 0,0 UV-I 0 W/m 20,3 C 24,8 C 4,8 km/h (1 Bft) 95,74 %
04.08.2017 23:19 24,7 C 27,8 C 76 % 1013,2 hPa 0,0 l/m 3,0 km/h (1 Bft) S-SW 192 0 min 0,000 mm 0,0 UV-I 0 W/m 20,2 C 24,7 C 6,4 km/h (2 Bft) 95,77 %
04.08.2017 23:20 24,7 C 28,3 C 76 % 1013,2 hPa 0,0 l/m 3,8 km/h (1 Bft) S-SW 196 0 min 0,000 mm 0,0 UV-I 0 W/m 20,2 C 24,7 C 6,4 km/h (2 Bft) 78,26 %
04.08.2017 23:22 24,7 C 27,8 C 76 % 1013,2 hPa 0,0 l/m 3,1 km/h (1 Bft) S 190 0 min 0,000 mm 0,0 UV-I 0 W/m 20,2 C 24,7 C 6,4 km/h (2 Bft) 95,83 %
04.08.2017 23:24 24,7 C 27,8 C 76 % 1013,2 hPa 0,0 l/m 2,6 km/h (1 Bft) S 172 0 min 0,000 mm 0,0 UV-I 0 W/m 20,2 C 24,7 C 4,8 km/h (1 Bft) 93,62 %
04.08.2017 23:26 24,7 C 27,8 C 76 % 1013,2 hPa 0,0 l/m 4,6 km/h (1 Bft) S 172 0 min 0,000 mm 0,0 UV-I 0 W/m 20,2 C 24,7 C 8,0 km/h (2 Bft) 95,74 %
04.08.2017 23:28 24,7 C 27,8 C 77 % 1013,3 hPa 0,0 l/m 3,9 km/h (1 Bft) S 175 0 min 0,000 mm 0,0 UV-I 0 W/m 20,4 C 24,7 C 8,0 km/h (2 Bft) 91,49 %
04.08.2017 23:30 24,7 C 27,8 C 77 % 1013,3 hPa 0,0 l/m 3,5 km/h (1 Bft) S 175 0 min 0,000 mm 0,0 UV-I 0 W/m 20,4 C 24,7 C 9,7 km/h (2 Bft) 91,49 %
04.08.2017 23:32 24,7 C 27,8 C 77 % 1013,4 hPa 0,0 l/m 5,6 km/h (1 Bft) S-SO 161 0 min 0,000 mm 0,0 UV-I 0 W/m 20,4 C 24,7 C 8,0 km/h (2 Bft) 95,74 %
04.08.2017 23:34 24,7 C 27,8 C 77 % 1013,3 hPa 0,0 l/m 5,8 km/h (2 Bft) S-SO 167 0 min 0,000 mm 0,0 UV-I 0 W/m 20,4 C 24,7 C 8,0 km/h (2 Bft) 100,00 %
04.08.2017 23:36 24,7 C 27,8 C 77 % 1013,3 hPa 0,0 l/m 3,2 km/h (1 Bft) SW 217 0 min 0,000 mm 0,0 UV-I 0 W/m 20,4 C 24,7 C 8,0 km/h (2 Bft) 100,00 %
04.08.2017 23:38 24,6 C 27,8 C 76 % 1013,3 hPa 0,0 l/m 4,4 km/h (1 Bft) S 186 0 min 0,000 mm 0,0 UV-I 0 W/m 20,1 C 24,6 C 8,0 km/h (2 Bft) 100,00 %
04.08.2017 23:40 24,6 C 27,8 C 77 % 1013,3 hPa 0,0 l/m 3,6 km/h (1 Bft) S 169 0 min 0,000 mm 0,0 UV-I 0 W/m 20,3 C 24,6 C 6,4 km/h (2 Bft) 100,00 %
04.08.2017 23:42 24,6 C 27,8 C 77 % 1013,4 hPa 0,0 l/m 5,1 km/h (1 Bft) S 179 0 min 0,000 mm 0,0 UV-I 0 W/m 20,3 C 24,6 C 8,0 km/h (2 Bft) 92,11 %
04.08.2017 23:44 24,5 C 27,8 C 77 % 1013,4 hPa 0,0 l/m 4,4 km/h (1 Bft) S-SW 197 0 min 0,000 mm 0,0 UV-I 0 W/m 20,2 C 24,5 C 6,4 km/h (2 Bft) 100,00 %
04.08.2017 23:46 24,5 C 27,8 C 76 % 1013,5 hPa 0,0 l/m 4,3 km/h (1 Bft) S 190 0 min 0,000 mm 0,0 UV-I 0 W/m 20,0 C 24,5 C 6,4 km/h (2 Bft) 100,00 %
04.08.2017 23:48 24,4 C 27,8 C 76 % 1013,4 hPa 0,0 l/m 4,0 km/h (1 Bft) S 186 0 min 0,000 mm 0,0 UV-I 0 W/m 19,9 C 24,4 C 6,4 km/h (2 Bft) 100,00 %
04.08.2017 23:50 24,4 C 27,8 C 76 % 1013,4 hPa 0,0 l/m 3,5 km/h (1 Bft) S 186 0 min 0,000 mm 0,0 UV-I 0 W/m 19,9 C 24,4 C 6,4 km/h (2 Bft) 100,00 %
04.08.2017 23:52 24,4 C 27,8 C 76 % 1013,4 hPa 0,0 l/m 3,3 km/h (1 Bft) S 176 0 min 0,000 mm 0,0 UV-I 0 W/m 19,9 C 24,4 C 6,4 km/h (2 Bft) 100,00 %
04.08.2017 23:54 24,4 C 27,8 C 76 % 1013,4 hPa 0,0 l/m 3,5 km/h (1 Bft) S 173 0 min 0,000 mm 0,0 UV-I 0 W/m 19,9 C 24,4 C 8,0 km/h (2 Bft) 97,87 %
04.08.2017 23:56 24,4 C 27,8 C 76 % 1013,3 hPa 0,0 l/m 2,6 km/h (1 Bft) S 187 0 min 0,000 mm 0,0 UV-I 0 W/m 19,9 C 24,4 C 6,4 km/h (2 Bft) 100,00 %
04.08.2017 23:58 24,4 C 27,8 C 76 % 1013,4 hPa 0,0 l/m 3,6 km/h (1 Bft) S 181 0 min 0,000 mm 0,0 UV-I 0 W/m 19,9 C 24,4 C 8,0 km/h (2 Bft) 97,96 %
_ Min-Zeit 04:16 03:48 16:39 17:58 - 00:32 - - - - - - 00:16 04:16 00:32 00:02
Minimum _ 19,8 C 26,7 C 52 % 1010,3 hPa - 0,0 km/h (0 Bft) - - - - - - 17,0 C 19,8 C 0,0 km/h (0 Bft) 10,00 %
_ Max-Zeit 16:39 15:44 04:22 23:46 00:00 14:44 - - 11:03 13:00 12:10 12:10 12:44 16:39 17:24 00:00
Maximum _ 30,8 C 28,3 C 87 % 1013,5 hPa 0,0 l/m 10,8 km/h
NO (2 Bft)
- - 3 min 0,534 mm 6,7 UV-I 1090 W/m 22,4 C 30,8 C 24,1 km/h
NW (4 Bft)
100,00 %
Durchschnitt _ 25,1 C 27,4 C 72 % 1011,8 hPa #0,0 l/m 3,1 km/h (1 Bft) W-SW - #9:22 h #4,115 mm 3,3 UV-I 368 W/m 19,4 C 25,1 C 6,2 km/h (2 Bft) 96,87 %